<?xml version="1.0" encoding="utf-8"?>
<gpx xmlns:xsi="http://www.w3.org/2001/XMLSchema-instance" xmlns:xsd="http://www.w3.org/2001/XMLSchema" version="1.1" creator="Shapelink.com" xmlns="http://www.topografix.com/GPX/1/1" xmlns:gpxtpx="http://www.garmin.com/xmlschemas/TrackPointExtension/v1">
  <metadata>
    <name>Löpning 6.93 km, 2017-12-04</name>
    <desc></desc>
    <author><name>Bengt-Åke Forslund</name></author> 
    <time>2017-12-04T18:04:39Z</time>
  </metadata>
  <trk>
    <name>Löpning 6.93 km, 2017-12-04</name>
    <trkseg>
      <trkpt lat="62.637244343404" lon="17.96582397149">
        <ele>47.2</ele>
        <time>2017-12-04T18:04:39Z</time>
      </trkpt>
      <trkpt lat="62.63724216411" lon="17.965812739744">
        <ele>47.4</ele>
        <time>2017-12-04T18:04:40Z</time>
      </trkpt>
      <trkpt lat="62.637239900997" lon="17.965798574333">
        <ele>47.6</ele>
        <time>2017-12-04T18:04:41Z</time>
      </trkpt>
      <trkpt lat="62.637239062807" lon="17.965787845501">
        <ele>47.6</ele>
        <time>2017-12-04T18:04:42Z</time>
      </trkpt>
      <trkpt lat="62.63723629678" lon="17.965766723113">
        <ele>47.6</ele>
        <time>2017-12-04T18:04:43Z</time>
      </trkpt>
      <trkpt lat="62.637229423622" lon="17.965748282933">
        <ele>47.8</ele>
        <time>2017-12-04T18:04:44Z</time>
      </trkpt>
      <trkpt lat="62.637227328147" lon="17.965732105866">
        <ele>47.6</ele>
        <time>2017-12-04T18:04:45Z</time>
      </trkpt>
      <trkpt lat="62.637225484129" lon="17.965717437541">
        <ele>47.4</ele>
        <time>2017-12-04T18:04:46Z</time>
      </trkpt>
      <trkpt lat="62.637216347858" lon="17.965687095063">
        <ele>47.4</ele>
        <time>2017-12-04T18:04:47Z</time>
      </trkpt>
      <trkpt lat="62.637208301234" lon="17.965655579119">
        <ele>47.4</ele>
        <time>2017-12-04T18:04:48Z</time>
      </trkpt>
      <trkpt lat="62.637197823859" lon="17.965624063175">
        <ele>47.4</ele>
        <time>2017-12-04T18:04:49Z</time>
      </trkpt>
      <trkpt lat="62.637182401163" lon="17.965575783431">
        <ele>47.4</ele>
        <time>2017-12-04T18:04:50Z</time>
      </trkpt>
      <trkpt lat="62.637171588512" lon="17.965539741261">
        <ele>47.2</ele>
        <time>2017-12-04T18:04:51Z</time>
      </trkpt>
      <trkpt lat="62.637166140277" lon="17.965507219489">
        <ele>47</ele>
        <time>2017-12-04T18:04:52Z</time>
      </trkpt>
      <trkpt lat="62.637142587138" lon="17.965451731311">
        <ele>46.6</ele>
        <time>2017-12-04T18:04:53Z</time>
      </trkpt>
      <trkpt lat="62.637131020116" lon="17.965419880091">
        <ele>46.4</ele>
        <time>2017-12-04T18:04:54Z</time>
      </trkpt>
      <trkpt lat="62.637118782542" lon="17.965378808781">
        <ele>46.4</ele>
        <time>2017-12-04T18:04:55Z</time>
      </trkpt>
      <trkpt lat="62.637107969891" lon="17.965335725815">
        <ele>46.4</ele>
        <time>2017-12-04T18:04:56Z</time>
      </trkpt>
      <trkpt lat="62.637097911611" lon="17.965305634794">
        <ele>46.6</ele>
        <time>2017-12-04T18:04:57Z</time>
      </trkpt>
      <trkpt lat="62.637086344589" lon="17.965264395846">
        <ele>47</ele>
        <time>2017-12-04T18:04:58Z</time>
      </trkpt>
      <trkpt lat="62.637071927721" lon="17.965223659812">
        <ele>47.2</ele>
        <time>2017-12-04T18:04:59Z</time>
      </trkpt>
      <trkpt lat="62.637058935776" lon="17.965183678149">
        <ele>47.4</ele>
        <time>2017-12-04T18:05:00Z</time>
      </trkpt>
      <trkpt lat="62.637044686546" lon="17.965140259907">
        <ele>47.6</ele>
        <time>2017-12-04T18:05:01Z</time>
      </trkpt>
      <trkpt lat="62.637034628266" lon="17.965106983764">
        <ele>47.6</ele>
        <time>2017-12-04T18:05:02Z</time>
      </trkpt>
      <trkpt lat="62.637018115923" lon="17.965055854174">
        <ele>47.6</ele>
        <time>2017-12-04T18:05:03Z</time>
      </trkpt>
      <trkpt lat="62.637003950512" lon="17.96501595633">
        <ele>47.6</ele>
        <time>2017-12-04T18:05:04Z</time>
      </trkpt>
      <trkpt lat="62.636988779273" lon="17.964976980495">
        <ele>47.6</ele>
        <time>2017-12-04T18:05:05Z</time>
      </trkpt>
      <trkpt lat="62.636972769844" lon="17.964932807882">
        <ele>47.6</ele>
        <time>2017-12-04T18:05:06Z</time>
      </trkpt>
      <trkpt lat="62.636959861718" lon="17.964897017169">
        <ele>47.6</ele>
        <time>2017-12-04T18:05:07Z</time>
      </trkpt>
      <trkpt lat="62.636943600832" lon="17.964855778221">
        <ele>47.6</ele>
        <time>2017-12-04T18:05:08Z</time>
      </trkpt>
      <trkpt lat="62.636926753213" lon="17.964823004992">
        <ele>47.4</ele>
        <time>2017-12-04T18:05:09Z</time>
      </trkpt>
      <trkpt lat="62.636910995241" lon="17.964795009446">
        <ele>47.2</ele>
        <time>2017-12-04T18:05:10Z</time>
      </trkpt>
      <trkpt lat="62.636890040491" lon="17.964756536525">
        <ele>47.4</ele>
        <time>2017-12-04T18:05:11Z</time>
      </trkpt>
      <trkpt lat="62.636872773777" lon="17.96472594259">
        <ele>47.4</ele>
        <time>2017-12-04T18:05:12Z</time>
      </trkpt>
      <trkpt lat="62.636853411588" lon="17.964689648963">
        <ele>47.4</ele>
        <time>2017-12-04T18:05:13Z</time>
      </trkpt>
      <trkpt lat="62.636836563969" lon="17.964652098051">
        <ele>47.6</ele>
        <time>2017-12-04T18:05:14Z</time>
      </trkpt>
      <trkpt lat="62.63681803997" lon="17.964612870759">
        <ele>47.8</ele>
        <time>2017-12-04T18:05:15Z</time>
      </trkpt>
      <trkpt lat="62.636799767428" lon="17.964578337331">
        <ele>47.8</ele>
        <time>2017-12-04T18:05:16Z</time>
      </trkpt>
      <trkpt lat="62.636784680008" lon="17.964533913261">
        <ele>47.8</ele>
        <time>2017-12-04T18:05:17Z</time>
      </trkpt>
      <trkpt lat="62.636769927864" lon="17.96449627853">
        <ele>47.6</ele>
        <time>2017-12-04T18:05:18Z</time>
      </trkpt>
      <trkpt lat="62.636755091901" lon="17.96444766351">
        <ele>47.8</ele>
        <time>2017-12-04T18:05:19Z</time>
      </trkpt>
      <trkpt lat="62.636741932318" lon="17.964401646879">
        <ele>47.8</ele>
        <time>2017-12-04T18:05:20Z</time>
      </trkpt>
      <trkpt lat="62.636730281477" lon="17.964367364908">
        <ele>47.8</ele>
        <time>2017-12-04T18:05:21Z</time>
      </trkpt>
      <trkpt lat="62.636719217369" lon="17.9643227732">
        <ele>47.8</ele>
        <time>2017-12-04T18:05:22Z</time>
      </trkpt>
      <trkpt lat="62.636702872664" lon="17.964274241999">
        <ele>48</ele>
        <time>2017-12-04T18:05:23Z</time>
      </trkpt>
      <trkpt lat="62.636685773588" lon="17.964231075214">
        <ele>47.8</ele>
        <time>2017-12-04T18:05:24Z</time>
      </trkpt>
      <trkpt lat="62.636671272901" lon="17.964182711651">
        <ele>47.8</ele>
        <time>2017-12-04T18:05:25Z</time>
      </trkpt>
      <trkpt lat="62.636652581264" lon="17.964140718332">
        <ele>48</ele>
        <time>2017-12-04T18:05:26Z</time>
      </trkpt>
      <trkpt lat="62.63663866731" lon="17.964094282606">
        <ele>48</ele>
        <time>2017-12-04T18:05:27Z</time>
      </trkpt>
      <trkpt lat="62.636623496071" lon="17.964048265975">
        <ele>48</ele>
        <time>2017-12-04T18:05:28Z</time>
      </trkpt>
      <trkpt lat="62.636606061719" lon="17.964006440294">
        <ele>48</ele>
        <time>2017-12-04T18:05:29Z</time>
      </trkpt>
      <trkpt lat="62.636589046462" lon="17.963956735627">
        <ele>47.8</ele>
        <time>2017-12-04T18:05:30Z</time>
      </trkpt>
      <trkpt lat="62.636575300146" lon="17.963911389548">
        <ele>48</ele>
        <time>2017-12-04T18:05:31Z</time>
      </trkpt>
      <trkpt lat="62.636560045088" lon="17.963867384573">
        <ele>47.8</ele>
        <time>2017-12-04T18:05:32Z</time>
      </trkpt>
      <trkpt lat="62.636545209125" lon="17.963812986042">
        <ele>47.6</ele>
        <time>2017-12-04T18:05:33Z</time>
      </trkpt>
      <trkpt lat="62.636532803913" lon="17.963775770406">
        <ele>47.6</ele>
        <time>2017-12-04T18:05:34Z</time>
      </trkpt>
      <trkpt lat="62.636513357905" lon="17.963738219494">
        <ele>47.6</ele>
        <time>2017-12-04T18:05:35Z</time>
      </trkpt>
      <trkpt lat="62.636500701236" lon="17.963727406843">
        <ele>47.6</ele>
        <time>2017-12-04T18:05:36Z</time>
      </trkpt>
      <trkpt lat="62.636476812821" lon="17.963740482607">
        <ele>47.6</ele>
        <time>2017-12-04T18:05:37Z</time>
      </trkpt>
      <trkpt lat="62.636451248026" lon="17.963769819257">
        <ele>47.4</ele>
        <time>2017-12-04T18:05:38Z</time>
      </trkpt>
      <trkpt lat="62.636429958" lon="17.963802508667">
        <ele>47.4</ele>
        <time>2017-12-04T18:05:39Z</time>
      </trkpt>
      <trkpt lat="62.636411853096" lon="17.963826732358">
        <ele>47.4</ele>
        <time>2017-12-04T18:05:40Z</time>
      </trkpt>
      <trkpt lat="62.636386288301" lon="17.963861433424">
        <ele>47.4</ele>
        <time>2017-12-04T18:05:41Z</time>
      </trkpt>
      <trkpt lat="62.636370362691" lon="17.963886830581">
        <ele>47.4</ele>
        <time>2017-12-04T18:05:42Z</time>
      </trkpt>
      <trkpt lat="62.636349156484" lon="17.96391625105">
        <ele>47.6</ele>
        <time>2017-12-04T18:05:43Z</time>
      </trkpt>
      <trkpt lat="62.636330800123" lon="17.96393888218">
        <ele>47.6</ele>
        <time>2017-12-04T18:05:44Z</time>
      </trkpt>
      <trkpt lat="62.636311857029" lon="17.963960423663">
        <ele>47.4</ele>
        <time>2017-12-04T18:05:45Z</time>
      </trkpt>
      <trkpt lat="62.63629668579" lon="17.963982132784">
        <ele>47.6</ele>
        <time>2017-12-04T18:05:46Z</time>
      </trkpt>
      <trkpt lat="62.636271959185" lon="17.964012391443">
        <ele>47.6</ele>
        <time>2017-12-04T18:05:47Z</time>
      </trkpt>
      <trkpt lat="62.636249663331" lon="17.964044661758">
        <ele>47.6</ele>
        <time>2017-12-04T18:05:48Z</time>
      </trkpt>
      <trkpt lat="62.636228876219" lon="17.964072657304">
        <ele>47.6</ele>
        <time>2017-12-04T18:05:49Z</time>
      </trkpt>
      <trkpt lat="62.636208843478" lon="17.964101826316">
        <ele>47.6</ele>
        <time>2017-12-04T18:05:50Z</time>
      </trkpt>
      <trkpt lat="62.636188978375" lon="17.9641216076">
        <ele>47.8</ele>
        <time>2017-12-04T18:05:51Z</time>
      </trkpt>
      <trkpt lat="62.636169951462" lon="17.96414256235">
        <ele>47.8</ele>
        <time>2017-12-04T18:05:52Z</time>
      </trkpt>
      <trkpt lat="62.636149080531" lon="17.964169635887">
        <ele>48</ele>
        <time>2017-12-04T18:05:53Z</time>
      </trkpt>
      <trkpt lat="62.636126114125" lon="17.964197212338">
        <ele>48</ele>
        <time>2017-12-04T18:05:54Z</time>
      </trkpt>
      <trkpt lat="62.636105913746" lon="17.964221771305">
        <ele>47.8</ele>
        <time>2017-12-04T18:05:55Z</time>
      </trkpt>
      <trkpt lat="62.636083031159" lon="17.96424398334">
        <ele>48</ele>
        <time>2017-12-04T18:05:56Z</time>
      </trkpt>
      <trkpt lat="62.636060902943" lon="17.964257645837">
        <ele>48</ele>
        <time>2017-12-04T18:05:57Z</time>
      </trkpt>
      <trkpt lat="62.636036343976" lon="17.964275164008">
        <ele>47.8</ele>
        <time>2017-12-04T18:05:58Z</time>
      </trkpt>
      <trkpt lat="62.636010863" lon="17.964300812622">
        <ele>47.8</ele>
        <time>2017-12-04T18:05:59Z</time>
      </trkpt>
      <trkpt lat="62.635991752268" lon="17.964323108476">
        <ele>48</ele>
        <time>2017-12-04T18:06:00Z</time>
      </trkpt>
      <trkpt lat="62.635969456414" lon="17.964343225036">
        <ele>48</ele>
        <time>2017-12-04T18:06:01Z</time>
      </trkpt>
      <trkpt lat="62.63594716056" lon="17.964363593053">
        <ele>48.2</ele>
        <time>2017-12-04T18:06:02Z</time>
      </trkpt>
      <trkpt lat="62.635927546914" lon="17.96438312288">
        <ele>48.4</ele>
        <time>2017-12-04T18:06:03Z</time>
      </trkpt>
      <trkpt lat="62.635906675983" lon="17.964402987983">
        <ele>48.4</ele>
        <time>2017-12-04T18:06:04Z</time>
      </trkpt>
      <trkpt lat="62.635886224147" lon="17.96442084143">
        <ele>48.4</ele>
        <time>2017-12-04T18:06:05Z</time>
      </trkpt>
      <trkpt lat="62.635864934121" lon="17.964443053465">
        <ele>48.4</ele>
        <time>2017-12-04T18:06:06Z</time>
      </trkpt>
      <trkpt lat="62.635849595244" lon="17.964457889428">
        <ele>48.4</ele>
        <time>2017-12-04T18:06:07Z</time>
      </trkpt>
      <trkpt lat="62.635828724313" lon="17.964475072323">
        <ele>48.6</ele>
        <time>2017-12-04T18:06:08Z</time>
      </trkpt>
      <trkpt lat="62.635807266649" lon="17.964496194711">
        <ele>48.6</ele>
        <time>2017-12-04T18:06:09Z</time>
      </trkpt>
      <trkpt lat="62.635787233908" lon="17.964511952683">
        <ele>48.6</ele>
        <time>2017-12-04T18:06:10Z</time>
      </trkpt>
      <trkpt lat="62.635760411828" lon="17.964536763107">
        <ele>48.6</ele>
        <time>2017-12-04T18:06:11Z</time>
      </trkpt>
      <trkpt lat="62.63573593668" lon="17.964555538563">
        <ele>48.6</ele>
        <time>2017-12-04T18:06:12Z</time>
      </trkpt>
      <trkpt lat="62.635708360229" lon="17.964576493313">
        <ele>48.8</ele>
        <time>2017-12-04T18:06:13Z</time>
      </trkpt>
      <trkpt lat="62.635692602257" lon="17.964591161638">
        <ele>49</ele>
        <time>2017-12-04T18:06:14Z</time>
      </trkpt>
      <trkpt lat="62.635675670819" lon="17.964608093076">
        <ele>49</ele>
        <time>2017-12-04T18:06:15Z</time>
      </trkpt>
      <trkpt lat="62.635657230639" lon="17.964621587935">
        <ele>49</ele>
        <time>2017-12-04T18:06:16Z</time>
      </trkpt>
      <trkpt lat="62.635630492378" lon="17.96464212359">
        <ele>49.2</ele>
        <time>2017-12-04T18:06:17Z</time>
      </trkpt>
      <trkpt lat="62.635603670298" lon="17.964659977037">
        <ele>49.2</ele>
        <time>2017-12-04T18:06:18Z</time>
      </trkpt>
      <trkpt lat="62.635579949521" lon="17.964675232095">
        <ele>49.2</ele>
        <time>2017-12-04T18:06:19Z</time>
      </trkpt>
      <trkpt lat="62.635553965631" lon="17.964691241524">
        <ele>49.4</ele>
        <time>2017-12-04T18:06:20Z</time>
      </trkpt>
      <trkpt lat="62.635522533506" lon="17.964709514066">
        <ele>49.2</ele>
        <time>2017-12-04T18:06:21Z</time>
      </trkpt>
      <trkpt lat="62.635501830213" lon="17.964727283694">
        <ele>49.4</ele>
        <time>2017-12-04T18:06:22Z</time>
      </trkpt>
      <trkpt lat="62.635475762504" lon="17.964746394426">
        <ele>49.4</ele>
        <time>2017-12-04T18:06:23Z</time>
      </trkpt>
      <trkpt lat="62.63545011389" lon="17.964759386371">
        <ele>49.4</ele>
        <time>2017-12-04T18:06:24Z</time>
      </trkpt>
      <trkpt lat="62.635425890199" lon="17.96477707218">
        <ele>49.4</ele>
        <time>2017-12-04T18:06:25Z</time>
      </trkpt>
      <trkpt lat="62.635398229929" lon="17.964790986134">
        <ele>49.6</ele>
        <time>2017-12-04T18:06:26Z</time>
      </trkpt>
      <trkpt lat="62.635374341514" lon="17.964803978079">
        <ele>49.6</ele>
        <time>2017-12-04T18:06:27Z</time>
      </trkpt>
      <trkpt lat="62.635348357624" lon="17.964815209825">
        <ele>49.6</ele>
        <time>2017-12-04T18:06:28Z</time>
      </trkpt>
      <trkpt lat="62.63531935625" lon="17.96482484901">
        <ele>49.6</ele>
        <time>2017-12-04T18:06:29Z</time>
      </trkpt>
      <trkpt lat="62.635297647129" lon="17.964830464883">
        <ele>49.8</ele>
        <time>2017-12-04T18:06:30Z</time>
      </trkpt>
      <trkpt lat="62.635274345447" lon="17.964840606982">
        <ele>49.8</ele>
        <time>2017-12-04T18:06:31Z</time>
      </trkpt>
      <trkpt lat="62.635248361557" lon="17.964847647778">
        <ele>49.8</ele>
        <time>2017-12-04T18:06:32Z</time>
      </trkpt>
      <trkpt lat="62.635222880581" lon="17.964856281135">
        <ele>50</ele>
        <time>2017-12-04T18:06:33Z</time>
      </trkpt>
      <trkpt lat="62.635195890863" lon="17.964859466257">
        <ele>49.8</ele>
        <time>2017-12-04T18:06:34Z</time>
      </trkpt>
      <trkpt lat="62.635170242249" lon="17.964866926148">
        <ele>50</ele>
        <time>2017-12-04T18:06:35Z</time>
      </trkpt>
      <trkpt lat="62.635145264187" lon="17.964871871469">
        <ele>50</ele>
        <time>2017-12-04T18:06:36Z</time>
      </trkpt>
      <trkpt lat="62.635120286125" lon="17.964877571161">
        <ele>50</ele>
        <time>2017-12-04T18:06:37Z</time>
      </trkpt>
      <trkpt lat="62.635095224244" lon="17.964884109043">
        <ele>50.2</ele>
        <time>2017-12-04T18:06:38Z</time>
      </trkpt>
      <trkpt lat="62.635064965585" lon="17.964887545622">
        <ele>50.2</ele>
        <time>2017-12-04T18:06:39Z</time>
      </trkpt>
      <trkpt lat="62.635041328627" lon="17.96489022783">
        <ele>50.4</ele>
        <time>2017-12-04T18:06:40Z</time>
      </trkpt>
      <trkpt lat="62.635014087452" lon="17.964894921694">
        <ele>50.4</ele>
        <time>2017-12-04T18:06:41Z</time>
      </trkpt>
      <trkpt lat="62.634988690295" lon="17.964896262798">
        <ele>50.4</ele>
        <time>2017-12-04T18:06:42Z</time>
      </trkpt>
      <trkpt lat="62.634963293138" lon="17.964905734345">
        <ele>50.4</ele>
        <time>2017-12-04T18:06:43Z</time>
      </trkpt>
      <trkpt lat="62.634937895981" lon="17.964909673838">
        <ele>50.6</ele>
        <time>2017-12-04T18:06:44Z</time>
      </trkpt>
      <trkpt lat="62.634909984254" lon="17.964913445693">
        <ele>50.6</ele>
        <time>2017-12-04T18:06:45Z</time>
      </trkpt>
      <trkpt lat="62.634888107495" lon="17.964917552824">
        <ele>50.6</ele>
        <time>2017-12-04T18:06:46Z</time>
      </trkpt>
      <trkpt lat="62.634860614863" lon="17.964915289711">
        <ele>50.6</ele>
        <time>2017-12-04T18:06:47Z</time>
      </trkpt>
      <trkpt lat="62.634833457507" lon="17.964917720462">
        <ele>50.6</ele>
        <time>2017-12-04T18:06:48Z</time>
      </trkpt>
      <trkpt lat="62.634804875228" lon="17.964925515629">
        <ele>50.6</ele>
        <time>2017-12-04T18:06:49Z</time>
      </trkpt>
      <trkpt lat="62.634779142795" lon="17.964926605276">
        <ele>50.6</ele>
        <time>2017-12-04T18:06:50Z</time>
      </trkpt>
      <trkpt lat="62.634753829457" lon="17.964925012715">
        <ele>50.6</ele>
        <time>2017-12-04T18:06:51Z</time>
      </trkpt>
      <trkpt lat="62.634728767576" lon="17.964930125674">
        <ele>50.6</ele>
        <time>2017-12-04T18:06:52Z</time>
      </trkpt>
      <trkpt lat="62.634696497261" lon="17.964933729891">
        <ele>50.8</ele>
        <time>2017-12-04T18:06:53Z</time>
      </trkpt>
      <trkpt lat="62.634669423724" lon="17.964936579737">
        <ele>50.6</ele>
        <time>2017-12-04T18:06:54Z</time>
      </trkpt>
      <trkpt lat="62.63464293692" lon="17.96493968104">
        <ele>50.8</ele>
        <time>2017-12-04T18:06:55Z</time>
      </trkpt>
      <trkpt lat="62.63461192389" lon="17.964939429583">
        <ele>50.8</ele>
        <time>2017-12-04T18:06:56Z</time>
      </trkpt>
      <trkpt lat="62.634589460398" lon="17.964945296913">
        <ele>50.8</ele>
        <time>2017-12-04T18:06:57Z</time>
      </trkpt>
      <trkpt lat="62.634562973594" lon="17.964941608877">
        <ele>51</ele>
        <time>2017-12-04T18:06:58Z</time>
      </trkpt>
      <trkpt lat="62.634536235333" lon="17.964938256117">
        <ele>51</ele>
        <time>2017-12-04T18:06:59Z</time>
      </trkpt>
      <trkpt lat="62.634510586719" lon="17.964944207266">
        <ele>51</ele>
        <time>2017-12-04T18:07:00Z</time>
      </trkpt>
      <trkpt lat="62.634482088259" lon="17.964945380732">
        <ele>51</ele>
        <time>2017-12-04T18:07:01Z</time>
      </trkpt>
      <trkpt lat="62.63445853512" lon="17.964950074596">
        <ele>51</ele>
        <time>2017-12-04T18:07:02Z</time>
      </trkpt>
      <trkpt lat="62.634431880678" lon="17.964957115392">
        <ele>51</ele>
        <time>2017-12-04T18:07:03Z</time>
      </trkpt>
      <trkpt lat="62.634402544028" lon="17.964957702125">
        <ele>51</ele>
        <time>2017-12-04T18:07:04Z</time>
      </trkpt>
      <trkpt lat="62.634375302853" lon="17.964960132876">
        <ele>51.2</ele>
        <time>2017-12-04T18:07:05Z</time>
      </trkpt>
      <trkpt lat="62.634346469117" lon="17.964956696297">
        <ele>51.2</ele>
        <time>2017-12-04T18:07:06Z</time>
      </trkpt>
      <trkpt lat="62.634322580702" lon="17.964950074596">
        <ele>51.2</ele>
        <time>2017-12-04T18:07:07Z</time>
      </trkpt>
      <trkpt lat="62.63429592626" lon="17.964952002433">
        <ele>51.4</ele>
        <time>2017-12-04T18:07:08Z</time>
      </trkpt>
      <trkpt lat="62.63426994237" lon="17.964950158415">
        <ele>51.4</ele>
        <time>2017-12-04T18:07:09Z</time>
      </trkpt>
      <trkpt lat="62.63425150219" lon="17.964950745148">
        <ele>51.4</ele>
        <time>2017-12-04T18:07:10Z</time>
      </trkpt>
      <trkpt lat="62.634226859404" lon="17.964951499519">
        <ele>51.4</ele>
        <time>2017-12-04T18:07:11Z</time>
      </trkpt>
      <trkpt lat="62.634199031496" lon="17.964946973293">
        <ele>51.4</ele>
        <time>2017-12-04T18:07:12Z</time>
      </trkpt>
      <trkpt lat="62.634173969615" lon="17.96494722475">
        <ele>51.4</ele>
        <time>2017-12-04T18:07:13Z</time>
      </trkpt>
      <trkpt lat="62.634147231354" lon="17.96494471018">
        <ele>51.6</ele>
        <time>2017-12-04T18:07:14Z</time>
      </trkpt>
      <trkpt lat="62.634120828369" lon="17.964947392388">
        <ele>51.8</ele>
        <time>2017-12-04T18:07:15Z</time>
      </trkpt>
      <trkpt lat="62.634097861963" lon="17.96494638656">
        <ele>51.8</ele>
        <time>2017-12-04T18:07:16Z</time>
      </trkpt>
      <trkpt lat="62.634070201693" lon="17.964948314397">
        <ele>51.8</ele>
        <time>2017-12-04T18:07:17Z</time>
      </trkpt>
      <trkpt lat="62.634041870871" lon="17.964953175899">
        <ele>52</ele>
        <time>2017-12-04T18:07:18Z</time>
      </trkpt>
      <trkpt lat="62.63401513261" lon="17.964953511175">
        <ele>52</ele>
        <time>2017-12-04T18:07:19Z</time>
      </trkpt>
      <trkpt lat="62.633986969426" lon="17.964950074596">
        <ele>52</ele>
        <time>2017-12-04T18:07:20Z</time>
      </trkpt>
      <trkpt lat="62.633961991364" lon="17.964950661329">
        <ele>52</ele>
        <time>2017-12-04T18:07:21Z</time>
      </trkpt>
      <trkpt lat="62.633937851492" lon="17.964953762632">
        <ele>52.2</ele>
        <time>2017-12-04T18:07:22Z</time>
      </trkpt>
      <trkpt lat="62.633909017756" lon="17.964966754577">
        <ele>52.2</ele>
        <time>2017-12-04T18:07:23Z</time>
      </trkpt>
      <trkpt lat="62.633886386626" lon="17.96497572321">
        <ele>52.2</ele>
        <time>2017-12-04T18:07:24Z</time>
      </trkpt>
      <trkpt lat="62.633863504039" lon="17.96498913425">
        <ele>52.2</ele>
        <time>2017-12-04T18:07:25Z</time>
      </trkpt>
      <trkpt lat="62.633846404963" lon="17.965010424276">
        <ele>52.2</ele>
        <time>2017-12-04T18:07:26Z</time>
      </trkpt>
      <trkpt lat="62.633832574828" lon="17.965047388455">
        <ele>52.4</ele>
        <time>2017-12-04T18:07:27Z</time>
      </trkpt>
      <trkpt lat="62.633825031118" lon="17.965094243276">
        <ele>52.4</ele>
        <time>2017-12-04T18:07:28Z</time>
      </trkpt>
      <trkpt lat="62.633821678358" lon="17.965141433373">
        <ele>52.6</ele>
        <time>2017-12-04T18:07:29Z</time>
      </trkpt>
      <trkpt lat="62.633825114937" lon="17.96519784356">
        <ele>52.8</ele>
        <time>2017-12-04T18:07:30Z</time>
      </trkpt>
      <trkpt lat="62.633834502665" lon="17.965241010345">
        <ele>53</ele>
        <time>2017-12-04T18:07:31Z</time>
      </trkpt>
      <trkpt lat="62.633842046375" lon="17.965286104967">
        <ele>53.2</ele>
        <time>2017-12-04T18:07:32Z</time>
      </trkpt>
      <trkpt lat="62.63385000918" lon="17.965338408023">
        <ele>53.4</ele>
        <time>2017-12-04T18:07:33Z</time>
      </trkpt>
      <trkpt lat="62.63385252375" lon="17.965382832093">
        <ele>53.6</ele>
        <time>2017-12-04T18:07:34Z</time>
      </trkpt>
      <trkpt lat="62.633854283949" lon="17.965440164289">
        <ele>53.8</ele>
        <time>2017-12-04T18:07:35Z</time>
      </trkpt>
      <trkpt lat="62.633857133795" lon="17.965481738513">
        <ele>54</ele>
        <time>2017-12-04T18:07:36Z</time>
      </trkpt>
      <trkpt lat="62.633861827659" lon="17.965533371017">
        <ele>54.2</ele>
        <time>2017-12-04T18:07:37Z</time>
      </trkpt>
      <trkpt lat="62.633863336401" lon="17.965589865023">
        <ele>54.4</ele>
        <time>2017-12-04T18:07:38Z</time>
      </trkpt>
      <trkpt lat="62.633865683333" lon="17.965634289093">
        <ele>54.6</ele>
        <time>2017-12-04T18:07:39Z</time>
      </trkpt>
      <trkpt lat="62.633866018609" lon="17.965681311552">
        <ele>54.8</ele>
        <time>2017-12-04T18:07:40Z</time>
      </trkpt>
      <trkpt lat="62.633867359713" lon="17.965732692599">
        <ele>54.8</ele>
        <time>2017-12-04T18:07:41Z</time>
      </trkpt>
      <trkpt lat="62.633868952274" lon="17.965776278479">
        <ele>55</ele>
        <time>2017-12-04T18:07:42Z</time>
      </trkpt>
      <trkpt lat="62.633868030265" lon="17.965832269571">
        <ele>55</ele>
        <time>2017-12-04T18:07:43Z</time>
      </trkpt>
      <trkpt lat="62.633869119912" lon="17.965881555143">
        <ele>55.2</ele>
        <time>2017-12-04T18:07:44Z</time>
      </trkpt>
      <trkpt lat="62.633868868455" lon="17.965934361113">
        <ele>55.4</ele>
        <time>2017-12-04T18:07:45Z</time>
      </trkpt>
      <trkpt lat="62.633865683333" lon="17.965980880658">
        <ele>55.6</ele>
        <time>2017-12-04T18:07:46Z</time>
      </trkpt>
      <trkpt lat="62.63385755289" lon="17.966028070755">
        <ele>55.8</ele>
        <time>2017-12-04T18:07:47Z</time>
      </trkpt>
      <trkpt lat="62.633839364167" lon="17.966074171205">
        <ele>56</ele>
        <time>2017-12-04T18:07:48Z</time>
      </trkpt>
      <trkpt lat="62.633826120765" lon="17.966113398497">
        <ele>56.2</ele>
        <time>2017-12-04T18:07:49Z</time>
      </trkpt>
      <trkpt lat="62.633810949526" lon="17.966153547798">
        <ele>56.4</ele>
        <time>2017-12-04T18:07:50Z</time>
      </trkpt>
      <trkpt lat="62.633794604821" lon="17.966186321027">
        <ele>56.6</ele>
        <time>2017-12-04T18:07:51Z</time>
      </trkpt>
      <trkpt lat="62.633778679211" lon="17.966216747324">
        <ele>56.6</ele>
        <time>2017-12-04T18:07:52Z</time>
      </trkpt>
      <trkpt lat="62.633758981746" lon="17.966248682363">
        <ele>56.8</ele>
        <time>2017-12-04T18:07:53Z</time>
      </trkpt>
      <trkpt lat="62.63374020629" lon="17.966269218018">
        <ele>57</ele>
        <time>2017-12-04T18:07:54Z</time>
      </trkpt>
      <trkpt lat="62.633720508825" lon="17.966285478904">
        <ele>57.2</ele>
        <time>2017-12-04T18:07:55Z</time>
      </trkpt>
      <trkpt lat="62.633695866039" lon="17.96629671065">
        <ele>57.4</ele>
        <time>2017-12-04T18:07:56Z</time>
      </trkpt>
      <trkpt lat="62.633677090583" lon="17.966302158885">
        <ele>57.4</ele>
        <time>2017-12-04T18:07:57Z</time>
      </trkpt>
      <trkpt lat="62.633655130005" lon="17.966315486106">
        <ele>57.4</ele>
        <time>2017-12-04T18:07:58Z</time>
      </trkpt>
      <trkpt lat="62.633628056468" lon="17.966324706196">
        <ele>57.6</ele>
        <time>2017-12-04T18:07:59Z</time>
      </trkpt>
      <trkpt lat="62.633602240216" lon="17.966330489707">
        <ele>57.6</ele>
        <time>2017-12-04T18:08:00Z</time>
      </trkpt>
      <trkpt lat="62.633579692905" lon="17.966337027589">
        <ele>57.6</ele>
        <time>2017-12-04T18:08:01Z</time>
      </trkpt>
      <trkpt lat="62.633558486698" lon="17.966337446684">
        <ele>57.6</ele>
        <time>2017-12-04T18:08:02Z</time>
      </trkpt>
      <trkpt lat="62.633533927731" lon="17.966337362865">
        <ele>57.6</ele>
        <time>2017-12-04T18:08:03Z</time>
      </trkpt>
      <trkpt lat="62.633511212782" lon="17.966340045073">
        <ele>57.4</ele>
        <time>2017-12-04T18:08:04Z</time>
      </trkpt>
      <trkpt lat="62.633483803969" lon="17.96633778196">
        <ele>57.4</ele>
        <time>2017-12-04T18:08:05Z</time>
      </trkpt>
      <trkpt lat="62.633457820079" lon="17.966338284874">
        <ele>57.4</ele>
        <time>2017-12-04T18:08:06Z</time>
      </trkpt>
      <trkpt lat="62.633435021311" lon="17.966344319842">
        <ele>57.4</ele>
        <time>2017-12-04T18:08:07Z</time>
      </trkpt>
      <trkpt lat="62.633406690489" lon="17.966348007878">
        <ele>57.4</ele>
        <time>2017-12-04T18:08:08Z</time>
      </trkpt>
      <trkpt lat="62.633382382979" lon="17.96634951662">
        <ele>57.4</ele>
        <time>2017-12-04T18:08:09Z</time>
      </trkpt>
      <trkpt lat="62.633362266419" lon="17.966345660946">
        <ele>57.4</ele>
        <time>2017-12-04T18:08:10Z</time>
      </trkpt>
      <trkpt lat="62.633333516502" lon="17.966344738937">
        <ele>57.4</ele>
        <time>2017-12-04T18:08:11Z</time>
      </trkpt>
      <trkpt lat="62.633310466277" lon="17.966344990394">
        <ele>57.4</ele>
        <time>2017-12-04T18:08:12Z</time>
      </trkpt>
      <trkpt lat="62.63328339274" lon="17.96634700205">
        <ele>57.4</ele>
        <time>2017-12-04T18:08:13Z</time>
      </trkpt>
      <trkpt lat="62.633257492669" lon="17.966347085869">
        <ele>57.4</ele>
        <time>2017-12-04T18:08:14Z</time>
      </trkpt>
      <trkpt lat="62.633232598426" lon="17.966351695914">
        <ele>57.2</ele>
        <time>2017-12-04T18:08:15Z</time>
      </trkpt>
      <trkpt lat="62.633205357251" lon="17.966356138321">
        <ele>57.4</ele>
        <time>2017-12-04T18:08:16Z</time>
      </trkpt>
      <trkpt lat="62.633177696981" lon="17.966358066158">
        <ele>57.2</ele>
        <time>2017-12-04T18:08:17Z</time>
      </trkpt>
      <trkpt lat="62.633149869073" lon="17.966361838013">
        <ele>57</ele>
        <time>2017-12-04T18:08:18Z</time>
      </trkpt>
      <trkpt lat="62.633122711717" lon="17.966362676203">
        <ele>57</ele>
        <time>2017-12-04T18:08:19Z</time>
      </trkpt>
      <trkpt lat="62.633095973456" lon="17.966360245452">
        <ele>57</ele>
        <time>2017-12-04T18:08:20Z</time>
      </trkpt>
      <trkpt lat="62.633075940715" lon="17.966352198828">
        <ele>56.8</ele>
        <time>2017-12-04T18:08:21Z</time>
      </trkpt>
      <trkpt lat="62.633056494707" lon="17.966335854123">
        <ele>56.8</ele>
        <time>2017-12-04T18:08:22Z</time>
      </trkpt>
      <trkpt lat="62.633027660971" lon="17.966331830811">
        <ele>56.8</ele>
        <time>2017-12-04T18:08:23Z</time>
      </trkpt>
      <trkpt lat="62.633001844719" lon="17.966338284874">
        <ele>56.8</ele>
        <time>2017-12-04T18:08:24Z</time>
      </trkpt>
      <trkpt lat="62.632974184449" lon="17.966338703969">
        <ele>56.8</ele>
        <time>2017-12-04T18:08:25Z</time>
      </trkpt>
      <trkpt lat="62.632945685989" lon="17.966344738937">
        <ele>56.6</ele>
        <time>2017-12-04T18:08:26Z</time>
      </trkpt>
      <trkpt lat="62.63292129466" lon="17.966347756421">
        <ele>56.6</ele>
        <time>2017-12-04T18:08:27Z</time>
      </trkpt>
      <trkpt lat="62.63289531077" lon="17.966343900747">
        <ele>56.4</ele>
        <time>2017-12-04T18:08:28Z</time>
      </trkpt>
      <trkpt lat="62.632867985776" lon="17.966345158032">
        <ele>56.2</ele>
        <time>2017-12-04T18:08:29Z</time>
      </trkpt>
      <trkpt lat="62.63283999023" lon="17.966349265163">
        <ele>56.2</ele>
        <time>2017-12-04T18:08:30Z</time>
      </trkpt>
      <trkpt lat="62.632813335788" lon="17.966347085869">
        <ele>56.2</ele>
        <time>2017-12-04T18:08:31Z</time>
      </trkpt>
      <trkpt lat="62.632788441545" lon="17.966350857724">
        <ele>56</ele>
        <time>2017-12-04T18:08:32Z</time>
      </trkpt>
      <trkpt lat="62.63276203856" lon="17.96634197291">
        <ele>56</ele>
        <time>2017-12-04T18:08:33Z</time>
      </trkpt>
      <trkpt lat="62.632734294471" lon="17.966343481652">
        <ele>56</ele>
        <time>2017-12-04T18:08:34Z</time>
      </trkpt>
      <trkpt lat="62.63270504164" lon="17.966348846068">
        <ele>55.8</ele>
        <time>2017-12-04T18:08:35Z</time>
      </trkpt>
      <trkpt lat="62.632675788809" lon="17.966345744765">
        <ele>55.8</ele>
        <time>2017-12-04T18:08:36Z</time>
      </trkpt>
      <trkpt lat="62.632650224014" lon="17.966342643462">
        <ele>55.8</ele>
        <time>2017-12-04T18:08:37Z</time>
      </trkpt>
      <trkpt lat="62.632620635907" lon="17.966339290702">
        <ele>55.6</ele>
        <time>2017-12-04T18:08:38Z</time>
      </trkpt>
      <trkpt lat="62.632593227094" lon="17.966325125291">
        <ele>55.6</ele>
        <time>2017-12-04T18:08:39Z</time>
      </trkpt>
      <trkpt lat="62.632568919584" lon="17.966324873834">
        <ele>55.4</ele>
        <time>2017-12-04T18:08:40Z</time>
      </trkpt>
      <trkpt lat="62.632538074192" lon="17.96632185635">
        <ele>55.4</ele>
        <time>2017-12-04T18:08:41Z</time>
      </trkpt>
      <trkpt lat="62.632509911008" lon="17.96631515083">
        <ele>55.4</ele>
        <time>2017-12-04T18:08:42Z</time>
      </trkpt>
      <trkpt lat="62.632480658177" lon="17.966313055355">
        <ele>55.2</ele>
        <time>2017-12-04T18:08:43Z</time>
      </trkpt>
      <trkpt lat="62.63245274645" lon="17.966302745618">
        <ele>55.2</ele>
        <time>2017-12-04T18:08:44Z</time>
      </trkpt>
      <trkpt lat="62.632423996533" lon="17.966294531356">
        <ele>55.2</ele>
        <time>2017-12-04T18:08:45Z</time>
      </trkpt>
      <trkpt lat="62.632397845005" lon="17.966291430053">
        <ele>55</ele>
        <time>2017-12-04T18:08:46Z</time>
      </trkpt>
      <trkpt lat="62.632367502527" lon="17.966285478904">
        <ele>55</ele>
        <time>2017-12-04T18:08:47Z</time>
      </trkpt>
      <trkpt lat="62.632336070402" lon="17.966285562723">
        <ele>54.8</ele>
        <time>2017-12-04T18:08:48Z</time>
      </trkpt>
      <trkpt lat="62.632311176159" lon="17.966290172768">
        <ele>54.8</ele>
        <time>2017-12-04T18:08:49Z</time>
      </trkpt>
      <trkpt lat="62.632283348251" lon="17.966303164713">
        <ele>54.8</ele>
        <time>2017-12-04T18:08:50Z</time>
      </trkpt>
      <trkpt lat="62.632262058225" lon="17.966336021761">
        <ele>54.6</ele>
        <time>2017-12-04T18:08:51Z</time>
      </trkpt>
      <trkpt lat="62.632244791511" lon="17.966378182718">
        <ele>54.4</ele>
        <time>2017-12-04T18:08:52Z</time>
      </trkpt>
      <trkpt lat="62.632228195349" lon="17.966434509086">
        <ele>54.4</ele>
        <time>2017-12-04T18:08:53Z</time>
      </trkpt>
      <trkpt lat="62.632220316363" lon="17.966482705011">
        <ele>54.4</ele>
        <time>2017-12-04T18:08:54Z</time>
      </trkpt>
      <trkpt lat="62.63221637687" lon="17.966532912592">
        <ele>54.2</ele>
        <time>2017-12-04T18:08:55Z</time>
      </trkpt>
      <trkpt lat="62.632212688834" lon="17.966585215648">
        <ele>54.2</ele>
        <time>2017-12-04T18:08:56Z</time>
      </trkpt>
      <trkpt lat="62.632209755169" lon="17.966629304442">
        <ele>54.4</ele>
        <time>2017-12-04T18:08:57Z</time>
      </trkpt>
      <trkpt lat="62.632203049649" lon="17.966683367697">
        <ele>54.4</ele>
        <time>2017-12-04T18:08:58Z</time>
      </trkpt>
      <trkpt lat="62.632198439604" lon="17.966737095676">
        <ele>54.6</ele>
        <time>2017-12-04T18:08:59Z</time>
      </trkpt>
      <trkpt lat="62.632193159007" lon="17.966785123963">
        <ele>54.8</ele>
        <time>2017-12-04T18:09:00Z</time>
      </trkpt>
      <trkpt lat="62.632185782935" lon="17.966838349028">
        <ele>55</ele>
        <time>2017-12-04T18:09:01Z</time>
      </trkpt>
      <trkpt lat="62.63218117289" lon="17.966881934908">
        <ele>55.2</ele>
        <time>2017-12-04T18:09:02Z</time>
      </trkpt>
      <trkpt lat="62.632173964456" lon="17.966935159973">
        <ele>55.4</ele>
        <time>2017-12-04T18:09:03Z</time>
      </trkpt>
      <trkpt lat="62.632169857325" lon="17.966980925147">
        <ele>55.6</ele>
        <time>2017-12-04T18:09:04Z</time>
      </trkpt>
      <trkpt lat="62.632162984167" lon="17.967031468004">
        <ele>55.8</ele>
        <time>2017-12-04T18:09:05Z</time>
      </trkpt>
      <trkpt lat="62.632154266991" lon="17.967079328653">
        <ele>55.8</ele>
        <time>2017-12-04T18:09:06Z</time>
      </trkpt>
      <trkpt lat="62.632147561471" lon="17.967121824886">
        <ele>56</ele>
        <time>2017-12-04T18:09:07Z</time>
      </trkpt>
      <trkpt lat="62.632137251734" lon="17.967172367743">
        <ele>56.2</ele>
        <time>2017-12-04T18:09:08Z</time>
      </trkpt>
      <trkpt lat="62.632127696368" lon="17.967214193424">
        <ele>56.4</ele>
        <time>2017-12-04T18:09:09Z</time>
      </trkpt>
      <trkpt lat="62.632119482106" lon="17.967251241422">
        <ele>56.4</ele>
        <time>2017-12-04T18:09:10Z</time>
      </trkpt>
      <trkpt lat="62.632105065238" lon="17.967304131211">
        <ele>56.8</ele>
        <time>2017-12-04T18:09:11Z</time>
      </trkpt>
      <trkpt lat="62.632097689166" lon="17.967344951064">
        <ele>57</ele>
        <time>2017-12-04T18:09:12Z</time>
      </trkpt>
      <trkpt lat="62.632084110488" lon="17.967393733722">
        <ele>57.2</ele>
        <time>2017-12-04T18:09:13Z</time>
      </trkpt>
      <trkpt lat="62.632072459647" lon="17.967433463928">
        <ele>57.4</ele>
        <time>2017-12-04T18:09:14Z</time>
      </trkpt>
      <trkpt lat="62.632061646996" lon="17.967473613229">
        <ele>57.8</ele>
        <time>2017-12-04T18:09:15Z</time>
      </trkpt>
      <trkpt lat="62.632047397766" lon="17.967512002331">
        <ele>58</ele>
        <time>2017-12-04T18:09:16Z</time>
      </trkpt>
      <trkpt lat="62.632038345314" lon="17.967542680085">
        <ele>58.2</ele>
        <time>2017-12-04T18:09:17Z</time>
      </trkpt>
      <trkpt lat="62.632020659505" lon="17.967594731684">
        <ele>58.4</ele>
        <time>2017-12-04T18:09:18Z</time>
      </trkpt>
      <trkpt lat="62.632004733895" lon="17.967635383899">
        <ele>58.6</ele>
        <time>2017-12-04T18:09:19Z</time>
      </trkpt>
      <trkpt lat="62.631993837425" lon="17.967671761345">
        <ele>58.8</ele>
        <time>2017-12-04T18:09:20Z</time>
      </trkpt>
      <trkpt lat="62.631982270403" lon="17.96771325175">
        <ele>59</ele>
        <time>2017-12-04T18:09:21Z</time>
      </trkpt>
      <trkpt lat="62.631971290114" lon="17.967749042463">
        <ele>59.2</ele>
        <time>2017-12-04T18:09:22Z</time>
      </trkpt>
      <trkpt lat="62.631958046712" lon="17.967789191764">
        <ele>59.2</ele>
        <time>2017-12-04T18:09:23Z</time>
      </trkpt>
      <trkpt lat="62.6319456415" lon="17.967828502875">
        <ele>59.4</ele>
        <time>2017-12-04T18:09:24Z</time>
      </trkpt>
      <trkpt lat="62.631936169953" lon="17.967867143434">
        <ele>59.6</ele>
        <time>2017-12-04T18:09:25Z</time>
      </trkpt>
      <trkpt lat="62.631922758913" lon="17.967907292735">
        <ele>59.8</ele>
        <time>2017-12-04T18:09:26Z</time>
      </trkpt>
      <trkpt lat="62.631909766968" lon="17.967953141728">
        <ele>59.8</ele>
        <time>2017-12-04T18:09:27Z</time>
      </trkpt>
      <trkpt lat="62.63189702648" lon="17.967993626305">
        <ele>59.8</ele>
        <time>2017-12-04T18:09:28Z</time>
      </trkpt>
      <trkpt lat="62.631882274336" lon="17.9680359549">
        <ele>60</ele>
        <time>2017-12-04T18:09:29Z</time>
      </trkpt>
      <trkpt lat="62.631869282391" lon="17.968076020382">
        <ele>60.2</ele>
        <time>2017-12-04T18:09:30Z</time>
      </trkpt>
      <trkpt lat="62.631858385921" lon="17.968114158027">
        <ele>60.4</ele>
        <time>2017-12-04T18:09:31Z</time>
      </trkpt>
      <trkpt lat="62.631843130863" lon="17.9681533015">
        <ele>60.6</ele>
        <time>2017-12-04T18:09:32Z</time>
      </trkpt>
      <trkpt lat="62.631831731479" lon="17.968193618439">
        <ele>60.8</ele>
        <time>2017-12-04T18:09:33Z</time>
      </trkpt>
      <trkpt lat="62.631817566068" lon="17.968227313677">
        <ele>61</ele>
        <time>2017-12-04T18:09:34Z</time>
      </trkpt>
      <trkpt lat="62.631802227191" lon="17.968267127702">
        <ele>61.4</ele>
        <time>2017-12-04T18:09:35Z</time>
      </trkpt>
      <trkpt lat="62.631790073436" lon="17.968300403845">
        <ele>61.6</ele>
        <time>2017-12-04T18:09:36Z</time>
      </trkpt>
      <trkpt lat="62.631775656568" lon="17.968343067716">
        <ele>61.8</ele>
        <time>2017-12-04T18:09:37Z</time>
      </trkpt>
      <trkpt lat="62.631761826433" lon="17.96838380375">
        <ele>62</ele>
        <time>2017-12-04T18:09:38Z</time>
      </trkpt>
      <trkpt lat="62.631747241927" lon="17.968422444309">
        <ele>62.4</ele>
        <time>2017-12-04T18:09:39Z</time>
      </trkpt>
      <trkpt lat="62.631735171991" lon="17.968462258334">
        <ele>62.4</ele>
        <time>2017-12-04T18:09:40Z</time>
      </trkpt>
      <trkpt lat="62.631724778435" lon="17.968507269137">
        <ele>62.6</ele>
        <time>2017-12-04T18:09:41Z</time>
      </trkpt>
      <trkpt lat="62.631715474526" lon="17.96854892718">
        <ele>63</ele>
        <time>2017-12-04T18:09:42Z</time>
      </trkpt>
      <trkpt lat="62.631707176445" lon="17.968593435069">
        <ele>63.2</ele>
        <time>2017-12-04T18:09:43Z</time>
      </trkpt>
      <trkpt lat="62.631700219468" lon="17.968632997637">
        <ele>63.2</ele>
        <time>2017-12-04T18:09:44Z</time>
      </trkpt>
      <trkpt lat="62.631692843396" lon="17.96868219939">
        <ele>63.4</ele>
        <time>2017-12-04T18:09:45Z</time>
      </trkpt>
      <trkpt lat="62.631691586111" lon="17.968725114718">
        <ele>63.6</ele>
        <time>2017-12-04T18:09:46Z</time>
      </trkpt>
      <trkpt lat="62.631690412645" lon="17.968772975367">
        <ele>63.6</ele>
        <time>2017-12-04T18:09:47Z</time>
      </trkpt>
      <trkpt lat="62.631690161188" lon="17.968826954803">
        <ele>63.8</ele>
        <time>2017-12-04T18:09:48Z</time>
      </trkpt>
      <trkpt lat="62.631693849224" lon="17.9688741449">
        <ele>64</ele>
        <time>2017-12-04T18:09:49Z</time>
      </trkpt>
      <trkpt lat="62.631698710726" lon="17.968928375793">
        <ele>64.2</ele>
        <time>2017-12-04T18:09:50Z</time>
      </trkpt>
      <trkpt lat="62.63170424278" lon="17.96897891865">
        <ele>64.4</ele>
        <time>2017-12-04T18:09:51Z</time>
      </trkpt>
      <trkpt lat="62.631710780662" lon="17.969016301924">
        <ele>64.4</ele>
        <time>2017-12-04T18:09:52Z</time>
      </trkpt>
      <trkpt lat="62.631718156734" lon="17.969070868093">
        <ele>64.8</ele>
        <time>2017-12-04T18:09:53Z</time>
      </trkpt>
      <trkpt lat="62.631724862254" lon="17.969110179204">
        <ele>65</ele>
        <time>2017-12-04T18:09:54Z</time>
      </trkpt>
      <trkpt lat="62.63173274124" lon="17.969150244686">
        <ele>65.2</ele>
        <time>2017-12-04T18:09:55Z</time>
      </trkpt>
      <trkpt lat="62.63174112314" lon="17.969202799199">
        <ele>65.4</ele>
        <time>2017-12-04T18:09:56Z</time>
      </trkpt>
      <trkpt lat="62.631753360714" lon="17.969240685387">
        <ele>65.8</ele>
        <time>2017-12-04T18:09:57Z</time>
      </trkpt>
      <trkpt lat="62.631758222216" lon="17.969271279322">
        <ele>65.8</ele>
        <time>2017-12-04T18:09:58Z</time>
      </trkpt>
      <trkpt lat="62.631772219989" lon="17.969333640658">
        <ele>66.2</ele>
        <time>2017-12-04T18:09:59Z</time>
      </trkpt>
      <trkpt lat="62.631786050124" lon="17.96936783881">
        <ele>66.4</ele>
        <time>2017-12-04T18:10:00Z</time>
      </trkpt>
      <trkpt lat="62.631800299354" lon="17.969404970627">
        <ele>66.4</ele>
        <time>2017-12-04T18:10:01Z</time>
      </trkpt>
      <trkpt lat="62.631815386774" lon="17.969433636725">
        <ele>66.6</ele>
        <time>2017-12-04T18:10:02Z</time>
      </trkpt>
      <trkpt lat="62.631833659316" lon="17.969462219004">
        <ele>66.8</ele>
        <time>2017-12-04T18:10:03Z</time>
      </trkpt>
      <trkpt lat="62.631847070356" lon="17.969492058568">
        <ele>67</ele>
        <time>2017-12-04T18:10:04Z</time>
      </trkpt>
      <trkpt lat="62.631859978482" lon="17.969503374133">
        <ele>67.2</ele>
        <time>2017-12-04T18:10:05Z</time>
      </trkpt>
      <trkpt lat="62.631871377866" lon="17.969525586168">
        <ele>67.4</ele>
        <time>2017-12-04T18:10:06Z</time>
      </trkpt>
      <trkpt lat="62.631877999567" lon="17.969543607253">
        <ele>67.4</ele>
        <time>2017-12-04T18:10:07Z</time>
      </trkpt>
      <trkpt lat="62.631877999567" lon="17.969562131252">
        <ele>67.6</ele>
        <time>2017-12-04T18:10:08Z</time>
      </trkpt>
      <trkpt lat="62.631872216056" lon="17.969580655251">
        <ele>67.6</ele>
        <time>2017-12-04T18:10:09Z</time>
      </trkpt>
      <trkpt lat="62.631866181088" lon="17.969584427106">
        <ele>67.8</ele>
        <time>2017-12-04T18:10:10Z</time>
      </trkpt>
      <trkpt lat="62.63185846974" lon="17.969583337459">
        <ele>67.8</ele>
        <time>2017-12-04T18:10:11Z</time>
      </trkpt>
      <trkpt lat="62.631849584926" lon="17.969581074346">
        <ele>67.8</ele>
        <time>2017-12-04T18:10:12Z</time>
      </trkpt>
      <trkpt lat="62.631845645433" lon="17.969575207016">
        <ele>67.8</ele>
        <time>2017-12-04T18:10:13Z</time>
      </trkpt>
      <trkpt lat="62.631838436999" lon="17.969562047433">
        <ele>68</ele>
        <time>2017-12-04T18:10:14Z</time>
      </trkpt>
      <trkpt lat="62.631840113379" lon="17.969561795976">
        <ele>68</ele>
        <time>2017-12-04T18:10:15Z</time>
      </trkpt>
      <trkpt lat="62.631832066755" lon="17.969557940302">
        <ele>68</ele>
        <time>2017-12-04T18:10:16Z</time>
      </trkpt>
      <trkpt lat="62.631829887461" lon="17.969553162619">
        <ele>68</ele>
        <time>2017-12-04T18:10:17Z</time>
      </trkpt>
      <trkpt lat="62.631823349579" lon="17.969548217298">
        <ele>68</ele>
        <time>2017-12-04T18:10:18Z</time>
      </trkpt>
      <trkpt lat="62.631825445054" lon="17.969542936701">
        <ele>68</ele>
        <time>2017-12-04T18:10:19Z</time>
      </trkpt>
      <trkpt lat="62.631823601036" lon="17.969555928646">
        <ele>68</ele>
        <time>2017-12-04T18:10:20Z</time>
      </trkpt>
      <trkpt lat="62.631941953464" lon="17.9696368978">
        <ele>68.6</ele>
        <time>2017-12-04T18:13:53Z</time>
      </trkpt>
      <trkpt lat="62.631964752232" lon="17.969633377402">
        <ele>68.6</ele>
        <time>2017-12-04T18:13:54Z</time>
      </trkpt>
      <trkpt lat="62.631988221552" lon="17.969628599719">
        <ele>68.8</ele>
        <time>2017-12-04T18:13:55Z</time>
      </trkpt>
      <trkpt lat="62.632012361424" lon="17.969624827864">
        <ele>68.8</ele>
        <time>2017-12-04T18:13:56Z</time>
      </trkpt>
      <trkpt lat="62.632038512952" lon="17.969620888371">
        <ele>69</ele>
        <time>2017-12-04T18:13:57Z</time>
      </trkpt>
      <trkpt lat="62.632066676136" lon="17.969614937222">
        <ele>69</ele>
        <time>2017-12-04T18:13:58Z</time>
      </trkpt>
      <trkpt lat="62.632092073293" lon="17.969609405168">
        <ele>69</ele>
        <time>2017-12-04T18:13:59Z</time>
      </trkpt>
      <trkpt lat="62.63211663226" lon="17.969602951105">
        <ele>69</ele>
        <time>2017-12-04T18:14:00Z</time>
      </trkpt>
      <trkpt lat="62.63214010158" lon="17.969595994128">
        <ele>69</ele>
        <time>2017-12-04T18:14:01Z</time>
      </trkpt>
      <trkpt lat="62.632166253108" lon="17.969589288608">
        <ele>69</ele>
        <time>2017-12-04T18:14:02Z</time>
      </trkpt>
      <trkpt lat="62.632190057704" lon="17.969584846201">
        <ele>69</ele>
        <time>2017-12-04T18:14:03Z</time>
      </trkpt>
      <trkpt lat="62.632217298879" lon="17.969576129025">
        <ele>69.2</ele>
        <time>2017-12-04T18:14:04Z</time>
      </trkpt>
      <trkpt lat="62.632241941665" lon="17.969567998582">
        <ele>69.2</ele>
        <time>2017-12-04T18:14:05Z</time>
      </trkpt>
      <trkpt lat="62.632266249175" lon="17.969559029949">
        <ele>69.2</ele>
        <time>2017-12-04T18:14:06Z</time>
      </trkpt>
      <trkpt lat="62.632290724323" lon="17.969558275578">
        <ele>69.2</ele>
        <time>2017-12-04T18:14:07Z</time>
      </trkpt>
      <trkpt lat="62.632316372937" lon="17.969556096284">
        <ele>69.2</ele>
        <time>2017-12-04T18:14:08Z</time>
      </trkpt>
      <trkpt lat="62.632343278836" lon="17.969556096284">
        <ele>69.2</ele>
        <time>2017-12-04T18:14:09Z</time>
      </trkpt>
      <trkpt lat="62.632367837803" lon="17.969549642221">
        <ele>69.2</ele>
        <time>2017-12-04T18:14:10Z</time>
      </trkpt>
      <trkpt lat="62.632392899684" lon="17.969546960013">
        <ele>69.2</ele>
        <time>2017-12-04T18:14:11Z</time>
      </trkpt>
      <trkpt lat="62.632421901058" lon="17.969542517606">
        <ele>69.2</ele>
        <time>2017-12-04T18:14:12Z</time>
      </trkpt>
      <trkpt lat="62.632450483337" lon="17.969540841226">
        <ele>69.2</ele>
        <time>2017-12-04T18:14:13Z</time>
      </trkpt>
      <trkpt lat="62.632476551046" lon="17.969542014692">
        <ele>69.4</ele>
        <time>2017-12-04T18:14:14Z</time>
      </trkpt>
      <trkpt lat="62.632499852728" lon="17.96954385871">
        <ele>69.4</ele>
        <time>2017-12-04T18:14:15Z</time>
      </trkpt>
      <trkpt lat="62.632528015912" lon="17.969551486239">
        <ele>69.4</ele>
        <time>2017-12-04T18:14:16Z</time>
      </trkpt>
      <trkpt lat="62.632554670354" lon="17.969558359397">
        <ele>69.4</ele>
        <time>2017-12-04T18:14:17Z</time>
      </trkpt>
      <trkpt lat="62.632579816054" lon="17.969561544519">
        <ele>69.4</ele>
        <time>2017-12-04T18:14:18Z</time>
      </trkpt>
      <trkpt lat="62.632604291202" lon="17.969565484012">
        <ele>69.4</ele>
        <time>2017-12-04T18:14:19Z</time>
      </trkpt>
      <trkpt lat="62.632630778006" lon="17.969569674962">
        <ele>69.4</ele>
        <time>2017-12-04T18:14:20Z</time>
      </trkpt>
      <trkpt lat="62.632658773552" lon="17.969573865912">
        <ele>69.4</ele>
        <time>2017-12-04T18:14:21Z</time>
      </trkpt>
      <trkpt lat="62.63268157232" lon="17.969575961387">
        <ele>69.6</ele>
        <time>2017-12-04T18:14:22Z</time>
      </trkpt>
      <trkpt lat="62.632707137115" lon="17.96957738631">
        <ele>69.6</ele>
        <time>2017-12-04T18:14:23Z</time>
      </trkpt>
      <trkpt lat="62.632731109349" lon="17.969582080174">
        <ele>69.6</ele>
        <time>2017-12-04T18:14:24Z</time>
      </trkpt>
      <trkpt lat="62.63275449485" lon="17.96958493002">
        <ele>69.6</ele>
        <time>2017-12-04T18:14:25Z</time>
      </trkpt>
      <trkpt lat="62.632776874523" lon="17.969586271124">
        <ele>69.6</ele>
        <time>2017-12-04T18:14:26Z</time>
      </trkpt>
      <trkpt lat="62.632794560332" lon="17.969599346888">
        <ele>69.6</ele>
        <time>2017-12-04T18:14:27Z</time>
      </trkpt>
      <trkpt lat="62.632823729344" lon="17.969605381856">
        <ele>69.8</ele>
        <time>2017-12-04T18:14:28Z</time>
      </trkpt>
      <trkpt lat="62.632847869216" lon="17.969609991901">
        <ele>69.8</ele>
        <time>2017-12-04T18:14:29Z</time>
      </trkpt>
      <trkpt lat="62.632872092907" lon="17.969612003557">
        <ele>69.8</ele>
        <time>2017-12-04T18:14:30Z</time>
      </trkpt>
      <trkpt lat="62.632895478408" lon="17.969615272498">
        <ele>69.8</ele>
        <time>2017-12-04T18:14:31Z</time>
      </trkpt>
      <trkpt lat="62.63292297104" lon="17.969622900027">
        <ele>69.8</ele>
        <time>2017-12-04T18:14:32Z</time>
      </trkpt>
      <trkpt lat="62.632947865283" lon="17.969627845348">
        <ele>70</ele>
        <time>2017-12-04T18:14:33Z</time>
      </trkpt>
      <trkpt lat="62.63297493882" lon="17.969632036298">
        <ele>70</ele>
        <time>2017-12-04T18:14:34Z</time>
      </trkpt>
      <trkpt lat="62.633000587434" lon="17.969637987447">
        <ele>70</ele>
        <time>2017-12-04T18:14:35Z</time>
      </trkpt>
      <trkpt lat="62.633025649315" lon="17.969644776786">
        <ele>70</ele>
        <time>2017-12-04T18:14:36Z</time>
      </trkpt>
      <trkpt lat="62.633054985965" lon="17.969656930541">
        <ele>70.2</ele>
        <time>2017-12-04T18:14:37Z</time>
      </trkpt>
      <trkpt lat="62.63308222714" lon="17.969659361292">
        <ele>70.2</ele>
        <time>2017-12-04T18:14:38Z</time>
      </trkpt>
      <trkpt lat="62.63310988741" lon="17.969663971337">
        <ele>70.2</ele>
        <time>2017-12-04T18:14:39Z</time>
      </trkpt>
      <trkpt lat="62.633134781653" lon="17.969668329925">
        <ele>70.2</ele>
        <time>2017-12-04T18:14:40Z</time>
      </trkpt>
      <trkpt lat="62.633158250973" lon="17.969675538359">
        <ele>70.4</ele>
        <time>2017-12-04T18:14:41Z</time>
      </trkpt>
      <trkpt lat="62.633183731949" lon="17.969677214739">
        <ele>70.4</ele>
        <time>2017-12-04T18:14:42Z</time>
      </trkpt>
      <trkpt lat="62.633210051115" lon="17.969681489508">
        <ele>70.4</ele>
        <time>2017-12-04T18:14:43Z</time>
      </trkpt>
      <trkpt lat="62.633235867367" lon="17.969689368494">
        <ele>70.6</ele>
        <time>2017-12-04T18:14:44Z</time>
      </trkpt>
      <trkpt lat="62.633260174877" lon="17.969699091498">
        <ele>70.6</ele>
        <time>2017-12-04T18:14:45Z</time>
      </trkpt>
      <trkpt lat="62.63328087817" lon="17.969713676004">
        <ele>70.6</ele>
        <time>2017-12-04T18:14:46Z</time>
      </trkpt>
      <trkpt lat="62.633302587291" lon="17.96974250974">
        <ele>70.6</ele>
        <time>2017-12-04T18:14:47Z</time>
      </trkpt>
      <trkpt lat="62.63331943491" lon="17.969774947693">
        <ele>70.6</ele>
        <time>2017-12-04T18:14:48Z</time>
      </trkpt>
      <trkpt lat="62.633331923941" lon="17.969820042315">
        <ele>70.6</ele>
        <time>2017-12-04T18:14:49Z</time>
      </trkpt>
      <trkpt lat="62.633337623633" lon="17.969870585172">
        <ele>70.6</ele>
        <time>2017-12-04T18:14:50Z</time>
      </trkpt>
      <trkpt lat="62.633340138203" lon="17.969919451649">
        <ele>70.6</ele>
        <time>2017-12-04T18:14:51Z</time>
      </trkpt>
      <trkpt lat="62.633341814583" lon="17.969970748877">
        <ele>70.8</ele>
        <time>2017-12-04T18:14:52Z</time>
      </trkpt>
      <trkpt lat="62.633343993877" lon="17.970022129924">
        <ele>70.8</ele>
        <time>2017-12-04T18:14:53Z</time>
      </trkpt>
      <trkpt lat="62.633346005533" lon="17.970074265342">
        <ele>71</ele>
        <time>2017-12-04T18:14:54Z</time>
      </trkpt>
      <trkpt lat="62.633348184827" lon="17.970122461267">
        <ele>71.2</ele>
        <time>2017-12-04T18:14:55Z</time>
      </trkpt>
      <trkpt lat="62.633350615578" lon="17.970168561717">
        <ele>71.2</ele>
        <time>2017-12-04T18:14:56Z</time>
      </trkpt>
      <trkpt lat="62.633355812356" lon="17.970214913624">
        <ele>71.4</ele>
        <time>2017-12-04T18:14:57Z</time>
      </trkpt>
      <trkpt lat="62.633363272247" lon="17.970277191141">
        <ele>71.6</ele>
        <time>2017-12-04T18:14:58Z</time>
      </trkpt>
      <trkpt lat="62.633369642491" lon="17.970331170577">
        <ele>71.6</ele>
        <time>2017-12-04T18:14:59Z</time>
      </trkpt>
      <trkpt lat="62.633376096554" lon="17.970382383986">
        <ele>71.8</ele>
        <time>2017-12-04T18:15:00Z</time>
      </trkpt>
      <trkpt lat="62.63338146097" lon="17.970431669558">
        <ele>71.8</ele>
        <time>2017-12-04T18:15:01Z</time>
      </trkpt>
      <trkpt lat="62.633386741567" lon="17.970489420849">
        <ele>72</ele>
        <time>2017-12-04T18:15:02Z</time>
      </trkpt>
      <trkpt lat="62.63339068106" lon="17.970539125516">
        <ele>72.2</ele>
        <time>2017-12-04T18:15:03Z</time>
      </trkpt>
      <trkpt lat="62.633396380752" lon="17.97059913992">
        <ele>72.2</ele>
        <time>2017-12-04T18:15:04Z</time>
      </trkpt>
      <trkpt lat="62.633399314417" lon="17.970648676949">
        <ele>72.4</ele>
        <time>2017-12-04T18:15:05Z</time>
      </trkpt>
      <trkpt lat="62.633401493711" lon="17.970695028856">
        <ele>72.4</ele>
        <time>2017-12-04T18:15:06Z</time>
      </trkpt>
      <trkpt lat="62.633407025765" lon="17.970755797631">
        <ele>72.6</ele>
        <time>2017-12-04T18:15:07Z</time>
      </trkpt>
      <trkpt lat="62.633409372697" lon="17.970810447619">
        <ele>72.8</ele>
        <time>2017-12-04T18:15:08Z</time>
      </trkpt>
      <trkpt lat="62.633411216715" lon="17.970865097607">
        <ele>72.8</ele>
        <time>2017-12-04T18:15:09Z</time>
      </trkpt>
      <trkpt lat="62.633416916407" lon="17.970923603269">
        <ele>72.8</ele>
        <time>2017-12-04T18:15:10Z</time>
      </trkpt>
      <trkpt lat="62.633419682434" lon="17.970976912153">
        <ele>73</ele>
        <time>2017-12-04T18:15:11Z</time>
      </trkpt>
      <trkpt lat="62.633424460117" lon="17.971033657616">
        <ele>73.2</ele>
        <time>2017-12-04T18:15:12Z</time>
      </trkpt>
      <trkpt lat="62.633429153981" lon="17.971086463586">
        <ele>73.2</ele>
        <time>2017-12-04T18:15:13Z</time>
      </trkpt>
      <trkpt lat="62.633431920008" lon="17.971139521013">
        <ele>73.4</ele>
        <time>2017-12-04T18:15:14Z</time>
      </trkpt>
      <trkpt lat="62.633431333275" lon="17.971189812413">
        <ele>73.4</ele>
        <time>2017-12-04T18:15:15Z</time>
      </trkpt>
      <trkpt lat="62.633430662723" lon="17.971233314474">
        <ele>73.4</ele>
        <time>2017-12-04T18:15:16Z</time>
      </trkpt>
      <trkpt lat="62.633432255284" lon="17.971293664154">
        <ele>73.6</ele>
        <time>2017-12-04T18:15:17Z</time>
      </trkpt>
      <trkpt lat="62.633434686035" lon="17.971342530631">
        <ele>73.6</ele>
        <time>2017-12-04T18:15:18Z</time>
      </trkpt>
      <trkpt lat="62.633432674379" lon="17.971394666049">
        <ele>73.8</ele>
        <time>2017-12-04T18:15:19Z</time>
      </trkpt>
      <trkpt lat="62.633430327447" lon="17.971446717648">
        <ele>73.8</ele>
        <time>2017-12-04T18:15:20Z</time>
      </trkpt>
      <trkpt lat="62.633428734886" lon="17.97149432684">
        <ele>74</ele>
        <time>2017-12-04T18:15:21Z</time>
      </trkpt>
      <trkpt lat="62.633428567248" lon="17.971555598529">
        <ele>74</ele>
        <time>2017-12-04T18:15:22Z</time>
      </trkpt>
      <trkpt lat="62.633426387954" lon="17.97161083525">
        <ele>74.2</ele>
        <time>2017-12-04T18:15:23Z</time>
      </trkpt>
      <trkpt lat="62.63342420866" lon="17.971665233781">
        <ele>74.4</ele>
        <time>2017-12-04T18:15:24Z</time>
      </trkpt>
      <trkpt lat="62.633421191176" lon="17.971715441362">
        <ele>74.4</ele>
        <time>2017-12-04T18:15:25Z</time>
      </trkpt>
      <trkpt lat="62.633418592787" lon="17.971761877088">
        <ele>74.6</ele>
        <time>2017-12-04T18:15:26Z</time>
      </trkpt>
      <trkpt lat="62.633412809276" lon="17.971814683058">
        <ele>74.6</ele>
        <time>2017-12-04T18:15:27Z</time>
      </trkpt>
      <trkpt lat="62.633404511195" lon="17.971873523996">
        <ele>74.8</ele>
        <time>2017-12-04T18:15:28Z</time>
      </trkpt>
      <trkpt lat="62.633397554218" lon="17.971925575595">
        <ele>75</ele>
        <time>2017-12-04T18:15:29Z</time>
      </trkpt>
      <trkpt lat="62.633391100155" lon="17.971976956642">
        <ele>75</ele>
        <time>2017-12-04T18:15:30Z</time>
      </trkpt>
      <trkpt lat="62.633385316644" lon="17.972024817291">
        <ele>75</ele>
        <time>2017-12-04T18:15:31Z</time>
      </trkpt>
      <trkpt lat="62.633377018563" lon="17.972085502247">
        <ele>75.2</ele>
        <time>2017-12-04T18:15:32Z</time>
      </trkpt>
      <trkpt lat="62.633370396862" lon="17.972137134751">
        <ele>75.2</ele>
        <time>2017-12-04T18:15:33Z</time>
      </trkpt>
      <trkpt lat="62.633362266419" lon="17.972191030368">
        <ele>75.2</ele>
        <time>2017-12-04T18:15:34Z</time>
      </trkpt>
      <trkpt lat="62.633354387433" lon="17.972242243777">
        <ele>75.2</ele>
        <time>2017-12-04T18:15:35Z</time>
      </trkpt>
      <trkpt lat="62.633348520103" lon="17.972289266236">
        <ele>75.4</ele>
        <time>2017-12-04T18:15:36Z</time>
      </trkpt>
      <trkpt lat="62.633336953081" lon="17.972345173509">
        <ele>75.4</ele>
        <time>2017-12-04T18:15:37Z</time>
      </trkpt>
      <trkpt lat="62.633326391887" lon="17.972397560384">
        <ele>75.6</ele>
        <time>2017-12-04T18:15:38Z</time>
      </trkpt>
      <trkpt lat="62.633316668883" lon="17.972449528164">
        <ele>75.6</ele>
        <time>2017-12-04T18:15:39Z</time>
      </trkpt>
      <trkpt lat="62.633306107689" lon="17.972500741573">
        <ele>75.8</ele>
        <time>2017-12-04T18:15:40Z</time>
      </trkpt>
      <trkpt lat="62.633298647798" lon="17.972544243634">
        <ele>75.8</ele>
        <time>2017-12-04T18:15:41Z</time>
      </trkpt>
      <trkpt lat="62.633284482387" lon="17.972603168391">
        <ele>76</ele>
        <time>2017-12-04T18:15:42Z</time>
      </trkpt>
      <trkpt lat="62.633274843202" lon="17.972653124515">
        <ele>76.2</ele>
        <time>2017-12-04T18:15:43Z</time>
      </trkpt>
      <trkpt lat="62.633263024723" lon="17.972702074811">
        <ele>76.4</ele>
        <time>2017-12-04T18:15:44Z</time>
      </trkpt>
      <trkpt lat="62.633249529864" lon="17.97274993546">
        <ele>76.4</ele>
        <time>2017-12-04T18:15:45Z</time>
      </trkpt>
      <trkpt lat="62.633244416905" lon="17.972791593503">
        <ele>76.4</ele>
        <time>2017-12-04T18:15:46Z</time>
      </trkpt>
      <trkpt lat="62.633233771892" lon="17.972848590423">
        <ele>76.6</ele>
        <time>2017-12-04T18:15:47Z</time>
      </trkpt>
      <trkpt lat="62.633224132707" lon="17.972895109968">
        <ele>76.8</ele>
        <time>2017-12-04T18:15:48Z</time>
      </trkpt>
      <trkpt lat="62.63321466116" lon="17.97294271916">
        <ele>76.8</ele>
        <time>2017-12-04T18:15:49Z</time>
      </trkpt>
      <trkpt lat="62.633205021975" lon="17.972990328352">
        <ele>76.8</ele>
        <time>2017-12-04T18:15:50Z</time>
      </trkpt>
      <trkpt lat="62.633195550428" lon="17.97303492006">
        <ele>77</ele>
        <time>2017-12-04T18:15:51Z</time>
      </trkpt>
      <trkpt lat="62.633183899587" lon="17.973089737686">
        <ele>77</ele>
        <time>2017-12-04T18:15:52Z</time>
      </trkpt>
      <trkpt lat="62.633172248746" lon="17.973137263059">
        <ele>77.2</ele>
        <time>2017-12-04T18:15:53Z</time>
      </trkpt>
      <trkpt lat="62.633160765543" lon="17.973187219183">
        <ele>77.2</ele>
        <time>2017-12-04T18:15:54Z</time>
      </trkpt>
      <trkpt lat="62.633150371987" lon="17.973236253298">
        <ele>77.2</ele>
        <time>2017-12-04T18:15:55Z</time>
      </trkpt>
      <trkpt lat="62.633141570992" lon="17.9732830243">
        <ele>77.2</ele>
        <time>2017-12-04T18:15:56Z</time>
      </trkpt>
      <trkpt lat="62.633130171608" lon="17.973328705655">
        <ele>77.4</ele>
        <time>2017-12-04T18:15:57Z</time>
      </trkpt>
      <trkpt lat="62.633115670921" lon="17.973383858557">
        <ele>77.4</ele>
        <time>2017-12-04T18:15:58Z</time>
      </trkpt>
      <trkpt lat="62.633103600985" lon="17.973432976491">
        <ele>77.4</ele>
        <time>2017-12-04T18:15:59Z</time>
      </trkpt>
      <trkpt lat="62.633092704515" lon="17.973481759149">
        <ele>77.6</ele>
        <time>2017-12-04T18:16:00Z</time>
      </trkpt>
      <trkpt lat="62.633083232968" lon="17.973527440504">
        <ele>77.6</ele>
        <time>2017-12-04T18:16:01Z</time>
      </trkpt>
      <trkpt lat="62.633072504136" lon="17.973577899542">
        <ele>77.8</ele>
        <time>2017-12-04T18:16:02Z</time>
      </trkpt>
      <trkpt lat="62.633061942942" lon="17.973623245621">
        <ele>77.8</ele>
        <time>2017-12-04T18:16:03Z</time>
      </trkpt>
      <trkpt lat="62.633051297929" lon="17.973676470686">
        <ele>77.8</ele>
        <time>2017-12-04T18:16:04Z</time>
      </trkpt>
      <trkpt lat="62.633040233821" lon="17.973724163697">
        <ele>78</ele>
        <time>2017-12-04T18:16:05Z</time>
      </trkpt>
      <trkpt lat="62.633028499161" lon="17.973767330482">
        <ele>78</ele>
        <time>2017-12-04T18:16:06Z</time>
      </trkpt>
      <trkpt lat="62.633018021786" lon="17.973822148108">
        <ele>78.2</ele>
        <time>2017-12-04T18:16:07Z</time>
      </trkpt>
      <trkpt lat="62.63300679004" lon="17.97387227187">
        <ele>78.4</ele>
        <time>2017-12-04T18:16:08Z</time>
      </trkpt>
      <trkpt lat="62.63299589357" lon="17.973918120863">
        <ele>78.4</ele>
        <time>2017-12-04T18:16:09Z</time>
      </trkpt>
      <trkpt lat="62.632983907453" lon="17.973973189946">
        <ele>78.4</ele>
        <time>2017-12-04T18:16:10Z</time>
      </trkpt>
      <trkpt lat="62.632973094802" lon="17.974020715319">
        <ele>78.4</ele>
        <time>2017-12-04T18:16:11Z</time>
      </trkpt>
      <trkpt lat="62.632960102857" lon="17.974072347823">
        <ele>78.6</ele>
        <time>2017-12-04T18:16:12Z</time>
      </trkpt>
      <trkpt lat="62.632947949102" lon="17.974121298119">
        <ele>78.4</ele>
        <time>2017-12-04T18:16:13Z</time>
      </trkpt>
      <trkpt lat="62.63293638208" lon="17.974171421881">
        <ele>78.6</ele>
        <time>2017-12-04T18:16:14Z</time>
      </trkpt>
      <trkpt lat="62.632924479782" lon="17.974222383833">
        <ele>78.6</ele>
        <time>2017-12-04T18:16:15Z</time>
      </trkpt>
      <trkpt lat="62.632915175873" lon="17.974263203686">
        <ele>78.8</ele>
        <time>2017-12-04T18:16:16Z</time>
      </trkpt>
      <trkpt lat="62.632902770661" lon="17.974321038796">
        <ele>78.8</ele>
        <time>2017-12-04T18:16:17Z</time>
      </trkpt>
      <trkpt lat="62.632892125648" lon="17.974368228893">
        <ele>78.8</ele>
        <time>2017-12-04T18:16:18Z</time>
      </trkpt>
      <trkpt lat="62.632880558626" lon="17.974415754266">
        <ele>78.8</ele>
        <time>2017-12-04T18:16:19Z</time>
      </trkpt>
      <trkpt lat="62.632869494518" lon="17.974466883856">
        <ele>78.8</ele>
        <time>2017-12-04T18:16:20Z</time>
      </trkpt>
      <trkpt lat="62.632859436238" lon="17.974516337066">
        <ele>78.8</ele>
        <time>2017-12-04T18:16:21Z</time>
      </trkpt>
      <trkpt lat="62.632850970519" lon="17.97456629319">
        <ele>78.8</ele>
        <time>2017-12-04T18:16:22Z</time>
      </trkpt>
      <trkpt lat="62.632840157868" lon="17.974616081676">
        <ele>78.8</ele>
        <time>2017-12-04T18:16:23Z</time>
      </trkpt>
      <trkpt lat="62.632829345217" lon="17.97466855237">
        <ele>79</ele>
        <time>2017-12-04T18:16:24Z</time>
      </trkpt>
      <trkpt lat="62.632817778195" lon="17.974722531806">
        <ele>79</ele>
        <time>2017-12-04T18:16:25Z</time>
      </trkpt>
      <trkpt lat="62.632806714087" lon="17.974773912853">
        <ele>79</ele>
        <time>2017-12-04T18:16:26Z</time>
      </trkpt>
      <trkpt lat="62.632796655807" lon="17.974819007475">
        <ele>79.2</ele>
        <time>2017-12-04T18:16:27Z</time>
      </trkpt>
      <trkpt lat="62.632780394921" lon="17.974885056847">
        <ele>79.4</ele>
        <time>2017-12-04T18:16:28Z</time>
      </trkpt>
      <trkpt lat="62.632769666089" lon="17.974937946636">
        <ele>79.4</ele>
        <time>2017-12-04T18:16:29Z</time>
      </trkpt>
      <trkpt lat="62.632757260877" lon="17.9749929319">
        <ele>79.4</ele>
        <time>2017-12-04T18:16:30Z</time>
      </trkpt>
      <trkpt lat="62.632743933656" lon="17.97504741425">
        <ele>79.6</ele>
        <time>2017-12-04T18:16:31Z</time>
      </trkpt>
      <trkpt lat="62.632732115177" lon="17.975099214392">
        <ele>79.6</ele>
        <time>2017-12-04T18:16:32Z</time>
      </trkpt>
      <trkpt lat="62.632719123232" lon="17.975153529104">
        <ele>79.6</ele>
        <time>2017-12-04T18:16:33Z</time>
      </trkpt>
      <trkpt lat="62.632706801839" lon="17.975208095273">
        <ele>79.6</ele>
        <time>2017-12-04T18:16:34Z</time>
      </trkpt>
      <trkpt lat="62.632692971704" lon="17.975261404157">
        <ele>79.8</ele>
        <time>2017-12-04T18:16:35Z</time>
      </trkpt>
      <trkpt lat="62.632679141569" lon="17.975315886507">
        <ele>79.6</ele>
        <time>2017-12-04T18:16:36Z</time>
      </trkpt>
      <trkpt lat="62.632668915651" lon="17.975367686649">
        <ele>79.8</ele>
        <time>2017-12-04T18:16:37Z</time>
      </trkpt>
      <trkpt lat="62.632655420792" lon="17.975421079352">
        <ele>79.8</ele>
        <time>2017-12-04T18:16:38Z</time>
      </trkpt>
      <trkpt lat="62.632642931761" lon="17.975474388236">
        <ele>79.8</ele>
        <time>2017-12-04T18:16:39Z</time>
      </trkpt>
      <trkpt lat="62.632630694187" lon="17.975528283853">
        <ele>79.8</ele>
        <time>2017-12-04T18:16:40Z</time>
      </trkpt>
      <trkpt lat="62.632617702242" lon="17.975582514746">
        <ele>79.8</ele>
        <time>2017-12-04T18:16:41Z</time>
      </trkpt>
      <trkpt lat="62.632606638134" lon="17.975635991268">
        <ele>79.8</ele>
        <time>2017-12-04T18:16:42Z</time>
      </trkpt>
      <trkpt lat="62.632594232922" lon="17.975689383971">
        <ele>79.8</ele>
        <time>2017-12-04T18:16:43Z</time>
      </trkpt>
      <trkpt lat="62.632582414443" lon="17.975741184113">
        <ele>80</ele>
        <time>2017-12-04T18:16:44Z</time>
      </trkpt>
      <trkpt lat="62.632572188525" lon="17.975790134409">
        <ele>79.8</ele>
        <time>2017-12-04T18:16:45Z</time>
      </trkpt>
      <trkpt lat="62.632558609847" lon="17.975847718062">
        <ele>80</ele>
        <time>2017-12-04T18:16:46Z</time>
      </trkpt>
      <trkpt lat="62.632546372273" lon="17.975906223724">
        <ele>80.2</ele>
        <time>2017-12-04T18:16:47Z</time>
      </trkpt>
      <trkpt lat="62.632534469975" lon="17.975962047178">
        <ele>80.2</ele>
        <time>2017-12-04T18:16:48Z</time>
      </trkpt>
      <trkpt lat="62.632523322048" lon="17.976016445709">
        <ele>80.2</ele>
        <time>2017-12-04T18:16:49Z</time>
      </trkpt>
      <trkpt lat="62.632513179949" lon="17.976069670774">
        <ele>80.2</ele>
        <time>2017-12-04T18:16:50Z</time>
      </trkpt>
      <trkpt lat="62.632502870212" lon="17.976122644382">
        <ele>80.4</ele>
        <time>2017-12-04T18:16:51Z</time>
      </trkpt>
      <trkpt lat="62.632485938774" lon="17.97616807428">
        <ele>80.4</ele>
        <time>2017-12-04T18:16:52Z</time>
      </trkpt>
      <trkpt lat="62.632474371752" lon="17.976220293517">
        <ele>80.4</ele>
        <time>2017-12-04T18:16:53Z</time>
      </trkpt>
      <trkpt lat="62.632462720911" lon="17.976272931849">
        <ele>80.4</ele>
        <time>2017-12-04T18:16:54Z</time>
      </trkpt>
      <trkpt lat="62.632451405346" lon="17.976325234905">
        <ele>80.4</ele>
        <time>2017-12-04T18:16:55Z</time>
      </trkpt>
      <trkpt lat="62.632440592695" lon="17.976377454142">
        <ele>80.4</ele>
        <time>2017-12-04T18:16:56Z</time>
      </trkpt>
      <trkpt lat="62.632426846379" lon="17.976422297307">
        <ele>80.6</ele>
        <time>2017-12-04T18:16:57Z</time>
      </trkpt>
      <trkpt lat="62.632414944081" lon="17.976484574824">
        <ele>80.6</ele>
        <time>2017-12-04T18:16:58Z</time>
      </trkpt>
      <trkpt lat="62.632402035955" lon="17.976538638079">
        <ele>80.6</ele>
        <time>2017-12-04T18:16:59Z</time>
      </trkpt>
      <trkpt lat="62.632389714562" lon="17.976590270583">
        <ele>80.6</ele>
        <time>2017-12-04T18:17:00Z</time>
      </trkpt>
      <trkpt lat="62.632378315178" lon="17.97663913706">
        <ele>80.6</ele>
        <time>2017-12-04T18:17:01Z</time>
      </trkpt>
      <trkpt lat="62.632364652681" lon="17.976697223627">
        <ele>80.6</ele>
        <time>2017-12-04T18:17:02Z</time>
      </trkpt>
      <trkpt lat="62.632355348772" lon="17.976748772312">
        <ele>80.6</ele>
        <time>2017-12-04T18:17:03Z</time>
      </trkpt>
      <trkpt lat="62.632340009895" lon="17.976806020689">
        <ele>80.8</ele>
        <time>2017-12-04T18:17:04Z</time>
      </trkpt>
      <trkpt lat="62.632327939959" lon="17.976857737012">
        <ele>80.8</ele>
        <time>2017-12-04T18:17:05Z</time>
      </trkpt>
      <trkpt lat="62.632317630222" lon="17.976907693136">
        <ele>80.8</ele>
        <time>2017-12-04T18:17:06Z</time>
      </trkpt>
      <trkpt lat="62.632306482295" lon="17.976964941513">
        <ele>81</ele>
        <time>2017-12-04T18:17:07Z</time>
      </trkpt>
      <trkpt lat="62.632296088739" lon="17.977017244569">
        <ele>81</ele>
        <time>2017-12-04T18:17:08Z</time>
      </trkpt>
      <trkpt lat="62.632285192269" lon="17.977069044711">
        <ele>81</ele>
        <time>2017-12-04T18:17:09Z</time>
      </trkpt>
      <trkpt lat="62.63227421198" lon="17.977124197613">
        <ele>81.2</ele>
        <time>2017-12-04T18:17:10Z</time>
      </trkpt>
      <trkpt lat="62.632265243347" lon="17.977176249212">
        <ele>81.2</ele>
        <time>2017-12-04T18:17:11Z</time>
      </trkpt>
      <trkpt lat="62.632251664669" lon="17.97723341377">
        <ele>81</ele>
        <time>2017-12-04T18:17:12Z</time>
      </trkpt>
      <trkpt lat="62.632239594733" lon="17.977284878636">
        <ele>81.2</ele>
        <time>2017-12-04T18:17:13Z</time>
      </trkpt>
      <trkpt lat="62.632225848417" lon="17.977338774253">
        <ele>81.2</ele>
        <time>2017-12-04T18:17:14Z</time>
      </trkpt>
      <trkpt lat="62.632211599187" lon="17.977393675698">
        <ele>81.2</ele>
        <time>2017-12-04T18:17:15Z</time>
      </trkpt>
      <trkpt lat="62.632205564219" lon="17.977439357053">
        <ele>81.4</ele>
        <time>2017-12-04T18:17:16Z</time>
      </trkpt>
      <trkpt lat="62.632189387152" lon="17.97749660543">
        <ele>81.4</ele>
        <time>2017-12-04T18:17:17Z</time>
      </trkpt>
      <trkpt lat="62.63217782013" lon="17.977546393916">
        <ele>81.4</ele>
        <time>2017-12-04T18:17:18Z</time>
      </trkpt>
      <trkpt lat="62.632165917832" lon="17.977597691144">
        <ele>81.4</ele>
        <time>2017-12-04T18:17:19Z</time>
      </trkpt>
      <trkpt lat="62.632154015534" lon="17.977648150182">
        <ele>81.6</ele>
        <time>2017-12-04T18:17:20Z</time>
      </trkpt>
      <trkpt lat="62.632142699969" lon="17.977696178469">
        <ele>81.6</ele>
        <time>2017-12-04T18:17:21Z</time>
      </trkpt>
      <trkpt lat="62.632130630033" lon="17.977755187045">
        <ele>81.6</ele>
        <time>2017-12-04T18:17:22Z</time>
      </trkpt>
      <trkpt lat="62.632119398287" lon="17.977807993015">
        <ele>81.6</ele>
        <time>2017-12-04T18:17:23Z</time>
      </trkpt>
      <trkpt lat="62.632107328351" lon="17.977859709338">
        <ele>81.6</ele>
        <time>2017-12-04T18:17:24Z</time>
      </trkpt>
      <trkpt lat="62.63209567751" lon="17.977910084557">
        <ele>81.6</ele>
        <time>2017-12-04T18:17:25Z</time>
      </trkpt>
      <trkpt lat="62.632084529583" lon="17.977957190835">
        <ele>81.8</ele>
        <time>2017-12-04T18:17:26Z</time>
      </trkpt>
      <trkpt lat="62.632074219846" lon="17.978001447267">
        <ele>81.8</ele>
        <time>2017-12-04T18:17:27Z</time>
      </trkpt>
      <trkpt lat="62.632057623684" lon="17.978061629309">
        <ele>82</ele>
        <time>2017-12-04T18:17:28Z</time>
      </trkpt>
      <trkpt lat="62.632044296463" lon="17.978114183822">
        <ele>82</ele>
        <time>2017-12-04T18:17:29Z</time>
      </trkpt>
      <trkpt lat="62.632030466328" lon="17.978164726679">
        <ele>82.2</ele>
        <time>2017-12-04T18:17:30Z</time>
      </trkpt>
      <trkpt lat="62.63201772584" lon="17.978213341699">
        <ele>82.2</ele>
        <time>2017-12-04T18:17:31Z</time>
      </trkpt>
      <trkpt lat="62.632003141334" lon="17.97826857842">
        <ele>82.4</ele>
        <time>2017-12-04T18:17:32Z</time>
      </trkpt>
      <trkpt lat="62.631988640647" lon="17.978321887304">
        <ele>82.4</ele>
        <time>2017-12-04T18:17:33Z</time>
      </trkpt>
      <trkpt lat="62.631977911815" lon="17.978370250867">
        <ele>82.4</ele>
        <time>2017-12-04T18:17:34Z</time>
      </trkpt>
      <trkpt lat="62.631965338965" lon="17.978421631914">
        <ele>82.4</ele>
        <time>2017-12-04T18:17:35Z</time>
      </trkpt>
      <trkpt lat="62.63195234702" lon="17.978472090952">
        <ele>82.6</ele>
        <time>2017-12-04T18:17:36Z</time>
      </trkpt>
      <trkpt lat="62.631943294568" lon="17.978520454515">
        <ele>82.4</ele>
        <time>2017-12-04T18:17:37Z</time>
      </trkpt>
      <trkpt lat="62.631932481917" lon="17.978571584105">
        <ele>82.6</ele>
        <time>2017-12-04T18:17:38Z</time>
      </trkpt>
      <trkpt lat="62.631922004542" lon="17.978621791686">
        <ele>82.6</ele>
        <time>2017-12-04T18:17:39Z</time>
      </trkpt>
      <trkpt lat="62.631911191891" lon="17.978674765294">
        <ele>82.6</ele>
        <time>2017-12-04T18:17:40Z</time>
      </trkpt>
      <trkpt lat="62.631900043964" lon="17.978731007843">
        <ele>82.6</ele>
        <time>2017-12-04T18:17:41Z</time>
      </trkpt>
      <trkpt lat="62.631890069503" lon="17.978774342266">
        <ele>82.6</ele>
        <time>2017-12-04T18:17:42Z</time>
      </trkpt>
      <trkpt lat="62.631878837757" lon="17.978827148236">
        <ele>82.6</ele>
        <time>2017-12-04T18:17:43Z</time>
      </trkpt>
      <trkpt lat="62.631869114753" lon="17.978878613102">
        <ele>82.8</ele>
        <time>2017-12-04T18:17:44Z</time>
      </trkpt>
      <trkpt lat="62.631859643206" lon="17.978927060484">
        <ele>82.8</ele>
        <time>2017-12-04T18:17:45Z</time>
      </trkpt>
      <trkpt lat="62.631849417288" lon="17.978978441531">
        <ele>82.8</ele>
        <time>2017-12-04T18:17:46Z</time>
      </trkpt>
      <trkpt lat="62.631838017904" lon="17.979029068207">
        <ele>82.8</ele>
        <time>2017-12-04T18:17:47Z</time>
      </trkpt>
      <trkpt lat="62.631824187769" lon="17.979082209453">
        <ele>82.8</ele>
        <time>2017-12-04T18:17:48Z</time>
      </trkpt>
      <trkpt lat="62.63180985472" lon="17.979134763966">
        <ele>83</ele>
        <time>2017-12-04T18:17:49Z</time>
      </trkpt>
      <trkpt lat="62.631797449508" lon="17.979186228832">
        <ele>83</ele>
        <time>2017-12-04T18:17:50Z</time>
      </trkpt>
      <trkpt lat="62.63178387083" lon="17.979235430585">
        <ele>83.2</ele>
        <time>2017-12-04T18:17:51Z</time>
      </trkpt>
      <trkpt lat="62.631775824206" lon="17.979288990926">
        <ele>83.4</ele>
        <time>2017-12-04T18:17:52Z</time>
      </trkpt>
      <trkpt lat="62.631764257184" lon="17.979341964534">
        <ele>83.6</ele>
        <time>2017-12-04T18:17:53Z</time>
      </trkpt>
      <trkpt lat="62.631752271067" lon="17.979393597038">
        <ele>83.6</ele>
        <time>2017-12-04T18:17:54Z</time>
      </trkpt>
      <trkpt lat="62.631740117312" lon="17.979444642809">
        <ele>83.6</ele>
        <time>2017-12-04T18:17:55Z</time>
      </trkpt>
      <trkpt lat="62.631728382652" lon="17.979497448779">
        <ele>83.8</ele>
        <time>2017-12-04T18:17:56Z</time>
      </trkpt>
      <trkpt lat="62.631718827286" lon="17.979540028831">
        <ele>83.8</ele>
        <time>2017-12-04T18:17:57Z</time>
      </trkpt>
      <trkpt lat="62.63170340459" lon="17.979598199217">
        <ele>83.6</ele>
        <time>2017-12-04T18:17:58Z</time>
      </trkpt>
      <trkpt lat="62.631688149532" lon="17.979647903884">
        <ele>83.8</ele>
        <time>2017-12-04T18:17:59Z</time>
      </trkpt>
      <trkpt lat="62.631671972465" lon="17.979697776189">
        <ele>83.8</ele>
        <time>2017-12-04T18:18:00Z</time>
      </trkpt>
      <trkpt lat="62.631656130674" lon="17.979747229399">
        <ele>83.8</ele>
        <time>2017-12-04T18:18:01Z</time>
      </trkpt>
      <trkpt lat="62.631636768485" lon="17.979796514971">
        <ele>83.8</ele>
        <time>2017-12-04T18:18:02Z</time>
      </trkpt>
      <trkpt lat="62.631620926694" lon="17.979846052">
        <ele>84</ele>
        <time>2017-12-04T18:18:03Z</time>
      </trkpt>
      <trkpt lat="62.631602067419" lon="17.979898941789">
        <ele>84</ele>
        <time>2017-12-04T18:18:04Z</time>
      </trkpt>
      <trkpt lat="62.631584130153" lon="17.979946802438">
        <ele>84.2</ele>
        <time>2017-12-04T18:18:05Z</time>
      </trkpt>
      <trkpt lat="62.631566444344" lon="17.979994076354">
        <ele>84</ele>
        <time>2017-12-04T18:18:06Z</time>
      </trkpt>
      <trkpt lat="62.631544399947" lon="17.980034225655">
        <ele>84</ele>
        <time>2017-12-04T18:18:07Z</time>
      </trkpt>
      <trkpt lat="62.631519170428" lon="17.980065071047">
        <ele>84</ele>
        <time>2017-12-04T18:18:08Z</time>
      </trkpt>
      <trkpt lat="62.631493437995" lon="17.980090552023">
        <ele>84.2</ele>
        <time>2017-12-04T18:18:09Z</time>
      </trkpt>
      <trkpt lat="62.631465190992" lon="17.980091976946">
        <ele>84.2</ele>
        <time>2017-12-04T18:18:10Z</time>
      </trkpt>
      <trkpt lat="62.631441805491" lon="17.980098514828">
        <ele>84.2</ele>
        <time>2017-12-04T18:18:11Z</time>
      </trkpt>
      <trkpt lat="62.631410373366" lon="17.980101113217">
        <ele>84.2</ele>
        <time>2017-12-04T18:18:12Z</time>
      </trkpt>
      <trkpt lat="62.631385143847" lon="17.980103711606">
        <ele>84.2</ele>
        <time>2017-12-04T18:18:13Z</time>
      </trkpt>
      <trkpt lat="62.631360333423" lon="17.98009918538">
        <ele>84.2</ele>
        <time>2017-12-04T18:18:14Z</time>
      </trkpt>
      <trkpt lat="62.631336780284" lon="17.980088875643">
        <ele>84.2</ele>
        <time>2017-12-04T18:18:15Z</time>
      </trkpt>
      <trkpt lat="62.631315657896" lon="17.980083678865">
        <ele>84.2</ele>
        <time>2017-12-04T18:18:16Z</time>
      </trkpt>
      <trkpt lat="62.631289841644" lon="17.980065490142">
        <ele>84.2</ele>
        <time>2017-12-04T18:18:17Z</time>
      </trkpt>
      <trkpt lat="62.631268719256" lon="17.980046127953">
        <ele>84.2</ele>
        <time>2017-12-04T18:18:18Z</time>
      </trkpt>
      <trkpt lat="62.631246507221" lon="17.980030956714">
        <ele>84.4</ele>
        <time>2017-12-04T18:18:19Z</time>
      </trkpt>
      <trkpt lat="62.631222534987" lon="17.980014276733">
        <ele>84.4</ele>
        <time>2017-12-04T18:18:20Z</time>
      </trkpt>
      <trkpt lat="62.631200742047" lon="17.97999441163">
        <ele>84.6</ele>
        <time>2017-12-04T18:18:21Z</time>
      </trkpt>
      <trkpt lat="62.631175847804" lon="17.979975468536">
        <ele>84.6</ele>
        <time>2017-12-04T18:18:22Z</time>
      </trkpt>
      <trkpt lat="62.631151288837" lon="17.979956525442">
        <ele>84.6</ele>
        <time>2017-12-04T18:18:23Z</time>
      </trkpt>
      <trkpt lat="62.631128573888" lon="17.979938420538">
        <ele>84.8</ele>
        <time>2017-12-04T18:18:24Z</time>
      </trkpt>
      <trkpt lat="62.631103428188" lon="17.979919142168">
        <ele>84.8</ele>
        <time>2017-12-04T18:18:25Z</time>
      </trkpt>
      <trkpt lat="62.631080042687" lon="17.979898355056">
        <ele>84.8</ele>
        <time>2017-12-04T18:18:26Z</time>
      </trkpt>
      <trkpt lat="62.631062943611" lon="17.979873963727">
        <ele>84.8</ele>
        <time>2017-12-04T18:18:27Z</time>
      </trkpt>
      <trkpt lat="62.631031679124" lon="17.979847225466">
        <ele>85</ele>
        <time>2017-12-04T18:18:28Z</time>
      </trkpt>
      <trkpt lat="62.631008293623" lon="17.979831132218">
        <ele>85</ele>
        <time>2017-12-04T18:18:29Z</time>
      </trkpt>
      <trkpt lat="62.630985997769" lon="17.979812272943">
        <ele>85</ele>
        <time>2017-12-04T18:18:30Z</time>
      </trkpt>
      <trkpt lat="62.630965881209" lon="17.979789390356">
        <ele>85</ele>
        <time>2017-12-04T18:18:31Z</time>
      </trkpt>
      <trkpt lat="62.630940484052" lon="17.979774470574">
        <ele>85</ele>
        <time>2017-12-04T18:18:32Z</time>
      </trkpt>
      <trkpt lat="62.630917098551" lon="17.979757371498">
        <ele>85.2</ele>
        <time>2017-12-04T18:18:33Z</time>
      </trkpt>
      <trkpt lat="62.63088868391" lon="17.979747899951">
        <ele>85.4</ele>
        <time>2017-12-04T18:18:34Z</time>
      </trkpt>
      <trkpt lat="62.630863705848" lon="17.979731974341">
        <ele>85.4</ele>
        <time>2017-12-04T18:18:35Z</time>
      </trkpt>
      <trkpt lat="62.630839649795" lon="17.979710097582">
        <ele>85.4</ele>
        <time>2017-12-04T18:18:36Z</time>
      </trkpt>
      <trkpt lat="62.630814839371" lon="17.979692747049">
        <ele>85.6</ele>
        <time>2017-12-04T18:18:37Z</time>
      </trkpt>
      <trkpt lat="62.630790112766" lon="17.979672211394">
        <ele>85.8</ele>
        <time>2017-12-04T18:18:38Z</time>
      </trkpt>
      <trkpt lat="62.630767397817" lon="17.979651340463">
        <ele>85.6</ele>
        <time>2017-12-04T18:18:39Z</time>
      </trkpt>
      <trkpt lat="62.630742252117" lon="17.979628541695">
        <ele>85.6</ele>
        <time>2017-12-04T18:18:40Z</time>
      </trkpt>
      <trkpt lat="62.63072104591" lon="17.979604150366">
        <ele>85.8</ele>
        <time>2017-12-04T18:18:41Z</time>
      </trkpt>
      <trkpt lat="62.630698917694" lon="17.979580178132">
        <ele>86</ele>
        <time>2017-12-04T18:18:42Z</time>
      </trkpt>
      <trkpt lat="62.630677040935" lon="17.979553775147">
        <ele>86</ele>
        <time>2017-12-04T18:18:43Z</time>
      </trkpt>
      <trkpt lat="62.630654912719" lon="17.979524773773">
        <ele>86.2</ele>
        <time>2017-12-04T18:18:44Z</time>
      </trkpt>
      <trkpt lat="62.630635634349" lon="17.979494515114">
        <ele>86.2</ele>
        <time>2017-12-04T18:18:45Z</time>
      </trkpt>
      <trkpt lat="62.630620714567" lon="17.979469620871">
        <ele>86.2</ele>
        <time>2017-12-04T18:18:46Z</time>
      </trkpt>
      <trkpt lat="62.630595652686" lon="17.979430980312">
        <ele>86.2</ele>
        <time>2017-12-04T18:18:47Z</time>
      </trkpt>
      <trkpt lat="62.63057520085" lon="17.979398207083">
        <ele>86.2</ele>
        <time>2017-12-04T18:18:48Z</time>
      </trkpt>
      <trkpt lat="62.630554078462" lon="17.97936409275">
        <ele>86.2</ele>
        <time>2017-12-04T18:18:49Z</time>
      </trkpt>
      <trkpt lat="62.630533961902" lon="17.979329307865">
        <ele>86.2</ele>
        <time>2017-12-04T18:18:50Z</time>
      </trkpt>
      <trkpt lat="62.63051652755" lon="17.979294942075">
        <ele>86.2</ele>
        <time>2017-12-04T18:18:51Z</time>
      </trkpt>
      <trkpt lat="62.630497584456" lon="17.97925261348">
        <ele>86.4</ele>
        <time>2017-12-04T18:18:52Z</time>
      </trkpt>
      <trkpt lat="62.630481072113" lon="17.979215397844">
        <ele>86.4</ele>
        <time>2017-12-04T18:18:53Z</time>
      </trkpt>
      <trkpt lat="62.630464056856" lon="17.979176589647">
        <ele>86.2</ele>
        <time>2017-12-04T18:18:54Z</time>
      </trkpt>
      <trkpt lat="62.630446454866" lon="17.979137697631">
        <ele>86.2</ele>
        <time>2017-12-04T18:18:55Z</time>
      </trkpt>
      <trkpt lat="62.630429523428" lon="17.979096291045">
        <ele>86.2</ele>
        <time>2017-12-04T18:18:56Z</time>
      </trkpt>
      <trkpt lat="62.630415525655" lon="17.979062511988">
        <ele>86</ele>
        <time>2017-12-04T18:18:57Z</time>
      </trkpt>
      <trkpt lat="62.630396498742" lon="17.979009789837">
        <ele>86</ele>
        <time>2017-12-04T18:18:58Z</time>
      </trkpt>
      <trkpt lat="62.630381411322" lon="17.978964192301">
        <ele>86</ele>
        <time>2017-12-04T18:18:59Z</time>
      </trkpt>
      <trkpt lat="62.63036481516" lon="17.978923372448">
        <ele>86</ele>
        <time>2017-12-04T18:19:00Z</time>
      </trkpt>
      <trkpt lat="62.630348302817" lon="17.978882804052">
        <ele>85.8</ele>
        <time>2017-12-04T18:19:01Z</time>
      </trkpt>
      <trkpt lat="62.630327264248" lon="17.978844834045">
        <ele>85.8</ele>
        <time>2017-12-04T18:19:02Z</time>
      </trkpt>
      <trkpt lat="62.630310584267" lon="17.978805103839">
        <ele>85.6</ele>
        <time>2017-12-04T18:19:03Z</time>
      </trkpt>
      <trkpt lat="62.630295329209" lon="17.978762523787">
        <ele>85.6</ele>
        <time>2017-12-04T18:19:04Z</time>
      </trkpt>
      <trkpt lat="62.630282253445" lon="17.978717596803">
        <ele>85.4</ele>
        <time>2017-12-04T18:19:05Z</time>
      </trkpt>
      <trkpt lat="62.630270770242" lon="17.978673088914">
        <ele>85.4</ele>
        <time>2017-12-04T18:19:06Z</time>
      </trkpt>
      <trkpt lat="62.630254676994" lon="17.978626653188">
        <ele>85.4</ele>
        <time>2017-12-04T18:19:07Z</time>
      </trkpt>
      <trkpt lat="62.630241182135" lon="17.978576948521">
        <ele>85.4</ele>
        <time>2017-12-04T18:19:08Z</time>
      </trkpt>
      <trkpt lat="62.63022902838" lon="17.978529171691">
        <ele>85.4</ele>
        <time>2017-12-04T18:19:09Z</time>
      </trkpt>
      <trkpt lat="62.630216539349" lon="17.978484328526">
        <ele>85.2</ele>
        <time>2017-12-04T18:19:10Z</time>
      </trkpt>
      <trkpt lat="62.630205307603" lon="17.978436132601">
        <ele>85.2</ele>
        <time>2017-12-04T18:19:11Z</time>
      </trkpt>
      <trkpt lat="62.630190723097" lon="17.978391121798">
        <ele>85</ele>
        <time>2017-12-04T18:19:12Z</time>
      </trkpt>
      <trkpt lat="62.630179826627" lon="17.978340243665">
        <ele>84.8</ele>
        <time>2017-12-04T18:19:13Z</time>
      </trkpt>
      <trkpt lat="62.630172115279" lon="17.978285677496">
        <ele>84.8</ele>
        <time>2017-12-04T18:19:14Z</time>
      </trkpt>
      <trkpt lat="62.630166918501" lon="17.978232368612">
        <ele>84.6</ele>
        <time>2017-12-04T18:19:15Z</time>
      </trkpt>
      <trkpt lat="62.630161218809" lon="17.978184591782">
        <ele>84.4</ele>
        <time>2017-12-04T18:19:16Z</time>
      </trkpt>
      <trkpt lat="62.630155100022" lon="17.978124158283">
        <ele>84.2</ele>
        <time>2017-12-04T18:19:17Z</time>
      </trkpt>
      <trkpt lat="62.630153088366" lon="17.978071017037">
        <ele>84.2</ele>
        <time>2017-12-04T18:19:18Z</time>
      </trkpt>
      <trkpt lat="62.630151579624" lon="17.978016031773">
        <ele>84</ele>
        <time>2017-12-04T18:19:19Z</time>
      </trkpt>
      <trkpt lat="62.630148478321" lon="17.977959621586">
        <ele>83.8</ele>
        <time>2017-12-04T18:19:20Z</time>
      </trkpt>
      <trkpt lat="62.630145628475" lon="17.977905809788">
        <ele>83.8</ele>
        <time>2017-12-04T18:19:21Z</time>
      </trkpt>
      <trkpt lat="62.630146634303" lon="17.977846298298">
        <ele>83.8</ele>
        <time>2017-12-04T18:19:22Z</time>
      </trkpt>
      <trkpt lat="62.630149065054" lon="17.977786116256">
        <ele>83.6</ele>
        <time>2017-12-04T18:19:23Z</time>
      </trkpt>
      <trkpt lat="62.630150070882" lon="17.977729203155">
        <ele>83.6</ele>
        <time>2017-12-04T18:19:24Z</time>
      </trkpt>
      <trkpt lat="62.630150070882" lon="17.977669440208">
        <ele>83.6</ele>
        <time>2017-12-04T18:19:25Z</time>
      </trkpt>
      <trkpt lat="62.630149903244" lon="17.977608587614">
        <ele>83.6</ele>
        <time>2017-12-04T18:19:26Z</time>
      </trkpt>
      <trkpt lat="62.630152585452" lon="17.97756030787">
        <ele>83.4</ele>
        <time>2017-12-04T18:19:27Z</time>
      </trkpt>
      <trkpt lat="62.630157363135" lon="17.977487804435">
        <ele>83.4</ele>
        <time>2017-12-04T18:19:28Z</time>
      </trkpt>
      <trkpt lat="62.630159710067" lon="17.977429214954">
        <ele>83.4</ele>
        <time>2017-12-04T18:19:29Z</time>
      </trkpt>
      <trkpt lat="62.630162979008" lon="17.977372972405">
        <ele>83.2</ele>
        <time>2017-12-04T18:19:30Z</time>
      </trkpt>
      <trkpt lat="62.630166583225" lon="17.977318322417">
        <ele>83.2</ele>
        <time>2017-12-04T18:19:31Z</time>
      </trkpt>
      <trkpt lat="62.630173624021" lon="17.977252440683">
        <ele>83.2</ele>
        <time>2017-12-04T18:19:32Z</time>
      </trkpt>
      <trkpt lat="62.6301770606" lon="17.977195862858">
        <ele>83.2</ele>
        <time>2017-12-04T18:19:33Z</time>
      </trkpt>
      <trkpt lat="62.630179407532" lon="17.977133417703">
        <ele>83</ele>
        <time>2017-12-04T18:19:34Z</time>
      </trkpt>
      <trkpt lat="62.630182508835" lon="17.977075750231">
        <ele>82.8</ele>
        <time>2017-12-04T18:19:35Z</time>
      </trkpt>
      <trkpt lat="62.630186867423" lon="17.977022776623">
        <ele>82.6</ele>
        <time>2017-12-04T18:19:36Z</time>
      </trkpt>
      <trkpt lat="62.6301938244" lon="17.976957900717">
        <ele>82.6</ele>
        <time>2017-12-04T18:19:37Z</time>
      </trkpt>
      <trkpt lat="62.630197344798" lon="17.976901322892">
        <ele>82.4</ele>
        <time>2017-12-04T18:19:38Z</time>
      </trkpt>
      <trkpt lat="62.630201451929" lon="17.976849019836">
        <ele>82.2</ele>
        <time>2017-12-04T18:19:39Z</time>
      </trkpt>
      <trkpt lat="62.630208241268" lon="17.976777857505">
        <ele>82</ele>
        <time>2017-12-04T18:19:40Z</time>
      </trkpt>
      <trkpt lat="62.630213605684" lon="17.976718346015">
        <ele>82</ele>
        <time>2017-12-04T18:19:41Z</time>
      </trkpt>
      <trkpt lat="62.63021980829" lon="17.976659002163">
        <ele>81.8</ele>
        <time>2017-12-04T18:19:42Z</time>
      </trkpt>
      <trkpt lat="62.63022651381" lon="17.97660141851">
        <ele>81.6</ele>
        <time>2017-12-04T18:19:43Z</time>
      </trkpt>
      <trkpt lat="62.63023238114" lon="17.976546433246">
        <ele>81.6</ele>
        <time>2017-12-04T18:19:44Z</time>
      </trkpt>
      <trkpt lat="62.630240679221" lon="17.976491950896">
        <ele>81.4</ele>
        <time>2017-12-04T18:19:45Z</time>
      </trkpt>
      <trkpt lat="62.630250066949" lon="17.976434199605">
        <ele>81.4</ele>
        <time>2017-12-04T18:19:46Z</time>
      </trkpt>
      <trkpt lat="62.630260544324" lon="17.976371922088">
        <ele>81.4</ele>
        <time>2017-12-04T18:19:47Z</time>
      </trkpt>
      <trkpt lat="62.630269345319" lon="17.976312829693">
        <ele>81.2</ele>
        <time>2017-12-04T18:19:48Z</time>
      </trkpt>
      <trkpt lat="62.630279906513" lon="17.976257425334">
        <ele>81</ele>
        <time>2017-12-04T18:19:49Z</time>
      </trkpt>
      <trkpt lat="62.630290467707" lon="17.976202104794">
        <ele>81</ele>
        <time>2017-12-04T18:19:50Z</time>
      </trkpt>
      <trkpt lat="62.630300023073" lon="17.976145191693">
        <ele>81.2</ele>
        <time>2017-12-04T18:19:51Z</time>
      </trkpt>
      <trkpt lat="62.630309578439" lon="17.976097414863">
        <ele>81</ele>
        <time>2017-12-04T18:19:52Z</time>
      </trkpt>
      <trkpt lat="62.630322151289" lon="17.976045027988">
        <ele>81</ele>
        <time>2017-12-04T18:19:53Z</time>
      </trkpt>
      <trkpt lat="62.63033547851" lon="17.975992557294">
        <ele>81</ele>
        <time>2017-12-04T18:19:54Z</time>
      </trkpt>
      <trkpt lat="62.630348554274" lon="17.975942265894">
        <ele>81</ele>
        <time>2017-12-04T18:19:55Z</time>
      </trkpt>
      <trkpt lat="62.6303614624" lon="17.975893818512">
        <ele>80.8</ele>
        <time>2017-12-04T18:19:56Z</time>
      </trkpt>
      <trkpt lat="62.630374202888" lon="17.975848640071">
        <ele>80.8</ele>
        <time>2017-12-04T18:19:57Z</time>
      </trkpt>
      <trkpt lat="62.630389877041" lon="17.975790721142">
        <ele>80.6</ele>
        <time>2017-12-04T18:19:58Z</time>
      </trkpt>
      <trkpt lat="62.630403790995" lon="17.975740094466">
        <ele>80.4</ele>
        <time>2017-12-04T18:19:59Z</time>
      </trkpt>
      <trkpt lat="62.630417453492" lon="17.975689719247">
        <ele>80.4</ele>
        <time>2017-12-04T18:20:00Z</time>
      </trkpt>
      <trkpt lat="62.630428182324" lon="17.975644373168">
        <ele>80.2</ele>
        <time>2017-12-04T18:20:01Z</time>
      </trkpt>
      <trkpt lat="62.630442347735" lon="17.975590226094">
        <ele>80</ele>
        <time>2017-12-04T18:20:02Z</time>
      </trkpt>
      <trkpt lat="62.630452908929" lon="17.975548232775">
        <ele>80</ele>
        <time>2017-12-04T18:20:03Z</time>
      </trkpt>
      <trkpt lat="62.630467493435" lon="17.975491068217">
        <ele>79.8</ele>
        <time>2017-12-04T18:20:04Z</time>
      </trkpt>
      <trkpt lat="62.630480066285" lon="17.975445135405">
        <ele>79.8</ele>
        <time>2017-12-04T18:20:05Z</time>
      </trkpt>
      <trkpt lat="62.630493225868" lon="17.975399370231">
        <ele>80</ele>
        <time>2017-12-04T18:20:06Z</time>
      </trkpt>
      <trkpt lat="62.630507810374" lon="17.975345558433">
        <ele>79.8</ele>
        <time>2017-12-04T18:20:07Z</time>
      </trkpt>
      <trkpt lat="62.630521891966" lon="17.975296859594">
        <ele>79.8</ele>
        <time>2017-12-04T18:20:08Z</time>
      </trkpt>
      <trkpt lat="62.630534883911" lon="17.975248496031">
        <ele>79.6</ele>
        <time>2017-12-04T18:20:09Z</time>
      </trkpt>
      <trkpt lat="62.630549133141" lon="17.975188816903">
        <ele>79.4</ele>
        <time>2017-12-04T18:20:10Z</time>
      </trkpt>
      <trkpt lat="62.630561622172" lon="17.975136681485">
        <ele>79.4</ele>
        <time>2017-12-04T18:20:11Z</time>
      </trkpt>
      <trkpt lat="62.630573692108" lon="17.9750851328">
        <ele>79.4</ele>
        <time>2017-12-04T18:20:12Z</time>
      </trkpt>
      <trkpt lat="62.630586767872" lon="17.975029057889">
        <ele>79.2</ele>
        <time>2017-12-04T18:20:13Z</time>
      </trkpt>
      <trkpt lat="62.630600765645" lon="17.974973402073">
        <ele>79.2</ele>
        <time>2017-12-04T18:20:14Z</time>
      </trkpt>
      <trkpt lat="62.630613589952" lon="17.974924451777">
        <ele>79</ele>
        <time>2017-12-04T18:20:15Z</time>
      </trkpt>
      <trkpt lat="62.630625743707" lon="17.974866281391">
        <ele>79</ele>
        <time>2017-12-04T18:20:16Z</time>
      </trkpt>
      <trkpt lat="62.630636891634" lon="17.974808865376">
        <ele>79</ele>
        <time>2017-12-04T18:20:17Z</time>
      </trkpt>
      <trkpt lat="62.630651308502" lon="17.974759160709">
        <ele>78.8</ele>
        <time>2017-12-04T18:20:18Z</time>
      </trkpt>
      <trkpt lat="62.630668826673" lon="17.974707360567">
        <ele>78.8</ele>
        <time>2017-12-04T18:20:19Z</time>
      </trkpt>
      <trkpt lat="62.630682908265" lon="17.974659080823">
        <ele>78.4</ele>
        <time>2017-12-04T18:20:20Z</time>
      </trkpt>
      <trkpt lat="62.630695313477" lon="17.974609376156">
        <ele>78.4</ele>
        <time>2017-12-04T18:20:21Z</time>
      </trkpt>
      <trkpt lat="62.63071098763" lon="17.974564030077">
        <ele>78.2</ele>
        <time>2017-12-04T18:20:22Z</time>
      </trkpt>
      <trkpt lat="62.630724231032" lon="17.974521366206">
        <ele>78.2</ele>
        <time>2017-12-04T18:20:23Z</time>
      </trkpt>
      <trkpt lat="62.630737390615" lon="17.974475265756">
        <ele>78.2</ele>
        <time>2017-12-04T18:20:24Z</time>
      </trkpt>
      <trkpt lat="62.63075038256" lon="17.974429332944">
        <ele>78.2</ele>
        <time>2017-12-04T18:20:25Z</time>
      </trkpt>
      <trkpt lat="62.63076211722" lon="17.974386249978">
        <ele>78.2</ele>
        <time>2017-12-04T18:20:26Z</time>
      </trkpt>
      <trkpt lat="62.630774354794" lon="17.974340065709">
        <ele>78.2</ele>
        <time>2017-12-04T18:20:27Z</time>
      </trkpt>
      <trkpt lat="62.63078726292" lon="17.974292875612">
        <ele>78.2</ele>
        <time>2017-12-04T18:20:28Z</time>
      </trkpt>
      <trkpt lat="62.630799919589" lon="17.974244931144">
        <ele>78.2</ele>
        <time>2017-12-04T18:20:29Z</time>
      </trkpt>
      <trkpt lat="62.630812660077" lon="17.974197154314">
        <ele>78.2</ele>
        <time>2017-12-04T18:20:30Z</time>
      </trkpt>
      <trkpt lat="62.63082665785" lon="17.974148371656">
        <ele>78.2</ele>
        <time>2017-12-04T18:20:31Z</time>
      </trkpt>
      <trkpt lat="62.63083671613" lon="17.974107300346">
        <ele>78.2</ele>
        <time>2017-12-04T18:20:32Z</time>
      </trkpt>
      <trkpt lat="62.630848283152" lon="17.974059523516">
        <ele>78.2</ele>
        <time>2017-12-04T18:20:33Z</time>
      </trkpt>
      <trkpt lat="62.630863622029" lon="17.974003280967">
        <ele>78.2</ele>
        <time>2017-12-04T18:20:34Z</time>
      </trkpt>
      <trkpt lat="62.630876027241" lon="17.973958521621">
        <ele>78.4</ele>
        <time>2017-12-04T18:20:35Z</time>
      </trkpt>
      <trkpt lat="62.630888600091" lon="17.973915438655">
        <ele>78.4</ele>
        <time>2017-12-04T18:20:36Z</time>
      </trkpt>
      <trkpt lat="62.630892539584" lon="17.973875792268">
        <ele>78.2</ele>
        <time>2017-12-04T18:20:37Z</time>
      </trkpt>
      <trkpt lat="62.630888432453" lon="17.973832122569">
        <ele>78</ele>
        <time>2017-12-04T18:20:38Z</time>
      </trkpt>
      <trkpt lat="62.630880553467" lon="17.973786273576">
        <ele>78</ele>
        <time>2017-12-04T18:20:39Z</time>
      </trkpt>
      <trkpt lat="62.630865046952" lon="17.973745956637">
        <ele>77.8</ele>
        <time>2017-12-04T18:20:40Z</time>
      </trkpt>
      <trkpt lat="62.630854821034" lon="17.973706813164">
        <ele>77.6</ele>
        <time>2017-12-04T18:20:41Z</time>
      </trkpt>
      <trkpt lat="62.630836213216" lon="17.973650905891">
        <ele>77.4</ele>
        <time>2017-12-04T18:20:42Z</time>
      </trkpt>
      <trkpt lat="62.630820371425" lon="17.973609247848">
        <ele>77.4</ele>
        <time>2017-12-04T18:20:43Z</time>
      </trkpt>
      <trkpt lat="62.630805619281" lon="17.973567589805">
        <ele>77.4</ele>
        <time>2017-12-04T18:20:44Z</time>
      </trkpt>
      <trkpt lat="62.630790699499" lon="17.973522495183">
        <ele>77.4</ele>
        <time>2017-12-04T18:20:45Z</time>
      </trkpt>
      <trkpt lat="62.630778210468" lon="17.97347916076">
        <ele>77.4</ele>
        <time>2017-12-04T18:20:46Z</time>
      </trkpt>
      <trkpt lat="62.630761781944" lon="17.973432976491">
        <ele>77.6</ele>
        <time>2017-12-04T18:20:47Z</time>
      </trkpt>
      <trkpt lat="62.630746359248" lon="17.973382182177">
        <ele>77.4</ele>
        <time>2017-12-04T18:20:48Z</time>
      </trkpt>
      <trkpt lat="62.630730768914" lon="17.973334908261">
        <ele>77.4</ele>
        <time>2017-12-04T18:20:49Z</time>
      </trkpt>
      <trkpt lat="62.6307135022" lon="17.973287131431">
        <ele>77.4</ele>
        <time>2017-12-04T18:20:50Z</time>
      </trkpt>
      <trkpt lat="62.630696654581" lon="17.973237007669">
        <ele>77.4</ele>
        <time>2017-12-04T18:20:51Z</time>
      </trkpt>
      <trkpt lat="62.630682153894" lon="17.973194259979">
        <ele>77.2</ele>
        <time>2017-12-04T18:20:52Z</time>
      </trkpt>
      <trkpt lat="62.63066656356" lon="17.973144974407">
        <ele>77.4</ele>
        <time>2017-12-04T18:20:53Z</time>
      </trkpt>
      <trkpt lat="62.630651057045" lon="17.973098454862">
        <ele>77.2</ele>
        <time>2017-12-04T18:20:54Z</time>
      </trkpt>
      <trkpt lat="62.63063638872" lon="17.973052270593">
        <ele>77.2</ele>
        <time>2017-12-04T18:20:55Z</time>
      </trkpt>
      <trkpt lat="62.63062297768" lon="17.973004996677">
        <ele>77.2</ele>
        <time>2017-12-04T18:20:56Z</time>
      </trkpt>
      <trkpt lat="62.630609734278" lon="17.97296870305">
        <ele>77.2</ele>
        <time>2017-12-04T18:20:57Z</time>
      </trkpt>
      <trkpt lat="62.630593221935" lon="17.972921261496">
        <ele>77</ele>
        <time>2017-12-04T18:20:58Z</time>
      </trkpt>
      <trkpt lat="62.630578469791" lon="17.972871137734">
        <ele>77</ele>
        <time>2017-12-04T18:20:59Z</time>
      </trkpt>
      <trkpt lat="62.630563130914" lon="17.972824282913">
        <ele>76.8</ele>
        <time>2017-12-04T18:21:00Z</time>
      </trkpt>
      <trkpt lat="62.63054754058" lon="17.9727801103">
        <ele>76.8</ele>
        <time>2017-12-04T18:21:01Z</time>
      </trkpt>
      <trkpt lat="62.630529770952" lon="17.972729483624">
        <ele>76.6</ele>
        <time>2017-12-04T18:21:02Z</time>
      </trkpt>
      <trkpt lat="62.630514683532" lon="17.972676845292">
        <ele>76.6</ele>
        <time>2017-12-04T18:21:03Z</time>
      </trkpt>
      <trkpt lat="62.630502362139" lon="17.972632840317">
        <ele>76.4</ele>
        <time>2017-12-04T18:21:04Z</time>
      </trkpt>
      <trkpt lat="62.630490459841" lon="17.972582129822">
        <ele>76.2</ele>
        <time>2017-12-04T18:21:05Z</time>
      </trkpt>
      <trkpt lat="62.630479144276" lon="17.972532508974">
        <ele>76.2</ele>
        <time>2017-12-04T18:21:06Z</time>
      </trkpt>
      <trkpt lat="62.630465062684" lon="17.972489677465">
        <ele>76.2</ele>
        <time>2017-12-04T18:21:07Z</time>
      </trkpt>
      <trkpt lat="62.63045450149" lon="17.972439218427">
        <ele>76.2</ele>
        <time>2017-12-04T18:21:08Z</time>
      </trkpt>
      <trkpt lat="62.630444862305" lon="17.972389010846">
        <ele>76.2</ele>
        <time>2017-12-04T18:21:09Z</time>
      </trkpt>
      <trkpt lat="62.630436312767" lon="17.972334947591">
        <ele>76.2</ele>
        <time>2017-12-04T18:21:10Z</time>
      </trkpt>
      <trkpt lat="62.6304285176" lon="17.972281303431">
        <ele>76.2</ele>
        <time>2017-12-04T18:21:11Z</time>
      </trkpt>
      <trkpt lat="62.630419548967" lon="17.972228665099">
        <ele>76.2</ele>
        <time>2017-12-04T18:21:12Z</time>
      </trkpt>
      <trkpt lat="62.630412089076" lon="17.972167309591">
        <ele>76.2</ele>
        <time>2017-12-04T18:21:13Z</time>
      </trkpt>
      <trkpt lat="62.630404713004" lon="17.972106792273">
        <ele>76.2</ele>
        <time>2017-12-04T18:21:14Z</time>
      </trkpt>
      <trkpt lat="62.630397169294" lon="17.972050465905">
        <ele>76.2</ele>
        <time>2017-12-04T18:21:15Z</time>
      </trkpt>
      <trkpt lat="62.630388703575" lon="17.971989194216">
        <ele>76.2</ele>
        <time>2017-12-04T18:21:16Z</time>
      </trkpt>
      <trkpt lat="62.630380489313" lon="17.971933035486">
        <ele>76.2</ele>
        <time>2017-12-04T18:21:17Z</time>
      </trkpt>
      <trkpt lat="62.630373532336" lon="17.97187067415">
        <ele>76.2</ele>
        <time>2017-12-04T18:21:18Z</time>
      </trkpt>
      <trkpt lat="62.630365737169" lon="17.971812336126">
        <ele>76</ele>
        <time>2017-12-04T18:21:19Z</time>
      </trkpt>
      <trkpt lat="62.630358528735" lon="17.971757099405">
        <ele>76</ele>
        <time>2017-12-04T18:21:20Z</time>
      </trkpt>
      <trkpt lat="62.630351739396" lon="17.971702700874">
        <ele>76</ele>
        <time>2017-12-04T18:21:21Z</time>
      </trkpt>
      <trkpt lat="62.630347464627" lon="17.971646542144">
        <ele>76</ele>
        <time>2017-12-04T18:21:22Z</time>
      </trkpt>
      <trkpt lat="62.630342938401" lon="17.971592814165">
        <ele>76</ele>
        <time>2017-12-04T18:21:23Z</time>
      </trkpt>
      <trkpt lat="62.630336903433" lon="17.971535062874">
        <ele>75.8</ele>
        <time>2017-12-04T18:21:24Z</time>
      </trkpt>
      <trkpt lat="62.630328437714" lon="17.971477982135">
        <ele>76</ele>
        <time>2017-12-04T18:21:25Z</time>
      </trkpt>
      <trkpt lat="62.630319049986" lon="17.971421739586">
        <ele>75.8</ele>
        <time>2017-12-04T18:21:26Z</time>
      </trkpt>
      <trkpt lat="62.630316367778" lon="17.971371699643">
        <ele>75.8</ele>
        <time>2017-12-04T18:21:27Z</time>
      </trkpt>
      <trkpt lat="62.630313937027" lon="17.971309589764">
        <ele>75.6</ele>
        <time>2017-12-04T18:21:28Z</time>
      </trkpt>
      <trkpt lat="62.630309829896" lon="17.971252425206">
        <ele>75.6</ele>
        <time>2017-12-04T18:21:29Z</time>
      </trkpt>
      <trkpt lat="62.630305471308" lon="17.971195595924">
        <ele>75.4</ele>
        <time>2017-12-04T18:21:30Z</time>
      </trkpt>
      <trkpt lat="62.630300945082" lon="17.971140778298">
        <ele>75.4</ele>
        <time>2017-12-04T18:21:31Z</time>
      </trkpt>
      <trkpt lat="62.630300106892" lon="17.971083362283">
        <ele>75.4</ele>
        <time>2017-12-04T18:21:32Z</time>
      </trkpt>
      <trkpt lat="62.630299268702" lon="17.971027874105">
        <ele>75.4</ele>
        <time>2017-12-04T18:21:33Z</time>
      </trkpt>
      <trkpt lat="62.630298179055" lon="17.970985629329">
        <ele>75.4</ele>
        <time>2017-12-04T18:21:34Z</time>
      </trkpt>
      <trkpt lat="62.630298179055" lon="17.970939361241">
        <ele>75.4</ele>
        <time>2017-12-04T18:21:35Z</time>
      </trkpt>
      <trkpt lat="62.630299184883" lon="17.970893763705">
        <ele>75.4</ele>
        <time>2017-12-04T18:21:36Z</time>
      </trkpt>
      <trkpt lat="62.630300945082" lon="17.970862583037">
        <ele>75.2</ele>
        <time>2017-12-04T18:21:37Z</time>
      </trkpt>
      <trkpt lat="62.630305722765" lon="17.970829558351">
        <ele>75.2</ele>
        <time>2017-12-04T18:21:38Z</time>
      </trkpt>
      <trkpt lat="62.630309075525" lon="17.970800054063">
        <ele>75</ele>
        <time>2017-12-04T18:21:39Z</time>
      </trkpt>
      <trkpt lat="62.630311422457" lon="17.970769711585">
        <ele>75</ele>
        <time>2017-12-04T18:21:40Z</time>
      </trkpt>
      <trkpt lat="62.630314020846" lon="17.970749343568">
        <ele>75</ele>
        <time>2017-12-04T18:21:41Z</time>
      </trkpt>
      <trkpt lat="62.630326593696" lon="17.970689329164">
        <ele>74.8</ele>
        <time>2017-12-04T18:21:42Z</time>
      </trkpt>
      <trkpt lat="62.630334556501" lon="17.97064356399">
        <ele>74.6</ele>
        <time>2017-12-04T18:21:43Z</time>
      </trkpt>
      <trkpt lat="62.630346039704" lon="17.97059578716">
        <ele>74.6</ele>
        <time>2017-12-04T18:21:44Z</time>
      </trkpt>
      <trkpt lat="62.630357942002" lon="17.970550608719">
        <ele>74.6</ele>
        <time>2017-12-04T18:21:45Z</time>
      </trkpt>
      <trkpt lat="62.630372526508" lon="17.970507358115">
        <ele>74.6</ele>
        <time>2017-12-04T18:21:46Z</time>
      </trkpt>
      <trkpt lat="62.630394235629" lon="17.970463101683">
        <ele>74.4</ele>
        <time>2017-12-04T18:21:47Z</time>
      </trkpt>
      <trkpt lat="62.630414855103" lon="17.970426221323">
        <ele>74.2</ele>
        <time>2017-12-04T18:21:48Z</time>
      </trkpt>
      <trkpt lat="62.630434804025" lon="17.970390933524">
        <ele>74.2</ele>
        <time>2017-12-04T18:21:49Z</time>
      </trkpt>
      <trkpt lat="62.630455591137" lon="17.970358160295">
        <ele>73.8</ele>
        <time>2017-12-04T18:21:50Z</time>
      </trkpt>
      <trkpt lat="62.630476797344" lon="17.97032840455">
        <ele>73.6</ele>
        <time>2017-12-04T18:21:51Z</time>
      </trkpt>
      <trkpt lat="62.63049808737" lon="17.970311976026">
        <ele>73.2</ele>
        <time>2017-12-04T18:21:52Z</time>
      </trkpt>
      <trkpt lat="62.63051736574" lon="17.970292697656">
        <ele>73.2</ele>
        <time>2017-12-04T18:21:53Z</time>
      </trkpt>
      <trkpt lat="62.630529184219" lon="17.970275850037">
        <ele>73</ele>
        <time>2017-12-04T18:21:54Z</time>
      </trkpt>
      <trkpt lat="62.630527591658" lon="17.970261097893">
        <ele>72.8</ele>
        <time>2017-12-04T18:21:55Z</time>
      </trkpt>
      <trkpt lat="62.630519293577" lon="17.970250201423">
        <ele>72.8</ele>
        <time>2017-12-04T18:21:56Z</time>
      </trkpt>
      <trkpt lat="62.630490376022" lon="17.970240897514">
        <ele>72.6</ele>
        <time>2017-12-04T18:21:57Z</time>
      </trkpt>
      <trkpt lat="62.630472354937" lon="17.970195048521">
        <ele>72.8</ele>
        <time>2017-12-04T18:21:58Z</time>
      </trkpt>
      <trkpt lat="62.630459614449" lon="17.970151881736">
        <ele>72.6</ele>
        <time>2017-12-04T18:21:59Z</time>
      </trkpt>
      <trkpt lat="62.63045031054" lon="17.970105362191">
        <ele>72.6</ele>
        <time>2017-12-04T18:22:00Z</time>
      </trkpt>
      <trkpt lat="62.630442263916" lon="17.970058591189">
        <ele>72.6</ele>
        <time>2017-12-04T18:22:01Z</time>
      </trkpt>
      <trkpt lat="62.630433127645" lon="17.970026153236">
        <ele>72.6</ele>
        <time>2017-12-04T18:22:02Z</time>
      </trkpt>
      <trkpt lat="62.630426925039" lon="17.96999648131">
        <ele>72.6</ele>
        <time>2017-12-04T18:22:03Z</time>
      </trkpt>
      <trkpt lat="62.630422398813" lon="17.969994721111">
        <ele>72.4</ele>
        <time>2017-12-04T18:22:04Z</time>
      </trkpt>
      <trkpt lat="62.630418124044" lon="17.969985081926">
        <ele>72.2</ele>
        <time>2017-12-04T18:22:05Z</time>
      </trkpt>
      <trkpt lat="62.630414436008" lon="17.969975275103">
        <ele>72.2</ele>
        <time>2017-12-04T18:22:06Z</time>
      </trkpt>
      <trkpt lat="62.630415190379" lon="17.969982483537">
        <ele>72</ele>
        <time>2017-12-04T18:22:07Z</time>
      </trkpt>
      <trkpt lat="62.630520131767" lon="17.970223882257">
        <ele>72.6</ele>
        <time>2017-12-04T18:22:50Z</time>
      </trkpt>
      <trkpt lat="62.63053580592" lon="17.970222289696">
        <ele>72.6</ele>
        <time>2017-12-04T18:22:51Z</time>
      </trkpt>
      <trkpt lat="62.630551815349" lon="17.970221451506">
        <ele>72.8</ele>
        <time>2017-12-04T18:22:52Z</time>
      </trkpt>
      <trkpt lat="62.630569668796" lon="17.97022782175">
        <ele>72.8</ele>
        <time>2017-12-04T18:22:53Z</time>
      </trkpt>
      <trkpt lat="62.630588695709" lon="17.970224385171">
        <ele>72.6</ele>
        <time>2017-12-04T18:22:54Z</time>
      </trkpt>
      <trkpt lat="62.630608141717" lon="17.970217931108">
        <ele>72.6</ele>
        <time>2017-12-04T18:22:55Z</time>
      </trkpt>
      <trkpt lat="62.630623480594" lon="17.970208459561">
        <ele>72.6</ele>
        <time>2017-12-04T18:22:56Z</time>
      </trkpt>
      <trkpt lat="62.630641501679" lon="17.970198652738">
        <ele>72.6</ele>
        <time>2017-12-04T18:22:57Z</time>
      </trkpt>
      <trkpt lat="62.630662288791" lon="17.970192282494">
        <ele>72.6</ele>
        <time>2017-12-04T18:22:58Z</time>
      </trkpt>
      <trkpt lat="62.630683662636" lon="17.970187085716">
        <ele>72.4</ele>
        <time>2017-12-04T18:22:59Z</time>
      </trkpt>
      <trkpt lat="62.630701348445" lon="17.970186163707">
        <ele>72.4</ele>
        <time>2017-12-04T18:23:00Z</time>
      </trkpt>
      <trkpt lat="62.630721632643" lon="17.970183565318">
        <ele>72.2</ele>
        <time>2017-12-04T18:23:01Z</time>
      </trkpt>
      <trkpt lat="62.630736468606" lon="17.970167304432">
        <ele>72</ele>
        <time>2017-12-04T18:23:02Z</time>
      </trkpt>
      <trkpt lat="62.630755663157" lon="17.970163113482">
        <ele>72</ele>
        <time>2017-12-04T18:23:03Z</time>
      </trkpt>
      <trkpt lat="62.630771169672" lon="17.970153725754">
        <ele>71.8</ele>
        <time>2017-12-04T18:23:04Z</time>
      </trkpt>
      <trkpt lat="62.630790531861" lon="17.97014148818">
        <ele>71.4</ele>
        <time>2017-12-04T18:23:05Z</time>
      </trkpt>
      <trkpt lat="62.630811067516" lon="17.970141320542">
        <ele>71.4</ele>
        <time>2017-12-04T18:23:06Z</time>
      </trkpt>
      <trkpt lat="62.630825232927" lon="17.970136291402">
        <ele>71.2</ele>
        <time>2017-12-04T18:23:07Z</time>
      </trkpt>
      <trkpt lat="62.630841242356" lon="17.970132184271">
        <ele>71.2</ele>
        <time>2017-12-04T18:23:08Z</time>
      </trkpt>
      <trkpt lat="62.630852390283" lon="17.970134950298">
        <ele>71.4</ele>
        <time>2017-12-04T18:23:09Z</time>
      </trkpt>
      <trkpt lat="62.630863370572" lon="17.970141236723">
        <ele>71.4</ele>
        <time>2017-12-04T18:23:10Z</time>
      </trkpt>
      <trkpt lat="62.630871501015" lon="17.970158922532">
        <ele>71.4</ele>
        <time>2017-12-04T18:23:11Z</time>
      </trkpt>
      <trkpt lat="62.630879631458" lon="17.970163700215">
        <ele>71.4</ele>
        <time>2017-12-04T18:23:12Z</time>
      </trkpt>
      <trkpt lat="62.630878541811" lon="17.970147942243">
        <ele>71.4</ele>
        <time>2017-12-04T18:23:13Z</time>
      </trkpt>
      <trkpt lat="62.630873177395" lon="17.970160095998">
        <ele>71.4</ele>
        <time>2017-12-04T18:23:14Z</time>
      </trkpt>
      <trkpt lat="62.631120694902" lon="17.969999750251">
        <ele>71.2</ele>
        <time>2017-12-04T18:24:59Z</time>
      </trkpt>
      <trkpt lat="62.631152797579" lon="17.969981896804">
        <ele>71.2</ele>
        <time>2017-12-04T18:25:00Z</time>
      </trkpt>
      <trkpt lat="62.631175596347" lon="17.969968485764">
        <ele>71.2</ele>
        <time>2017-12-04T18:25:02Z</time>
      </trkpt>
      <trkpt lat="62.631218763132" lon="17.969946022272">
        <ele>71.2</ele>
        <time>2017-12-04T18:25:03Z</time>
      </trkpt>
      <trkpt lat="62.631264779763" lon="17.969923055866">
        <ele>71.2</ele>
        <time>2017-12-04T18:25:04Z</time>
      </trkpt>
      <trkpt lat="62.631262432831" lon="17.969919870744">
        <ele>71</ele>
        <time>2017-12-04T18:25:05Z</time>
      </trkpt>
      <trkpt lat="62.631310796394" lon="17.969899838003">
        <ele>71</ele>
        <time>2017-12-04T18:25:06Z</time>
      </trkpt>
      <trkpt lat="62.631355891016" lon="17.969872680647">
        <ele>70.6</ele>
        <time>2017-12-04T18:25:07Z</time>
      </trkpt>
      <trkpt lat="62.631389586254" lon="17.969853569915">
        <ele>70.4</ele>
        <time>2017-12-04T18:25:08Z</time>
      </trkpt>
      <trkpt lat="62.631422108026" lon="17.969836303201">
        <ele>70.4</ele>
        <time>2017-12-04T18:25:09Z</time>
      </trkpt>
      <trkpt lat="62.631452031409" lon="17.969818365935">
        <ele>70.6</ele>
        <time>2017-12-04T18:25:10Z</time>
      </trkpt>
      <trkpt lat="62.631482625344" lon="17.96980034485">
        <ele>70.6</ele>
        <time>2017-12-04T18:25:11Z</time>
      </trkpt>
      <trkpt lat="62.631514979478" lon="17.969779641557">
        <ele>70.4</ele>
        <time>2017-12-04T18:25:12Z</time>
      </trkpt>
      <trkpt lat="62.631546495422" lon="17.969758100074">
        <ele>70.2</ele>
        <time>2017-12-04T18:25:13Z</time>
      </trkpt>
      <trkpt lat="62.631578598099" lon="17.969737396781">
        <ele>70</ele>
        <time>2017-12-04T18:25:14Z</time>
      </trkpt>
      <trkpt lat="62.631606593645" lon="17.969722728456">
        <ele>69.8</ele>
        <time>2017-12-04T18:25:15Z</time>
      </trkpt>
      <trkpt lat="62.631638361046" lon="17.96969305653">
        <ele>69.6</ele>
        <time>2017-12-04T18:25:16Z</time>
      </trkpt>
      <trkpt lat="62.63166987699" lon="17.969654835066">
        <ele>69.8</ele>
        <time>2017-12-04T18:25:17Z</time>
      </trkpt>
      <trkpt lat="62.631698207812" lon="17.96962264857">
        <ele>69.8</ele>
        <time>2017-12-04T18:25:18Z</time>
      </trkpt>
      <trkpt lat="62.631727376824" lon="17.969587947504">
        <ele>69.8</ele>
        <time>2017-12-04T18:25:19Z</time>
      </trkpt>
      <trkpt lat="62.631757216388" lon="17.969555677189">
        <ele>69.6</ele>
        <time>2017-12-04T18:25:20Z</time>
      </trkpt>
      <trkpt lat="62.631788313237" lon="17.96952625672">
        <ele>69.6</ele>
        <time>2017-12-04T18:25:21Z</time>
      </trkpt>
      <trkpt lat="62.631814632403" lon="17.969518461553">
        <ele>69.4</ele>
        <time>2017-12-04T18:25:22Z</time>
      </trkpt>
      <trkpt lat="62.631843633777" lon="17.969515695526">
        <ele>69.4</ele>
        <time>2017-12-04T18:25:23Z</time>
      </trkpt>
      <trkpt lat="62.631871629323" lon="17.96951787482">
        <ele>69</ele>
        <time>2017-12-04T18:25:24Z</time>
      </trkpt>
      <trkpt lat="62.631901133611" lon="17.96951787482">
        <ele>68.8</ele>
        <time>2017-12-04T18:25:25Z</time>
      </trkpt>
      <trkpt lat="62.631930889356" lon="17.969517707182">
        <ele>68.8</ele>
        <time>2017-12-04T18:25:26Z</time>
      </trkpt>
      <trkpt lat="62.631953352848" lon="17.969513432413">
        <ele>69</ele>
        <time>2017-12-04T18:25:27Z</time>
      </trkpt>
      <trkpt lat="62.631988305371" lon="17.969506223979">
        <ele>69</ele>
        <time>2017-12-04T18:25:28Z</time>
      </trkpt>
      <trkpt lat="62.632015546546" lon="17.969504882875">
        <ele>69</ele>
        <time>2017-12-04T18:25:29Z</time>
      </trkpt>
      <trkpt lat="62.63204706249" lon="17.969504296142">
        <ele>69.4</ele>
        <time>2017-12-04T18:25:30Z</time>
      </trkpt>
      <trkpt lat="62.632076818235" lon="17.969504379961">
        <ele>69.4</ele>
        <time>2017-12-04T18:25:31Z</time>
      </trkpt>
      <trkpt lat="62.632106490161" lon="17.969492058568">
        <ele>69.4</ele>
        <time>2017-12-04T18:25:32Z</time>
      </trkpt>
      <trkpt lat="62.63213758701" lon="17.969478060795">
        <ele>69.4</ele>
        <time>2017-12-04T18:25:33Z</time>
      </trkpt>
      <trkpt lat="62.632168264764" lon="17.969462721918">
        <ele>69.4</ele>
        <time>2017-12-04T18:25:34Z</time>
      </trkpt>
      <trkpt lat="62.632199445432" lon="17.969458111873">
        <ele>69.6</ele>
        <time>2017-12-04T18:25:35Z</time>
      </trkpt>
      <trkpt lat="62.632228362987" lon="17.969457441321">
        <ele>69.6</ele>
        <time>2017-12-04T18:25:36Z</time>
      </trkpt>
      <trkpt lat="62.632259040741" lon="17.96944579048">
        <ele>69.6</ele>
        <time>2017-12-04T18:25:37Z</time>
      </trkpt>
      <trkpt lat="62.632290891961" lon="17.969441934806">
        <ele>69.6</ele>
        <time>2017-12-04T18:25:38Z</time>
      </trkpt>
      <trkpt lat="62.632320647706" lon="17.969438414408">
        <ele>69.6</ele>
        <time>2017-12-04T18:25:39Z</time>
      </trkpt>
      <trkpt lat="62.632351576917" lon="17.969435648381">
        <ele>69.8</ele>
        <time>2017-12-04T18:25:40Z</time>
      </trkpt>
      <trkpt lat="62.632378818092" lon="17.969432714716">
        <ele>69.8</ele>
        <time>2017-12-04T18:25:41Z</time>
      </trkpt>
      <trkpt lat="62.632411339864" lon="17.969427937033">
        <ele>69.6</ele>
        <time>2017-12-04T18:25:42Z</time>
      </trkpt>
      <trkpt lat="62.632442436713" lon="17.969424165178">
        <ele>69.6</ele>
        <time>2017-12-04T18:25:43Z</time>
      </trkpt>
      <trkpt lat="62.632471689544" lon="17.969426009196">
        <ele>69.6</ele>
        <time>2017-12-04T18:25:44Z</time>
      </trkpt>
      <trkpt lat="62.632501529108" lon="17.969431457431">
        <ele>69.6</ele>
        <time>2017-12-04T18:25:45Z</time>
      </trkpt>
      <trkpt lat="62.63252985993" lon="17.969437660037">
        <ele>69.8</ele>
        <time>2017-12-04T18:25:46Z</time>
      </trkpt>
      <trkpt lat="62.632560956779" lon="17.969446041937">
        <ele>69.8</ele>
        <time>2017-12-04T18:25:47Z</time>
      </trkpt>
      <trkpt lat="62.632588784687" lon="17.96945333419">
        <ele>69.6</ele>
        <time>2017-12-04T18:25:48Z</time>
      </trkpt>
      <trkpt lat="62.63261703169" lon="17.969460710262">
        <ele>69.6</ele>
        <time>2017-12-04T18:25:49Z</time>
      </trkpt>
      <trkpt lat="62.632645613969" lon="17.969466829049">
        <ele>69.6</ele>
        <time>2017-12-04T18:25:50Z</time>
      </trkpt>
      <trkpt lat="62.632673106601" lon="17.969472528741">
        <ele>69.8</ele>
        <time>2017-12-04T18:25:51Z</time>
      </trkpt>
      <trkpt lat="62.632701018328" lon="17.96948015627">
        <ele>69.8</ele>
        <time>2017-12-04T18:25:52Z</time>
      </trkpt>
      <trkpt lat="62.632728175684" lon="17.969482922297">
        <ele>69.8</ele>
        <time>2017-12-04T18:25:53Z</time>
      </trkpt>
      <trkpt lat="62.632755919773" lon="17.969486777971">
        <ele>69.8</ele>
        <time>2017-12-04T18:25:54Z</time>
      </trkpt>
      <trkpt lat="62.632783747681" lon="17.969490968921">
        <ele>70</ele>
        <time>2017-12-04T18:25:55Z</time>
      </trkpt>
      <trkpt lat="62.632809312476" lon="17.969494908414">
        <ele>70.2</ele>
        <time>2017-12-04T18:25:56Z</time>
      </trkpt>
      <trkpt lat="62.632837224203" lon="17.969500189011">
        <ele>70.2</ele>
        <time>2017-12-04T18:25:57Z</time>
      </trkpt>
      <trkpt lat="62.632865555025" lon="17.969505050513">
        <ele>70.2</ele>
        <time>2017-12-04T18:25:58Z</time>
      </trkpt>
      <trkpt lat="62.632892544743" lon="17.969510498748">
        <ele>70.4</ele>
        <time>2017-12-04T18:25:59Z</time>
      </trkpt>
      <trkpt lat="62.632922049031" lon="17.96951703663">
        <ele>70.4</ele>
        <time>2017-12-04T18:26:00Z</time>
      </trkpt>
      <trkpt lat="62.632947781464" lon="17.969521814313">
        <ele>70.4</ele>
        <time>2017-12-04T18:26:01Z</time>
      </trkpt>
      <trkpt lat="62.632977704847" lon="17.969524747978">
        <ele>70.4</ele>
        <time>2017-12-04T18:26:02Z</time>
      </trkpt>
      <trkpt lat="62.633002431452" lon="17.969529944756">
        <ele>70.4</ele>
        <time>2017-12-04T18:26:03Z</time>
      </trkpt>
      <trkpt lat="62.63303445031" lon="17.969539919217">
        <ele>70.4</ele>
        <time>2017-12-04T18:26:04Z</time>
      </trkpt>
      <trkpt lat="62.633062697313" lon="17.969548804031">
        <ele>70.6</ele>
        <time>2017-12-04T18:26:05Z</time>
      </trkpt>
      <trkpt lat="62.633089184117" lon="17.969555258094">
        <ele>70.6</ele>
        <time>2017-12-04T18:26:06Z</time>
      </trkpt>
      <trkpt lat="62.633119861871" lon="17.969562885623">
        <ele>70.8</ele>
        <time>2017-12-04T18:26:07Z</time>
      </trkpt>
      <trkpt lat="62.633146600132" lon="17.969567076573">
        <ele>70.8</ele>
        <time>2017-12-04T18:26:08Z</time>
      </trkpt>
      <trkpt lat="62.633172919298" lon="17.96957403355">
        <ele>70.8</ele>
        <time>2017-12-04T18:26:09Z</time>
      </trkpt>
      <trkpt lat="62.633202255948" lon="17.969582080174">
        <ele>70.8</ele>
        <time>2017-12-04T18:26:10Z</time>
      </trkpt>
      <trkpt lat="62.633228239838" lon="17.96959163554">
        <ele>70.8</ele>
        <time>2017-12-04T18:26:11Z</time>
      </trkpt>
      <trkpt lat="62.633259252868" lon="17.969606052408">
        <ele>70.8</ele>
        <time>2017-12-04T18:26:12Z</time>
      </trkpt>
      <trkpt lat="62.633285655853" lon="17.969619044353">
        <ele>70.6</ele>
        <time>2017-12-04T18:26:13Z</time>
      </trkpt>
      <trkpt lat="62.633310550096" lon="17.969637484533">
        <ele>70.6</ele>
        <time>2017-12-04T18:26:14Z</time>
      </trkpt>
      <trkpt lat="62.633334689968" lon="17.969664641889">
        <ele>70.6</ele>
        <time>2017-12-04T18:26:15Z</time>
      </trkpt>
      <trkpt lat="62.633356231451" lon="17.969692553616">
        <ele>70.4</ele>
        <time>2017-12-04T18:26:16Z</time>
      </trkpt>
      <trkpt lat="62.633369223396" lon="17.969760698463">
        <ele>70.6</ele>
        <time>2017-12-04T18:26:17Z</time>
      </trkpt>
      <trkpt lat="62.633376348011" lon="17.969813923528">
        <ele>70.8</ele>
        <time>2017-12-04T18:26:18Z</time>
      </trkpt>
      <trkpt lat="62.633379365495" lon="17.96986991462">
        <ele>71</ele>
        <time>2017-12-04T18:26:19Z</time>
      </trkpt>
      <trkpt lat="62.633380119866" lon="17.969926408626">
        <ele>71.4</ele>
        <time>2017-12-04T18:26:20Z</time>
      </trkpt>
      <trkpt lat="62.633380371323" lon="17.969980220424">
        <ele>71.4</ele>
        <time>2017-12-04T18:26:21Z</time>
      </trkpt>
      <trkpt lat="62.633381880065" lon="17.970038893724">
        <ele>71.6</ele>
        <time>2017-12-04T18:26:22Z</time>
      </trkpt>
      <trkpt lat="62.633384226997" lon="17.970096645015">
        <ele>71.8</ele>
        <time>2017-12-04T18:26:23Z</time>
      </trkpt>
      <trkpt lat="62.633385400463" lon="17.970155234496">
        <ele>72</ele>
        <time>2017-12-04T18:26:24Z</time>
      </trkpt>
      <trkpt lat="62.633387160662" lon="17.970213656339">
        <ele>72</ele>
        <time>2017-12-04T18:26:25Z</time>
      </trkpt>
      <trkpt lat="62.633388753223" lon="17.970269060698">
        <ele>72.2</ele>
        <time>2017-12-04T18:26:26Z</time>
      </trkpt>
      <trkpt lat="62.633390178146" lon="17.970327147265">
        <ele>72.2</ele>
        <time>2017-12-04T18:26:27Z</time>
      </trkpt>
      <trkpt lat="62.63339319563" lon="17.970388586592">
        <ele>72.4</ele>
        <time>2017-12-04T18:26:28Z</time>
      </trkpt>
      <trkpt lat="62.633395458743" lon="17.970444242408">
        <ele>72.6</ele>
        <time>2017-12-04T18:26:29Z</time>
      </trkpt>
      <trkpt lat="62.633397805675" lon="17.970502664251">
        <ele>72.6</ele>
        <time>2017-12-04T18:26:30Z</time>
      </trkpt>
      <trkpt lat="62.63339990115" lon="17.970553710022">
        <ele>72.8</ele>
        <time>2017-12-04T18:26:31Z</time>
      </trkpt>
      <trkpt lat="62.633401745168" lon="17.97061087458">
        <ele>73</ele>
        <time>2017-12-04T18:26:32Z</time>
      </trkpt>
      <trkpt lat="62.633402331901" lon="17.970661333618">
        <ele>73</ele>
        <time>2017-12-04T18:26:33Z</time>
      </trkpt>
      <trkpt lat="62.633404762652" lon="17.970715145416">
        <ele>73.2</ele>
        <time>2017-12-04T18:26:34Z</time>
      </trkpt>
      <trkpt lat="62.633405936118" lon="17.970768873395">
        <ele>73.4</ele>
        <time>2017-12-04T18:26:35Z</time>
      </trkpt>
      <trkpt lat="62.633408366869" lon="17.970820505899">
        <ele>73.4</ele>
        <time>2017-12-04T18:26:36Z</time>
      </trkpt>
      <trkpt lat="62.633409288878" lon="17.97088077176">
        <ele>73.6</ele>
        <time>2017-12-04T18:26:37Z</time>
      </trkpt>
      <trkpt lat="62.633412054905" lon="17.970938439232">
        <ele>73.8</ele>
        <time>2017-12-04T18:26:38Z</time>
      </trkpt>
      <trkpt lat="62.633414485656" lon="17.970991831935">
        <ele>73.8</ele>
        <time>2017-12-04T18:26:39Z</time>
      </trkpt>
      <trkpt lat="62.633415323846" lon="17.971050169959">
        <ele>74</ele>
        <time>2017-12-04T18:26:40Z</time>
      </trkpt>
      <trkpt lat="62.633414737113" lon="17.971101131911">
        <ele>74</ele>
        <time>2017-12-04T18:26:41Z</time>
      </trkpt>
      <trkpt lat="62.633415994398" lon="17.971162738876">
        <ele>74.2</ele>
        <time>2017-12-04T18:26:42Z</time>
      </trkpt>
      <trkpt lat="62.63341498857" lon="17.971218981425">
        <ele>74.2</ele>
        <time>2017-12-04T18:26:43Z</time>
      </trkpt>
      <trkpt lat="62.633412976914" lon="17.971271871214">
        <ele>74.4</ele>
        <time>2017-12-04T18:26:44Z</time>
      </trkpt>
      <trkpt lat="62.633410881439" lon="17.9713300416">
        <ele>74.4</ele>
        <time>2017-12-04T18:26:45Z</time>
      </trkpt>
      <trkpt lat="62.633408785964" lon="17.971383350484">
        <ele>74.6</ele>
        <time>2017-12-04T18:26:46Z</time>
      </trkpt>
      <trkpt lat="62.633408366869" lon="17.971440598861">
        <ele>74.6</ele>
        <time>2017-12-04T18:26:47Z</time>
      </trkpt>
      <trkpt lat="62.633406271394" lon="17.971495248849">
        <ele>74.6</ele>
        <time>2017-12-04T18:26:48Z</time>
      </trkpt>
      <trkpt lat="62.633403840643" lon="17.971554425063">
        <ele>74.8</ele>
        <time>2017-12-04T18:26:49Z</time>
      </trkpt>
      <trkpt lat="62.633400655521" lon="17.971612846906">
        <ele>74.8</ele>
        <time>2017-12-04T18:26:50Z</time>
      </trkpt>
      <trkpt lat="62.633396967485" lon="17.97166699398">
        <ele>75</ele>
        <time>2017-12-04T18:26:51Z</time>
      </trkpt>
      <trkpt lat="62.633399482055" lon="17.971728349488">
        <ele>75</ele>
        <time>2017-12-04T18:26:52Z</time>
      </trkpt>
      <trkpt lat="62.633396883666" lon="17.971781323096">
        <ele>75.2</ele>
        <time>2017-12-04T18:26:53Z</time>
      </trkpt>
      <trkpt lat="62.633393111811" lon="17.971830943944">
        <ele>75.2</ele>
        <time>2017-12-04T18:26:54Z</time>
      </trkpt>
      <trkpt lat="62.633388250309" lon="17.971882241172">
        <ele>75.2</ele>
        <time>2017-12-04T18:26:55Z</time>
      </trkpt>
      <trkpt lat="62.633381796246" lon="17.971931107649">
        <ele>75.4</ele>
        <time>2017-12-04T18:26:56Z</time>
      </trkpt>
      <trkpt lat="62.63337978459" lon="17.971974525891">
        <ele>75.4</ele>
        <time>2017-12-04T18:26:57Z</time>
      </trkpt>
      <trkpt lat="62.633369977767" lon="17.972033702105">
        <ele>75.6</ele>
        <time>2017-12-04T18:26:58Z</time>
      </trkpt>
      <trkpt lat="62.633362014962" lon="17.97208273622">
        <ele>75.6</ele>
        <time>2017-12-04T18:26:59Z</time>
      </trkpt>
      <trkpt lat="62.633353549243" lon="17.972139230226">
        <ele>75.8</ele>
        <time>2017-12-04T18:27:00Z</time>
      </trkpt>
      <trkpt lat="62.633344077696" lon="17.972188096703">
        <ele>75.8</ele>
        <time>2017-12-04T18:27:01Z</time>
      </trkpt>
      <trkpt lat="62.633339802927" lon="17.972245177442">
        <ele>75.8</ele>
        <time>2017-12-04T18:27:02Z</time>
      </trkpt>
      <trkpt lat="62.633330918113" lon="17.972297396679">
        <ele>76</ele>
        <time>2017-12-04T18:27:03Z</time>
      </trkpt>
      <trkpt lat="62.633326224249" lon="17.972346933708">
        <ele>76.2</ele>
        <time>2017-12-04T18:27:04Z</time>
      </trkpt>
      <trkpt lat="62.633319267272" lon="17.972398985307">
        <ele>76.2</ele>
        <time>2017-12-04T18:27:05Z</time>
      </trkpt>
      <trkpt lat="62.633309795725" lon="17.972447097413">
        <ele>76.2</ele>
        <time>2017-12-04T18:27:06Z</time>
      </trkpt>
      <trkpt lat="62.633305353318" lon="17.972500238659">
        <ele>76.4</ele>
        <time>2017-12-04T18:27:07Z</time>
      </trkpt>
      <trkpt lat="62.633296636142" lon="17.972552876991">
        <ele>76.4</ele>
        <time>2017-12-04T18:27:08Z</time>
      </trkpt>
      <trkpt lat="62.633287248414" lon="17.972602078744">
        <ele>76.4</ele>
        <time>2017-12-04T18:27:09Z</time>
      </trkpt>
      <trkpt lat="62.633274675564" lon="17.972652956877">
        <ele>76.6</ele>
        <time>2017-12-04T18:27:10Z</time>
      </trkpt>
      <trkpt lat="62.633263611456" lon="17.97269545311">
        <ele>76.6</ele>
        <time>2017-12-04T18:27:11Z</time>
      </trkpt>
      <trkpt lat="62.633250619511" lon="17.972745157777">
        <ele>76.8</ele>
        <time>2017-12-04T18:27:12Z</time>
      </trkpt>
      <trkpt lat="62.633240812688" lon="17.972793772797">
        <ele>76.8</ele>
        <time>2017-12-04T18:27:13Z</time>
      </trkpt>
      <trkpt lat="62.633231257322" lon="17.972838951238">
        <ele>77</ele>
        <time>2017-12-04T18:27:14Z</time>
      </trkpt>
      <trkpt lat="62.633219019748" lon="17.972895612882">
        <ele>77</ele>
        <time>2017-12-04T18:27:15Z</time>
      </trkpt>
      <trkpt lat="62.633210805486" lon="17.972939617857">
        <ele>77</ele>
        <time>2017-12-04T18:27:16Z</time>
      </trkpt>
      <trkpt lat="62.633199406102" lon="17.972992842922">
        <ele>77.4</ele>
        <time>2017-12-04T18:27:17Z</time>
      </trkpt>
      <trkpt lat="62.633187503804" lon="17.973037769906">
        <ele>77.6</ele>
        <time>2017-12-04T18:27:18Z</time>
      </trkpt>
      <trkpt lat="62.633176774972" lon="17.973086720202">
        <ele>77.6</ele>
        <time>2017-12-04T18:27:19Z</time>
      </trkpt>
      <trkpt lat="62.633166297597" lon="17.973138604163">
        <ele>77.8</ele>
        <time>2017-12-04T18:27:20Z</time>
      </trkpt>
      <trkpt lat="62.633153640928" lon="17.973187051545">
        <ele>77.8</ele>
        <time>2017-12-04T18:27:21Z</time>
      </trkpt>
      <trkpt lat="62.633143247372" lon="17.973237259126">
        <ele>78</ele>
        <time>2017-12-04T18:27:22Z</time>
      </trkpt>
      <trkpt lat="62.633134111101" lon="17.973288304897">
        <ele>78</ele>
        <time>2017-12-04T18:27:23Z</time>
      </trkpt>
      <trkpt lat="62.633124891011" lon="17.973340440315">
        <ele>78</ele>
        <time>2017-12-04T18:27:24Z</time>
      </trkpt>
      <trkpt lat="62.633115838559" lon="17.973394252113">
        <ele>78.2</ele>
        <time>2017-12-04T18:27:25Z</time>
      </trkpt>
      <trkpt lat="62.633106786107" lon="17.973445800798">
        <ele>78.2</ele>
        <time>2017-12-04T18:27:26Z</time>
      </trkpt>
      <trkpt lat="62.633100834958" lon="17.973488548488">
        <ele>78.2</ele>
        <time>2017-12-04T18:27:27Z</time>
      </trkpt>
      <trkpt lat="62.633087172461" lon="17.973546383598">
        <ele>78.4</ele>
        <time>2017-12-04T18:27:28Z</time>
      </trkpt>
      <trkpt lat="62.633075186344" lon="17.973592651686">
        <ele>78.4</ele>
        <time>2017-12-04T18:27:29Z</time>
      </trkpt>
      <trkpt lat="62.633063451684" lon="17.973645373837">
        <ele>78.6</ele>
        <time>2017-12-04T18:27:30Z</time>
      </trkpt>
      <trkpt lat="62.63305121411" lon="17.973693318305">
        <ele>78.6</ele>
        <time>2017-12-04T18:27:31Z</time>
      </trkpt>
      <trkpt lat="62.633039311812" lon="17.973741598049">
        <ele>78.6</ele>
        <time>2017-12-04T18:27:32Z</time>
      </trkpt>
      <trkpt lat="62.633026152229" lon="17.973790548345">
        <ele>78.8</ele>
        <time>2017-12-04T18:27:33Z</time>
      </trkpt>
      <trkpt lat="62.633012908827" lon="17.973842432306">
        <ele>78.8</ele>
        <time>2017-12-04T18:27:34Z</time>
      </trkpt>
      <trkpt lat="62.63300008452" lon="17.973893394258">
        <ele>78.8</ele>
        <time>2017-12-04T18:27:35Z</time>
      </trkpt>
      <trkpt lat="62.632987930765" lon="17.973939494708">
        <ele>79</ele>
        <time>2017-12-04T18:27:36Z</time>
      </trkpt>
      <trkpt lat="62.632975944648" lon="17.973991797764">
        <ele>79</ele>
        <time>2017-12-04T18:27:37Z</time>
      </trkpt>
      <trkpt lat="62.63296404235" lon="17.974050471064">
        <ele>79</ele>
        <time>2017-12-04T18:27:38Z</time>
      </trkpt>
      <trkpt lat="62.632953229699" lon="17.974102606482">
        <ele>79.2</ele>
        <time>2017-12-04T18:27:39Z</time>
      </trkpt>
      <trkpt lat="62.632938645193" lon="17.974158429936">
        <ele>79.2</ele>
        <time>2017-12-04T18:27:40Z</time>
      </trkpt>
      <trkpt lat="62.632922635764" lon="17.974211235906">
        <ele>79.2</ele>
        <time>2017-12-04T18:27:41Z</time>
      </trkpt>
      <trkpt lat="62.632912242208" lon="17.974260018564">
        <ele>79.2</ele>
        <time>2017-12-04T18:27:42Z</time>
      </trkpt>
      <trkpt lat="62.632893969666" lon="17.974320452063">
        <ele>79.2</ele>
        <time>2017-12-04T18:27:43Z</time>
      </trkpt>
      <trkpt lat="62.632877289685" lon="17.974369234721">
        <ele>79.2</ele>
        <time>2017-12-04T18:27:44Z</time>
      </trkpt>
      <trkpt lat="62.632859100962" lon="17.974413407334">
        <ele>79.4</ele>
        <time>2017-12-04T18:27:45Z</time>
      </trkpt>
      <trkpt lat="62.632831943606" lon="17.974441235242">
        <ele>79.4</ele>
        <time>2017-12-04T18:27:46Z</time>
      </trkpt>
      <trkpt lat="62.632797493997" lon="17.974438217758">
        <ele>79.6</ele>
        <time>2017-12-04T18:27:47Z</time>
      </trkpt>
      <trkpt lat="62.632765642777" lon="17.974428997668">
        <ele>79.6</ele>
        <time>2017-12-04T18:27:48Z</time>
      </trkpt>
      <trkpt lat="62.632735719394" lon="17.974410892764">
        <ele>79.6</ele>
        <time>2017-12-04T18:27:49Z</time>
      </trkpt>
      <trkpt lat="62.632706382744" lon="17.974387591082">
        <ele>79.6</ele>
        <time>2017-12-04T18:27:50Z</time>
      </trkpt>
      <trkpt lat="62.632678973931" lon="17.974358589708">
        <ele>79.6</ele>
        <time>2017-12-04T18:27:51Z</time>
      </trkpt>
      <trkpt lat="62.632646703616" lon="17.974331516171">
        <ele>79.6</ele>
        <time>2017-12-04T18:27:52Z</time>
      </trkpt>
      <trkpt lat="62.632616109681" lon="17.97430310153">
        <ele>79.6</ele>
        <time>2017-12-04T18:27:53Z</time>
      </trkpt>
      <trkpt lat="62.632585851022" lon="17.974273513423">
        <ele>79.6</ele>
        <time>2017-12-04T18:27:54Z</time>
      </trkpt>
      <trkpt lat="62.632554754173" lon="17.974246356067">
        <ele>79.4</ele>
        <time>2017-12-04T18:27:55Z</time>
      </trkpt>
      <trkpt lat="62.63252650717" lon="17.974217857607">
        <ele>79.4</ele>
        <time>2017-12-04T18:27:56Z</time>
      </trkpt>
      <trkpt lat="62.632495410321" lon="17.974203776015">
        <ele>79.4</ele>
        <time>2017-12-04T18:27:57Z</time>
      </trkpt>
      <trkpt lat="62.632463307644" lon="17.974170416053">
        <ele>79.4</ele>
        <time>2017-12-04T18:27:58Z</time>
      </trkpt>
      <trkpt lat="62.632436569383" lon="17.974134038607">
        <ele>79.2</ele>
        <time>2017-12-04T18:27:59Z</time>
      </trkpt>
      <trkpt lat="62.632407735647" lon="17.974118448273">
        <ele>79.2</ele>
        <time>2017-12-04T18:28:00Z</time>
      </trkpt>
      <trkpt lat="62.632383511956" lon="17.974091207098">
        <ele>79.2</ele>
        <time>2017-12-04T18:28:01Z</time>
      </trkpt>
      <trkpt lat="62.632347218329" lon="17.974067067226">
        <ele>79.4</ele>
        <time>2017-12-04T18:28:02Z</time>
      </trkpt>
      <trkpt lat="62.632318049317" lon="17.974042759716">
        <ele>79.2</ele>
        <time>2017-12-04T18:28:03Z</time>
      </trkpt>
      <trkpt lat="62.632288293572" lon="17.97400805865">
        <ele>79.4</ele>
        <time>2017-12-04T18:28:04Z</time>
      </trkpt>
      <trkpt lat="62.632258370189" lon="17.973982158579">
        <ele>79.4</ele>
        <time>2017-12-04T18:28:05Z</time>
      </trkpt>
      <trkpt lat="62.632229620272" lon="17.97395776725">
        <ele>79.4</ele>
        <time>2017-12-04T18:28:06Z</time>
      </trkpt>
      <trkpt lat="62.63219626031" lon="17.97394016526">
        <ele>79.2</ele>
        <time>2017-12-04T18:28:07Z</time>
      </trkpt>
      <trkpt lat="62.632165079642" lon="17.97391753413">
        <ele>79.2</ele>
        <time>2017-12-04T18:28:08Z</time>
      </trkpt>
      <trkpt lat="62.632135323897" lon="17.973890963507">
        <ele>79.2</ele>
        <time>2017-12-04T18:28:09Z</time>
      </trkpt>
      <trkpt lat="62.632101880116" lon="17.973870679309">
        <ele>79.2</ele>
        <time>2017-12-04T18:28:10Z</time>
      </trkpt>
      <trkpt lat="62.63207304638" lon="17.973846120342">
        <ele>79.2</ele>
        <time>2017-12-04T18:28:11Z</time>
      </trkpt>
      <trkpt lat="62.632040608427" lon="17.973811670733">
        <ele>79.2</ele>
        <time>2017-12-04T18:28:12Z</time>
      </trkpt>
      <trkpt lat="62.632014037804" lon="17.973777053486">
        <ele>79</ele>
        <time>2017-12-04T18:28:13Z</time>
      </trkpt>
      <trkpt lat="62.631987970095" lon="17.973747130103">
        <ele>79</ele>
        <time>2017-12-04T18:28:14Z</time>
      </trkpt>
      <trkpt lat="62.631960309825" lon="17.973716536168">
        <ele>79</ele>
        <time>2017-12-04T18:28:15Z</time>
      </trkpt>
      <trkpt lat="62.631937175781" lon="17.973685523138">
        <ele>78.8</ele>
        <time>2017-12-04T18:28:16Z</time>
      </trkpt>
      <trkpt lat="62.631904821647" lon="17.973661969999">
        <ele>78.8</ele>
        <time>2017-12-04T18:28:17Z</time>
      </trkpt>
      <trkpt lat="62.631877915748" lon="17.973634980281">
        <ele>79</ele>
        <time>2017-12-04T18:28:18Z</time>
      </trkpt>
      <trkpt lat="62.631851009849" lon="17.973606733278">
        <ele>78.8</ele>
        <time>2017-12-04T18:28:19Z</time>
      </trkpt>
      <trkpt lat="62.631823684855" lon="17.973577061352">
        <ele>78.8</ele>
        <time>2017-12-04T18:28:20Z</time>
      </trkpt>
      <trkpt lat="62.631796611318" lon="17.973546383598">
        <ele>78.8</ele>
        <time>2017-12-04T18:28:21Z</time>
      </trkpt>
      <trkpt lat="62.631771968532" lon="17.973515873482">
        <ele>78.8</ele>
        <time>2017-12-04T18:28:22Z</time>
      </trkpt>
      <trkpt lat="62.631747074289" lon="17.973481507692">
        <ele>78.6</ele>
        <time>2017-12-04T18:28:23Z</time>
      </trkpt>
      <trkpt lat="62.631725868082" lon="17.973446890445">
        <ele>78.6</ele>
        <time>2017-12-04T18:28:24Z</time>
      </trkpt>
      <trkpt lat="62.631701895848" lon="17.973413865759">
        <ele>78.6</ele>
        <time>2017-12-04T18:28:25Z</time>
      </trkpt>
      <trkpt lat="62.631676917786" lon="17.973385199661">
        <ele>78.6</ele>
        <time>2017-12-04T18:28:26Z</time>
      </trkpt>
      <trkpt lat="62.631650933896" lon="17.973355695373">
        <ele>78.6</ele>
        <time>2017-12-04T18:28:27Z</time>
      </trkpt>
      <trkpt lat="62.631624950006" lon="17.973317222452">
        <ele>78.6</ele>
        <time>2017-12-04T18:28:28Z</time>
      </trkpt>
      <trkpt lat="62.631603576161" lon="17.973280845006">
        <ele>78.6</ele>
        <time>2017-12-04T18:28:29Z</time>
      </trkpt>
      <trkpt lat="62.631579603927" lon="17.973241030981">
        <ele>78.4</ele>
        <time>2017-12-04T18:28:30Z</time>
      </trkpt>
      <trkpt lat="62.63155923591" lon="17.973204904992">
        <ele>78.4</ele>
        <time>2017-12-04T18:28:31Z</time>
      </trkpt>
      <trkpt lat="62.631538448798" lon="17.973159223637">
        <ele>78.6</ele>
        <time>2017-12-04T18:28:32Z</time>
      </trkpt>
      <trkpt lat="62.631520511532" lon="17.973116727404">
        <ele>78.4</ele>
        <time>2017-12-04T18:28:33Z</time>
      </trkpt>
      <trkpt lat="62.631499975877" lon="17.973068699117">
        <ele>78.4</ele>
        <time>2017-12-04T18:28:34Z</time>
      </trkpt>
      <trkpt lat="62.631481954792" lon="17.9730231854">
        <ele>78.4</ele>
        <time>2017-12-04T18:28:35Z</time>
      </trkpt>
      <trkpt lat="62.631465107173" lon="17.97297876133">
        <ele>78.2</ele>
        <time>2017-12-04T18:28:36Z</time>
      </trkpt>
      <trkpt lat="62.631441302577" lon="17.972928553749">
        <ele>78</ele>
        <time>2017-12-04T18:28:37Z</time>
      </trkpt>
      <trkpt lat="62.631420683103" lon="17.97288488405">
        <ele>77.8</ele>
        <time>2017-12-04T18:28:38Z</time>
      </trkpt>
      <trkpt lat="62.631401404733" lon="17.972844483292">
        <ele>77.8</ele>
        <time>2017-12-04T18:28:39Z</time>
      </trkpt>
      <trkpt lat="62.631381455811" lon="17.972792850788">
        <ele>77.4</ele>
        <time>2017-12-04T18:28:40Z</time>
      </trkpt>
      <trkpt lat="62.631363518545" lon="17.972743146121">
        <ele>77.4</ele>
        <time>2017-12-04T18:28:41Z</time>
      </trkpt>
      <trkpt lat="62.631346084193" lon="17.972694950196">
        <ele>77.2</ele>
        <time>2017-12-04T18:28:42Z</time>
      </trkpt>
      <trkpt lat="62.631327727832" lon="17.972645580805">
        <ele>77</ele>
        <time>2017-12-04T18:28:43Z</time>
      </trkpt>
      <trkpt lat="62.631311550765" lon="17.972600905278">
        <ele>76.8</ele>
        <time>2017-12-04T18:28:44Z</time>
      </trkpt>
      <trkpt lat="62.63129436787" lon="17.972550530059">
        <ele>76.8</ele>
        <time>2017-12-04T18:28:45Z</time>
      </trkpt>
      <trkpt lat="62.631275760052" lon="17.972505016342">
        <ele>76.6</ele>
        <time>2017-12-04T18:28:46Z</time>
      </trkpt>
      <trkpt lat="62.63125497294" lon="17.972456233684">
        <ele>76.6</ele>
        <time>2017-12-04T18:28:47Z</time>
      </trkpt>
      <trkpt lat="62.631235778389" lon="17.972402589524">
        <ele>76.4</ele>
        <time>2017-12-04T18:28:48Z</time>
      </trkpt>
      <trkpt lat="62.63121976896" lon="17.972348526269">
        <ele>76.2</ele>
        <time>2017-12-04T18:28:49Z</time>
      </trkpt>
      <trkpt lat="62.631204010988" lon="17.972294295376">
        <ele>76</ele>
        <time>2017-12-04T18:28:50Z</time>
      </trkpt>
      <trkpt lat="62.63118791774" lon="17.972240986492">
        <ele>76</ele>
        <time>2017-12-04T18:28:51Z</time>
      </trkpt>
      <trkpt lat="62.631173081777" lon="17.97217996626">
        <ele>75.8</ele>
        <time>2017-12-04T18:28:52Z</time>
      </trkpt>
      <trkpt lat="62.631160928022" lon="17.97212213115">
        <ele>75.8</ele>
        <time>2017-12-04T18:28:53Z</time>
      </trkpt>
      <trkpt lat="62.631147852258" lon="17.972063876945">
        <ele>75.6</ele>
        <time>2017-12-04T18:28:54Z</time>
      </trkpt>
      <trkpt lat="62.631135782322" lon="17.972007550577">
        <ele>75.4</ele>
        <time>2017-12-04T18:28:55Z</time>
      </trkpt>
      <trkpt lat="62.631124802033" lon="17.971951643304">
        <ele>75.4</ele>
        <time>2017-12-04T18:28:56Z</time>
      </trkpt>
      <trkpt lat="62.631109546975" lon="17.97188911433">
        <ele>75.2</ele>
        <time>2017-12-04T18:28:57Z</time>
      </trkpt>
      <trkpt lat="62.631092196442" lon="17.971827507365">
        <ele>75</ele>
        <time>2017-12-04T18:28:58Z</time>
      </trkpt>
      <trkpt lat="62.631073840081" lon="17.971770258988">
        <ele>74.8</ele>
        <time>2017-12-04T18:28:59Z</time>
      </trkpt>
      <trkpt lat="62.631066799285" lon="17.971710496041">
        <ele>74.6</ele>
        <time>2017-12-04T18:29:00Z</time>
      </trkpt>
      <trkpt lat="62.631055399901" lon="17.971657690071">
        <ele>74.6</ele>
        <time>2017-12-04T18:29:01Z</time>
      </trkpt>
      <trkpt lat="62.631040480119" lon="17.97159155688">
        <ele>74.2</ele>
        <time>2017-12-04T18:29:02Z</time>
      </trkpt>
      <trkpt lat="62.631028996916" lon="17.971536823073">
        <ele>74.2</ele>
        <time>2017-12-04T18:29:03Z</time>
      </trkpt>
      <trkpt lat="62.631014915324" lon="17.97147756304">
        <ele>74</ele>
        <time>2017-12-04T18:29:04Z</time>
      </trkpt>
      <trkpt lat="62.631004437949" lon="17.9714222425">
        <ele>74</ele>
        <time>2017-12-04T18:29:05Z</time>
      </trkpt>
      <trkpt lat="62.630995385497" lon="17.971368682159">
        <ele>73.8</ele>
        <time>2017-12-04T18:29:06Z</time>
      </trkpt>
      <trkpt lat="62.630983818475" lon="17.971303303339">
        <ele>73.8</ele>
        <time>2017-12-04T18:29:07Z</time>
      </trkpt>
      <trkpt lat="62.630972419091" lon="17.971246054962">
        <ele>73.6</ele>
        <time>2017-12-04T18:29:08Z</time>
      </trkpt>
      <trkpt lat="62.630962276992" lon="17.971190818241">
        <ele>73.4</ele>
        <time>2017-12-04T18:29:09Z</time>
      </trkpt>
      <trkpt lat="62.63095154816" lon="17.971125942335">
        <ele>73.4</ele>
        <time>2017-12-04T18:29:10Z</time>
      </trkpt>
      <trkpt lat="62.630942244251" lon="17.971072549632">
        <ele>73.4</ele>
        <time>2017-12-04T18:29:11Z</time>
      </trkpt>
      <trkpt lat="62.630932185971" lon="17.97100817664">
        <ele>73.4</ele>
        <time>2017-12-04T18:29:12Z</time>
      </trkpt>
      <trkpt lat="62.630924223166" lon="17.970948748969">
        <ele>73.2</ele>
        <time>2017-12-04T18:29:13Z</time>
      </trkpt>
      <trkpt lat="62.63091634418" lon="17.970890997678">
        <ele>73.2</ele>
        <time>2017-12-04T18:29:14Z</time>
      </trkpt>
      <trkpt lat="62.630910141574" lon="17.970838610803">
        <ele>73.2</ele>
        <time>2017-12-04T18:29:15Z</time>
      </trkpt>
      <trkpt lat="62.630902597864" lon="17.970777842028">
        <ele>73</ele>
        <time>2017-12-04T18:29:16Z</time>
      </trkpt>
      <trkpt lat="62.630894718878" lon="17.970715732149">
        <ele>73</ele>
        <time>2017-12-04T18:29:17Z</time>
      </trkpt>
      <trkpt lat="62.63088784572" lon="17.970656053021">
        <ele>73</ele>
        <time>2017-12-04T18:29:18Z</time>
      </trkpt>
      <trkpt lat="62.630882900399" lon="17.97059830173">
        <ele>73</ele>
        <time>2017-12-04T18:29:19Z</time>
      </trkpt>
      <trkpt lat="62.630877619802" lon="17.970538371145">
        <ele>72.8</ele>
        <time>2017-12-04T18:29:20Z</time>
      </trkpt>
      <trkpt lat="62.630870914282" lon="17.970475674533">
        <ele>72.8</ele>
        <time>2017-12-04T18:29:21Z</time>
      </trkpt>
      <trkpt lat="62.630870411368" lon="17.970419348165">
        <ele>72.6</ele>
        <time>2017-12-04T18:29:22Z</time>
      </trkpt>
      <trkpt lat="62.630865466047" lon="17.970367967118">
        <ele>72.4</ele>
        <time>2017-12-04T18:29:23Z</time>
      </trkpt>
      <trkpt lat="62.630862197106" lon="17.970313820044">
        <ele>72</ele>
        <time>2017-12-04T18:29:24Z</time>
      </trkpt>
      <trkpt lat="62.630857503242" lon="17.970227402655">
        <ele>71.8</ele>
        <time>2017-12-04T18:29:26Z</time>
      </trkpt>
      <trkpt lat="62.630859431079" lon="17.970205609715">
        <ele>71.6</ele>
        <time>2017-12-04T18:29:27Z</time>
      </trkpt>
      <trkpt lat="62.630863705848" lon="17.970179625825">
        <ele>71.6</ele>
        <time>2017-12-04T18:29:28Z</time>
      </trkpt>
      <trkpt lat="62.630865046952" lon="17.970158000523">
        <ele>71.6</ele>
        <time>2017-12-04T18:29:29Z</time>
      </trkpt>
      <trkpt lat="62.630873345033" lon="17.970137883963">
        <ele>71.6</ele>
        <time>2017-12-04T18:29:30Z</time>
      </trkpt>
      <trkpt lat="62.630876278698" lon="17.970122125991">
        <ele>71.6</ele>
        <time>2017-12-04T18:29:31Z</time>
      </trkpt>
      <trkpt lat="62.630880804924" lon="17.970127825683">
        <ele>71.6</ele>
        <time>2017-12-04T18:29:32Z</time>
      </trkpt>
      <trkpt lat="62.630883068037" lon="17.970126652217">
        <ele>71.6</ele>
        <time>2017-12-04T18:29:33Z</time>
      </trkpt>
      <trkpt lat="62.630878206535" lon="17.970129418244">
        <ele>71.6</ele>
        <time>2017-12-04T18:29:34Z</time>
      </trkpt>
      <trkpt lat="62.631153803407" lon="17.969994469654">
        <ele>71</ele>
        <time>2017-12-04T18:30:38Z</time>
      </trkpt>
      <trkpt lat="62.631186408998" lon="17.969977538216">
        <ele>70.8</ele>
        <time>2017-12-04T18:30:39Z</time>
      </trkpt>
      <trkpt lat="62.631219601322" lon="17.969955829095">
        <ele>70.8</ele>
        <time>2017-12-04T18:30:40Z</time>
      </trkpt>
      <trkpt lat="62.631253883293" lon="17.969933784698">
        <ele>70.6</ele>
        <time>2017-12-04T18:30:41Z</time>
      </trkpt>
      <trkpt lat="62.631285399237" lon="17.969918781097">
        <ele>70.4</ele>
        <time>2017-12-04T18:30:42Z</time>
      </trkpt>
      <trkpt lat="62.63131867538" lon="17.969904950962">
        <ele>70.2</ele>
        <time>2017-12-04T18:30:43Z</time>
      </trkpt>
      <trkpt lat="62.63135136479" lon="17.969889863542">
        <ele>70</ele>
        <time>2017-12-04T18:30:44Z</time>
      </trkpt>
      <trkpt lat="62.631383551286" lon="17.969875446674">
        <ele>69.8</ele>
        <time>2017-12-04T18:30:45Z</time>
      </trkpt>
      <trkpt lat="62.63141674361" lon="17.969862790005">
        <ele>69.8</ele>
        <time>2017-12-04T18:30:46Z</time>
      </trkpt>
      <trkpt lat="62.631452869599" lon="17.969842086712">
        <ele>69.8</ele>
        <time>2017-12-04T18:30:47Z</time>
      </trkpt>
      <trkpt lat="62.631487235389" lon="17.969830100595">
        <ele>69.6</ele>
        <time>2017-12-04T18:30:48Z</time>
      </trkpt>
      <trkpt lat="62.631520176256" lon="17.969811911872">
        <ele>69.6</ele>
        <time>2017-12-04T18:30:49Z</time>
      </trkpt>
      <trkpt lat="62.631551440743" lon="17.969786766172">
        <ele>69.6</ele>
        <time>2017-12-04T18:30:50Z</time>
      </trkpt>
      <trkpt lat="62.631581196488" lon="17.969764637956">
        <ele>69.6</ele>
        <time>2017-12-04T18:30:51Z</time>
      </trkpt>
      <trkpt lat="62.631613634441" lon="17.969742761197">
        <ele>69.4</ele>
        <time>2017-12-04T18:30:52Z</time>
      </trkpt>
      <trkpt lat="62.631643725462" lon="17.969718621325">
        <ele>69.4</ele>
        <time>2017-12-04T18:30:53Z</time>
      </trkpt>
      <trkpt lat="62.631672559198" lon="17.969696074014">
        <ele>69.2</ele>
        <time>2017-12-04T18:30:54Z</time>
      </trkpt>
      <trkpt lat="62.631704578056" lon="17.96965785255">
        <ele>69.2</ele>
        <time>2017-12-04T18:30:55Z</time>
      </trkpt>
      <trkpt lat="62.631733076516" lon="17.96962600133">
        <ele>69.2</ele>
        <time>2017-12-04T18:30:56Z</time>
      </trkpt>
      <trkpt lat="62.631761826433" lon="17.969595155938">
        <ele>69.2</ele>
        <time>2017-12-04T18:30:57Z</time>
      </trkpt>
      <trkpt lat="62.631793342377" lon="17.96959834106">
        <ele>68.8</ele>
        <time>2017-12-04T18:30:58Z</time>
      </trkpt>
      <trkpt lat="62.631824355407" lon="17.969592054635">
        <ele>68.8</ele>
        <time>2017-12-04T18:30:59Z</time>
      </trkpt>
      <trkpt lat="62.631856541903" lon="17.969575793749">
        <ele>68.6</ele>
        <time>2017-12-04T18:31:00Z</time>
      </trkpt>
      <trkpt lat="62.6318869682" lon="17.969567998582">
        <ele>68.4</ele>
        <time>2017-12-04T18:31:01Z</time>
      </trkpt>
      <trkpt lat="62.631918148868" lon="17.969567076573">
        <ele>68.4</ele>
        <time>2017-12-04T18:31:02Z</time>
      </trkpt>
      <trkpt lat="62.631947066423" lon="17.96956900441">
        <ele>68.6</ele>
        <time>2017-12-04T18:31:03Z</time>
      </trkpt>
      <trkpt lat="62.631982857136" lon="17.969567076573">
        <ele>68.8</ele>
        <time>2017-12-04T18:31:04Z</time>
      </trkpt>
      <trkpt lat="62.632013451071" lon="17.969560538691">
        <ele>68.8</ele>
        <time>2017-12-04T18:31:05Z</time>
      </trkpt>
      <trkpt lat="62.632040608427" lon="17.969555761008">
        <ele>68.8</ele>
        <time>2017-12-04T18:31:06Z</time>
      </trkpt>
      <trkpt lat="62.632071956733" lon="17.969544277805">
        <ele>69</ele>
        <time>2017-12-04T18:31:07Z</time>
      </trkpt>
      <trkpt lat="62.632100958107" lon="17.969534890077">
        <ele>69</ele>
        <time>2017-12-04T18:31:08Z</time>
      </trkpt>
      <trkpt lat="62.63212920511" lon="17.969526172901">
        <ele>69.4</ele>
        <time>2017-12-04T18:31:09Z</time>
      </trkpt>
      <trkpt lat="62.632159966683" lon="17.969518210096">
        <ele>69.4</ele>
        <time>2017-12-04T18:31:10Z</time>
      </trkpt>
      <trkpt lat="62.632186369668" lon="17.969512091309">
        <ele>69.4</ele>
        <time>2017-12-04T18:31:11Z</time>
      </trkpt>
      <trkpt lat="62.632219645811" lon="17.969493651129">
        <ele>69.4</ele>
        <time>2017-12-04T18:31:12Z</time>
      </trkpt>
      <trkpt lat="62.632249653013" lon="17.969483592849">
        <ele>69.4</ele>
        <time>2017-12-04T18:31:13Z</time>
      </trkpt>
      <trkpt lat="62.632281168957" lon="17.969474708035">
        <ele>69.4</ele>
        <time>2017-12-04T18:31:14Z</time>
      </trkpt>
      <trkpt lat="62.632311595254" lon="17.969465655583">
        <ele>69.4</ele>
        <time>2017-12-04T18:31:15Z</time>
      </trkpt>
      <trkpt lat="62.632342775922" lon="17.969458614787">
        <ele>69.2</ele>
        <time>2017-12-04T18:31:16Z</time>
      </trkpt>
      <trkpt lat="62.632378315178" lon="17.969453250371">
        <ele>68.8</ele>
        <time>2017-12-04T18:31:17Z</time>
      </trkpt>
      <trkpt lat="62.632411758959" lon="17.969449646154">
        <ele>68.8</ele>
        <time>2017-12-04T18:31:18Z</time>
      </trkpt>
      <trkpt lat="62.63244520274" lon="17.969449646154">
        <ele>68.6</ele>
        <time>2017-12-04T18:31:19Z</time>
      </trkpt>
      <trkpt lat="62.63247621577" lon="17.969451154896">
        <ele>68.6</ele>
        <time>2017-12-04T18:31:20Z</time>
      </trkpt>
      <trkpt lat="62.632505803877" lon="17.969456016398">
        <ele>68.6</ele>
        <time>2017-12-04T18:31:21Z</time>
      </trkpt>
      <trkpt lat="62.632534302337" lon="17.969466577592">
        <ele>68.8</ele>
        <time>2017-12-04T18:31:22Z</time>
      </trkpt>
      <trkpt lat="62.632566488833" lon="17.969475797682">
        <ele>69</ele>
        <time>2017-12-04T18:31:23Z</time>
      </trkpt>
      <trkpt lat="62.632596244578" lon="17.969487197066">
        <ele>69</ele>
        <time>2017-12-04T18:31:24Z</time>
      </trkpt>
      <trkpt lat="62.632626670875" lon="17.969486275057">
        <ele>69</ele>
        <time>2017-12-04T18:31:25Z</time>
      </trkpt>
      <trkpt lat="62.63265475024" lon="17.969491136559">
        <ele>69.2</ele>
        <time>2017-12-04T18:31:26Z</time>
      </trkpt>
      <trkpt lat="62.632686852917" lon="17.969499183183">
        <ele>69</ele>
        <time>2017-12-04T18:31:27Z</time>
      </trkpt>
      <trkpt lat="62.632691379143" lon="17.96949692007">
        <ele>69</ele>
        <time>2017-12-04T18:31:28Z</time>
      </trkpt>
      <trkpt lat="62.632751309728" lon="17.969509576739">
        <ele>69</ele>
        <time>2017-12-04T18:31:29Z</time>
      </trkpt>
      <trkpt lat="62.632781065473" lon="17.969515192612">
        <ele>69</ele>
        <time>2017-12-04T18:31:30Z</time>
      </trkpt>
      <trkpt lat="62.632810318304" lon="17.969519132105">
        <ele>69.2</ele>
        <time>2017-12-04T18:31:31Z</time>
      </trkpt>
      <trkpt lat="62.632839403497" lon="17.969529525661">
        <ele>69.4</ele>
        <time>2017-12-04T18:31:32Z</time>
      </trkpt>
      <trkpt lat="62.632865890301" lon="17.969536315">
        <ele>69.6</ele>
        <time>2017-12-04T18:31:33Z</time>
      </trkpt>
      <trkpt lat="62.632898579711" lon="17.969538661932">
        <ele>69.8</ele>
        <time>2017-12-04T18:31:34Z</time>
      </trkpt>
      <trkpt lat="62.632926994352" lon="17.969547379108">
        <ele>70.2</ele>
        <time>2017-12-04T18:31:35Z</time>
      </trkpt>
      <trkpt lat="62.632954067889" lon="17.969557353569">
        <ele>70.4</ele>
        <time>2017-12-04T18:31:36Z</time>
      </trkpt>
      <trkpt lat="62.632984578005" lon="17.969559281406">
        <ele>70.4</ele>
        <time>2017-12-04T18:31:37Z</time>
      </trkpt>
      <trkpt lat="62.633012238275" lon="17.969566154564">
        <ele>70.6</ele>
        <time>2017-12-04T18:31:38Z</time>
      </trkpt>
      <trkpt lat="62.633040066183" lon="17.969575458473">
        <ele>70.6</ele>
        <time>2017-12-04T18:31:39Z</time>
      </trkpt>
      <trkpt lat="62.633074348154" lon="17.969576631939">
        <ele>70.6</ele>
        <time>2017-12-04T18:31:40Z</time>
      </trkpt>
      <trkpt lat="62.63310402008" lon="17.969583672735">
        <ele>70.6</ele>
        <time>2017-12-04T18:31:41Z</time>
      </trkpt>
      <trkpt lat="62.63313754768" lon="17.969587276952">
        <ele>70.6</ele>
        <time>2017-12-04T18:31:42Z</time>
      </trkpt>
      <trkpt lat="62.633167638701" lon="17.969592725187">
        <ele>70.6</ele>
        <time>2017-12-04T18:31:43Z</time>
      </trkpt>
      <trkpt lat="62.63319705917" lon="17.96960085563">
        <ele>70.4</ele>
        <time>2017-12-04T18:31:44Z</time>
      </trkpt>
      <trkpt lat="62.633224300345" lon="17.96960923753">
        <ele>70.4</ele>
        <time>2017-12-04T18:31:45Z</time>
      </trkpt>
      <trkpt lat="62.633251122425" lon="17.969618038525">
        <ele>70.4</ele>
        <time>2017-12-04T18:31:46Z</time>
      </trkpt>
      <trkpt lat="62.633282470731" lon="17.969633964135">
        <ele>70.2</ele>
        <time>2017-12-04T18:31:47Z</time>
      </trkpt>
      <trkpt lat="62.633307364974" lon="17.96965785255">
        <ele>70.2</ele>
        <time>2017-12-04T18:31:48Z</time>
      </trkpt>
      <trkpt lat="62.63332949319" lon="17.969698169489">
        <ele>70.2</ele>
        <time>2017-12-04T18:31:49Z</time>
      </trkpt>
      <trkpt lat="62.633346759904" lon="17.969748879984">
        <ele>70.2</ele>
        <time>2017-12-04T18:31:50Z</time>
      </trkpt>
      <trkpt lat="62.633361092953" lon="17.969796489176">
        <ele>70.2</ele>
        <time>2017-12-04T18:31:51Z</time>
      </trkpt>
      <trkpt lat="62.633362685514" lon="17.96986153272">
        <ele>70.4</ele>
        <time>2017-12-04T18:31:52Z</time>
      </trkpt>
      <trkpt lat="62.633367044102" lon="17.969924732246">
        <ele>70.6</ele>
        <time>2017-12-04T18:31:53Z</time>
      </trkpt>
      <trkpt lat="62.633369893948" lon="17.969982902632">
        <ele>70.6</ele>
        <time>2017-12-04T18:31:54Z</time>
      </trkpt>
      <trkpt lat="62.633373749622" lon="17.970046940348">
        <ele>71</ele>
        <time>2017-12-04T18:31:55Z</time>
      </trkpt>
      <trkpt lat="62.633378611124" lon="17.970104104906">
        <ele>71</ele>
        <time>2017-12-04T18:31:56Z</time>
      </trkpt>
      <trkpt lat="62.633380706599" lon="17.970163951672">
        <ele>71.4</ele>
        <time>2017-12-04T18:31:57Z</time>
      </trkpt>
      <trkpt lat="62.633382718255" lon="17.970237460935">
        <ele>71.6</ele>
        <time>2017-12-04T18:31:58Z</time>
      </trkpt>
      <trkpt lat="62.633384562273" lon="17.970300492823">
        <ele>72</ele>
        <time>2017-12-04T18:31:59Z</time>
      </trkpt>
      <trkpt lat="62.633387747395" lon="17.970364865815">
        <ele>72.2</ele>
        <time>2017-12-04T18:32:00Z</time>
      </trkpt>
      <trkpt lat="62.633390513422" lon="17.970426556599">
        <ele>72.2</ele>
        <time>2017-12-04T18:32:01Z</time>
      </trkpt>
      <trkpt lat="62.633392860354" lon="17.970495958731">
        <ele>72.4</ele>
        <time>2017-12-04T18:32:02Z</time>
      </trkpt>
      <trkpt lat="62.633397218942" lon="17.970556224592">
        <ele>72.6</ele>
        <time>2017-12-04T18:32:03Z</time>
      </trkpt>
      <trkpt lat="62.633400906978" lon="17.97062260924">
        <ele>72.8</ele>
        <time>2017-12-04T18:32:04Z</time>
      </trkpt>
      <trkpt lat="62.633404008281" lon="17.970689245345">
        <ele>73</ele>
        <time>2017-12-04T18:32:05Z</time>
      </trkpt>
      <trkpt lat="62.63340576848" lon="17.970752612509">
        <ele>73</ele>
        <time>2017-12-04T18:32:06Z</time>
      </trkpt>
      <trkpt lat="62.633408031593" lon="17.970818829519">
        <ele>73.2</ele>
        <time>2017-12-04T18:32:07Z</time>
      </trkpt>
      <trkpt lat="62.633409372697" lon="17.970883789244">
        <ele>73.4</ele>
        <time>2017-12-04T18:32:08Z</time>
      </trkpt>
      <trkpt lat="62.633410546163" lon="17.970942211087">
        <ele>73.4</ele>
        <time>2017-12-04T18:32:09Z</time>
      </trkpt>
      <trkpt lat="62.633414737113" lon="17.971013624875">
        <ele>73.6</ele>
        <time>2017-12-04T18:32:10Z</time>
      </trkpt>
      <trkpt lat="62.633415407665" lon="17.971079087514">
        <ele>73.6</ele>
        <time>2017-12-04T18:32:11Z</time>
      </trkpt>
      <trkpt lat="62.633416581131" lon="17.97114312523">
        <ele>73.8</ele>
        <time>2017-12-04T18:32:12Z</time>
      </trkpt>
      <trkpt lat="62.633416497312" lon="17.971207162946">
        <ele>73.8</ele>
        <time>2017-12-04T18:32:13Z</time>
      </trkpt>
      <trkpt lat="62.633417586959" lon="17.971272709404">
        <ele>74</ele>
        <time>2017-12-04T18:32:14Z</time>
      </trkpt>
      <trkpt lat="62.633417335502" lon="17.971339177871">
        <ele>74</ele>
        <time>2017-12-04T18:32:15Z</time>
      </trkpt>
      <trkpt lat="62.633414234199" lon="17.971404724329">
        <ele>74</ele>
        <time>2017-12-04T18:32:16Z</time>
      </trkpt>
      <trkpt lat="62.63341163581" lon="17.971463565267">
        <ele>74.2</ele>
        <time>2017-12-04T18:32:17Z</time>
      </trkpt>
      <trkpt lat="62.633406941946" lon="17.971527435345">
        <ele>74.2</ele>
        <time>2017-12-04T18:32:18Z</time>
      </trkpt>
      <trkpt lat="62.63340493029" lon="17.971591640699">
        <ele>74.2</ele>
        <time>2017-12-04T18:32:19Z</time>
      </trkpt>
      <trkpt lat="62.633403086272" lon="17.971657103338">
        <ele>74.4</ele>
        <time>2017-12-04T18:32:20Z</time>
      </trkpt>
      <trkpt lat="62.633399984969" lon="17.971722230701">
        <ele>74.4</ele>
        <time>2017-12-04T18:32:21Z</time>
      </trkpt>
      <trkpt lat="62.633400068788" lon="17.971786268417">
        <ele>74.6</ele>
        <time>2017-12-04T18:32:22Z</time>
      </trkpt>
      <trkpt lat="62.633396045476" lon="17.971852736884">
        <ele>74.6</ele>
        <time>2017-12-04T18:32:23Z</time>
      </trkpt>
      <trkpt lat="62.633390261965" lon="17.971912332193">
        <ele>74.8</ele>
        <time>2017-12-04T18:32:24Z</time>
      </trkpt>
      <trkpt lat="62.633381880065" lon="17.971980225583">
        <ele>74.8</ele>
        <time>2017-12-04T18:32:25Z</time>
      </trkpt>
      <trkpt lat="62.633373498165" lon="17.97203915034">
        <ele>75</ele>
        <time>2017-12-04T18:32:26Z</time>
      </trkpt>
      <trkpt lat="62.633364613351" lon="17.972102601323">
        <ele>75</ele>
        <time>2017-12-04T18:32:27Z</time>
      </trkpt>
      <trkpt lat="62.633353716881" lon="17.972169321247">
        <ele>75.2</ele>
        <time>2017-12-04T18:32:28Z</time>
      </trkpt>
      <trkpt lat="62.633343826239" lon="17.972230928212">
        <ele>75.4</ele>
        <time>2017-12-04T18:32:29Z</time>
      </trkpt>
      <trkpt lat="62.633335192882" lon="17.972290858797">
        <ele>75.6</ele>
        <time>2017-12-04T18:32:30Z</time>
      </trkpt>
      <trkpt lat="62.633324799326" lon="17.972345424966">
        <ele>75.6</ele>
        <time>2017-12-04T18:32:31Z</time>
      </trkpt>
      <trkpt lat="62.633316836521" lon="17.972409546501">
        <ele>75.8</ele>
        <time>2017-12-04T18:32:32Z</time>
      </trkpt>
      <trkpt lat="62.633305688594" lon="17.972467716887">
        <ele>75.8</ele>
        <time>2017-12-04T18:32:33Z</time>
      </trkpt>
      <trkpt lat="62.633294205391" lon="17.972532928069">
        <ele>75.8</ele>
        <time>2017-12-04T18:32:34Z</time>
      </trkpt>
      <trkpt lat="62.633282219274" lon="17.972597217242">
        <ele>76</ele>
        <time>2017-12-04T18:32:35Z</time>
      </trkpt>
      <trkpt lat="62.63326579075" lon="17.972656141999">
        <ele>76</ele>
        <time>2017-12-04T18:32:36Z</time>
      </trkpt>
      <trkpt lat="62.633256654479" lon="17.972717581326">
        <ele>76</ele>
        <time>2017-12-04T18:32:37Z</time>
      </trkpt>
      <trkpt lat="62.633243327258" lon="17.972775164979">
        <ele>76.2</ele>
        <time>2017-12-04T18:32:38Z</time>
      </trkpt>
      <trkpt lat="62.633228239838" lon="17.972830317881">
        <ele>76.4</ele>
        <time>2017-12-04T18:32:39Z</time>
      </trkpt>
      <trkpt lat="62.633220444671" lon="17.972890499923">
        <ele>76.6</ele>
        <time>2017-12-04T18:32:40Z</time>
      </trkpt>
      <trkpt lat="62.63320376469" lon="17.972944646997">
        <ele>76.8</ele>
        <time>2017-12-04T18:32:41Z</time>
      </trkpt>
      <trkpt lat="62.633191443297" lon="17.973005080496">
        <ele>76.8</ele>
        <time>2017-12-04T18:32:42Z</time>
      </trkpt>
      <trkpt lat="62.633177696981" lon="17.973063586158">
        <ele>77</ele>
        <time>2017-12-04T18:32:43Z</time>
      </trkpt>
      <trkpt lat="62.633163280113" lon="17.973121840363">
        <ele>77</ele>
        <time>2017-12-04T18:32:44Z</time>
      </trkpt>
      <trkpt lat="62.633151545453" lon="17.973178082912">
        <ele>77.2</ele>
        <time>2017-12-04T18:32:45Z</time>
      </trkpt>
      <trkpt lat="62.633138804965" lon="17.973235498927">
        <ele>77.2</ele>
        <time>2017-12-04T18:32:46Z</time>
      </trkpt>
      <trkpt lat="62.633127657038" lon="17.973302721765">
        <ele>77.4</ele>
        <time>2017-12-04T18:32:47Z</time>
      </trkpt>
      <trkpt lat="62.633114413636" lon="17.973360640694">
        <ele>77.4</ele>
        <time>2017-12-04T18:32:48Z</time>
      </trkpt>
      <trkpt lat="62.633101589329" lon="17.973421074193">
        <ele>77.6</ele>
        <time>2017-12-04T18:32:49Z</time>
      </trkpt>
      <trkpt lat="62.633090022307" lon="17.973483267891">
        <ele>77.8</ele>
        <time>2017-12-04T18:32:50Z</time>
      </trkpt>
      <trkpt lat="62.633076946543" lon="17.973543114657">
        <ele>77.8</ele>
        <time>2017-12-04T18:32:51Z</time>
      </trkpt>
      <trkpt lat="62.633066636806" lon="17.973601033586">
        <ele>77.8</ele>
        <time>2017-12-04T18:32:52Z</time>
      </trkpt>
      <trkpt lat="62.633057165259" lon="17.973658868696">
        <ele>78</ele>
        <time>2017-12-04T18:32:53Z</time>
      </trkpt>
      <trkpt lat="62.63304702316" lon="17.97371469215">
        <ele>78</ele>
        <time>2017-12-04T18:32:54Z</time>
      </trkpt>
      <trkpt lat="62.633035959052" lon="17.973777388762">
        <ele>78</ele>
        <time>2017-12-04T18:32:55Z</time>
      </trkpt>
      <trkpt lat="62.633022296555" lon="17.973831787293">
        <ele>78</ele>
        <time>2017-12-04T18:32:56Z</time>
      </trkpt>
      <trkpt lat="62.633006370945" lon="17.9738865211">
        <ele>78.2</ele>
        <time>2017-12-04T18:32:57Z</time>
      </trkpt>
      <trkpt lat="62.632994803923" lon="17.973951732282">
        <ele>78.4</ele>
        <time>2017-12-04T18:32:58Z</time>
      </trkpt>
      <trkpt lat="62.632982063435" lon="17.974009232116">
        <ele>78.4</ele>
        <time>2017-12-04T18:32:59Z</time>
      </trkpt>
      <trkpt lat="62.632969490585" lon="17.97406421738">
        <ele>78.8</ele>
        <time>2017-12-04T18:33:00Z</time>
      </trkpt>
      <trkpt lat="62.632957169192" lon="17.974117274807">
        <ele>78.8</ele>
        <time>2017-12-04T18:33:01Z</time>
      </trkpt>
      <trkpt lat="62.632944428704" lon="17.974186257844">
        <ele>79</ele>
        <time>2017-12-04T18:33:02Z</time>
      </trkpt>
      <trkpt lat="62.632932526406" lon="17.974243003307">
        <ele>79</ele>
        <time>2017-12-04T18:33:03Z</time>
      </trkpt>
      <trkpt lat="62.632919785918" lon="17.9743056161">
        <ele>79.2</ele>
        <time>2017-12-04T18:33:04Z</time>
      </trkpt>
      <trkpt lat="62.632904027946" lon="17.974366049599">
        <ele>79.2</ele>
        <time>2017-12-04T18:33:05Z</time>
      </trkpt>
      <trkpt lat="62.632888521431" lon="17.974422375967">
        <ele>79.2</ele>
        <time>2017-12-04T18:33:06Z</time>
      </trkpt>
      <trkpt lat="62.632858933324" lon="17.974465123657">
        <ele>79</ele>
        <time>2017-12-04T18:33:07Z</time>
      </trkpt>
      <trkpt lat="62.632827920294" lon="17.974484066751">
        <ele>79.2</ele>
        <time>2017-12-04T18:33:08Z</time>
      </trkpt>
      <trkpt lat="62.632799421834" lon="17.974494544126">
        <ele>79.2</ele>
        <time>2017-12-04T18:33:09Z</time>
      </trkpt>
      <trkpt lat="62.632768492623" lon="17.974466297123">
        <ele>79.2</ele>
        <time>2017-12-04T18:33:10Z</time>
      </trkpt>
      <trkpt lat="62.632740748534" lon="17.974450120056">
        <ele>79.2</ele>
        <time>2017-12-04T18:33:11Z</time>
      </trkpt>
      <trkpt lat="62.632707304753" lon="17.974426986012">
        <ele>79.2</ele>
        <time>2017-12-04T18:33:12Z</time>
      </trkpt>
      <trkpt lat="62.632675202076" lon="17.974401924131">
        <ele>79</ele>
        <time>2017-12-04T18:33:13Z</time>
      </trkpt>
      <trkpt lat="62.632644189046" lon="17.974379712096">
        <ele>79</ele>
        <time>2017-12-04T18:33:14Z</time>
      </trkpt>
      <trkpt lat="62.632616528776" lon="17.974357248604">
        <ele>79</ele>
        <time>2017-12-04T18:33:15Z</time>
      </trkpt>
      <trkpt lat="62.63258685685" lon="17.974337383501">
        <ele>79.2</ele>
        <time>2017-12-04T18:33:16Z</time>
      </trkpt>
      <trkpt lat="62.632560202408" lon="17.974302514797">
        <ele>79</ele>
        <time>2017-12-04T18:33:17Z</time>
      </trkpt>
      <trkpt lat="62.632538660925" lon="17.974267310817">
        <ele>79</ele>
        <time>2017-12-04T18:33:18Z</time>
      </trkpt>
      <trkpt lat="62.632510916836" lon="17.974240907832">
        <ele>79</ele>
        <time>2017-12-04T18:33:19Z</time>
      </trkpt>
      <trkpt lat="62.632479736168" lon="17.97421509158">
        <ele>79</ele>
        <time>2017-12-04T18:33:20Z</time>
      </trkpt>
      <trkpt lat="62.632452327355" lon="17.974186174025">
        <ele>79.2</ele>
        <time>2017-12-04T18:33:21Z</time>
      </trkpt>
      <trkpt lat="62.632414608805" lon="17.9741631238">
        <ele>79</ele>
        <time>2017-12-04T18:33:22Z</time>
      </trkpt>
      <trkpt lat="62.632383595775" lon="17.974138145738">
        <ele>79</ele>
        <time>2017-12-04T18:33:23Z</time>
      </trkpt>
      <trkpt lat="62.6323563546" lon="17.974115179332">
        <ele>79</ele>
        <time>2017-12-04T18:33:24Z</time>
      </trkpt>
      <trkpt lat="62.632319809516" lon="17.974085926501">
        <ele>79</ele>
        <time>2017-12-04T18:33:25Z</time>
      </trkpt>
      <trkpt lat="62.632284437898" lon="17.974065642303">
        <ele>78.8</ele>
        <time>2017-12-04T18:33:26Z</time>
      </trkpt>
      <trkpt lat="62.632250155927" lon="17.974040580422">
        <ele>78.8</ele>
        <time>2017-12-04T18:33:27Z</time>
      </trkpt>
      <trkpt lat="62.632220903096" lon="17.974011243772">
        <ele>78.8</ele>
        <time>2017-12-04T18:33:28Z</time>
      </trkpt>
      <trkpt lat="62.632193075188" lon="17.973969082815">
        <ele>78.8</ele>
        <time>2017-12-04T18:33:29Z</time>
      </trkpt>
      <trkpt lat="62.632164576728" lon="17.973932370093">
        <ele>78.8</ele>
        <time>2017-12-04T18:33:30Z</time>
      </trkpt>
      <trkpt lat="62.632137084096" lon="17.973904542185">
        <ele>78.8</ele>
        <time>2017-12-04T18:33:31Z</time>
      </trkpt>
      <trkpt lat="62.632099114089" lon="17.973869338205">
        <ele>78.8</ele>
        <time>2017-12-04T18:33:32Z</time>
      </trkpt>
      <trkpt lat="62.632064748299" lon="17.973833463673">
        <ele>78.8</ele>
        <time>2017-12-04T18:33:33Z</time>
      </trkpt>
      <trkpt lat="62.632035160192" lon="17.973798930245">
        <ele>78.6</ele>
        <time>2017-12-04T18:33:34Z</time>
      </trkpt>
      <trkpt lat="62.632004566257" lon="17.973765989378">
        <ele>78.6</ele>
        <time>2017-12-04T18:33:35Z</time>
      </trkpt>
      <trkpt lat="62.63197413996" lon="17.973736652728">
        <ele>78.6</ele>
        <time>2017-12-04T18:33:36Z</time>
      </trkpt>
      <trkpt lat="62.631942037283" lon="17.973711255571">
        <ele>78.2</ele>
        <time>2017-12-04T18:33:37Z</time>
      </trkpt>
      <trkpt lat="62.631911946262" lon="17.97368200274">
        <ele>78.2</ele>
        <time>2017-12-04T18:33:38Z</time>
      </trkpt>
      <trkpt lat="62.631884034535" lon="17.973652414633">
        <ele>78.2</ele>
        <time>2017-12-04T18:33:39Z</time>
      </trkpt>
      <trkpt lat="62.63185595517" lon="17.973616959196">
        <ele>78</ele>
        <time>2017-12-04T18:33:40Z</time>
      </trkpt>
      <trkpt lat="62.631830055099" lon="17.973583347777">
        <ele>78.2</ele>
        <time>2017-12-04T18:33:41Z</time>
      </trkpt>
      <trkpt lat="62.631801053725" lon="17.973546048322">
        <ele>78.2</ele>
        <time>2017-12-04T18:33:42Z</time>
      </trkpt>
      <trkpt lat="62.631773309636" lon="17.973511598713">
        <ele>78.2</ele>
        <time>2017-12-04T18:33:43Z</time>
      </trkpt>
      <trkpt lat="62.631748247755" lon="17.973474634534">
        <ele>78.2</ele>
        <time>2017-12-04T18:33:44Z</time>
      </trkpt>
      <trkpt lat="62.631721677132" lon="17.973440017287">
        <ele>78.2</ele>
        <time>2017-12-04T18:33:45Z</time>
      </trkpt>
      <trkpt lat="62.631693681586" lon="17.973405148583">
        <ele>78.2</ele>
        <time>2017-12-04T18:33:46Z</time>
      </trkpt>
      <trkpt lat="62.63166652423" lon="17.973358629038">
        <ele>78.2</ele>
        <time>2017-12-04T18:33:47Z</time>
      </trkpt>
      <trkpt lat="62.631641127073" lon="17.973314121149">
        <ele>78.4</ele>
        <time>2017-12-04T18:33:48Z</time>
      </trkpt>
      <trkpt lat="62.631614807907" lon="17.973269529441">
        <ele>78.4</ele>
        <time>2017-12-04T18:33:49Z</time>
      </trkpt>
      <trkpt lat="62.631585974171" lon="17.973222004068">
        <ele>78.4</ele>
        <time>2017-12-04T18:33:50Z</time>
      </trkpt>
      <trkpt lat="62.631558481539" lon="17.973180178387">
        <ele>78.2</ele>
        <time>2017-12-04T18:33:51Z</time>
      </trkpt>
      <trkpt lat="62.631533419658" lon="17.973126450408">
        <ele>78.2</ele>
        <time>2017-12-04T18:33:52Z</time>
      </trkpt>
      <trkpt lat="62.631508190139" lon="17.973077583931">
        <ele>78</ele>
        <time>2017-12-04T18:33:53Z</time>
      </trkpt>
      <trkpt lat="62.631485139914" lon="17.973032237852">
        <ele>78</ele>
        <time>2017-12-04T18:33:54Z</time>
      </trkpt>
      <trkpt lat="62.631459575119" lon="17.972975743846">
        <ele>77.6</ele>
        <time>2017-12-04T18:33:55Z</time>
      </trkpt>
      <trkpt lat="62.631435267609" lon="17.972925033351">
        <ele>77.6</ele>
        <time>2017-12-04T18:33:56Z</time>
      </trkpt>
      <trkpt lat="62.631415989239" lon="17.972862672015">
        <ele>77.4</ele>
        <time>2017-12-04T18:33:57Z</time>
      </trkpt>
      <trkpt lat="62.63138992153" lon="17.972801819421">
        <ele>77.2</ele>
        <time>2017-12-04T18:33:58Z</time>
      </trkpt>
      <trkpt lat="62.631367206581" lon="17.972744487225">
        <ele>77</ele>
        <time>2017-12-04T18:33:59Z</time>
      </trkpt>
      <trkpt lat="62.631344072537" lon="17.972690675427">
        <ele>76.8</ele>
        <time>2017-12-04T18:34:00Z</time>
      </trkpt>
      <trkpt lat="62.631321944321" lon="17.972638959104">
        <ele>76.6</ele>
        <time>2017-12-04T18:34:01Z</time>
      </trkpt>
      <trkpt lat="62.631299564648" lon="17.972578274148">
        <ele>76.4</ele>
        <time>2017-12-04T18:34:02Z</time>
      </trkpt>
      <trkpt lat="62.63127928045" lon="17.972522366875">
        <ele>75.8</ele>
        <time>2017-12-04T18:34:03Z</time>
      </trkpt>
      <trkpt lat="62.631256314044" lon="17.972458580616">
        <ele>75.6</ele>
        <time>2017-12-04T18:34:04Z</time>
      </trkpt>
      <trkpt lat="62.63123401819" lon="17.972401918972">
        <ele>75.4</ele>
        <time>2017-12-04T18:34:05Z</time>
      </trkpt>
      <trkpt lat="62.631215158915" lon="17.972345005871">
        <ele>75.4</ele>
        <time>2017-12-04T18:34:06Z</time>
      </trkpt>
      <trkpt lat="62.631192695423" lon="17.972275352282">
        <ele>75</ele>
        <time>2017-12-04T18:34:07Z</time>
      </trkpt>
      <trkpt lat="62.631173081777" lon="17.972210895471">
        <ele>75</ele>
        <time>2017-12-04T18:34:08Z</time>
      </trkpt>
      <trkpt lat="62.63115606652" lon="17.972153563275">
        <ele>75</ele>
        <time>2017-12-04T18:34:09Z</time>
      </trkpt>
      <trkpt lat="62.631139554177" lon="17.972071336836">
        <ele>74.6</ele>
        <time>2017-12-04T18:34:10Z</time>
      </trkpt>
      <trkpt lat="62.631122790377" lon="17.972008472586">
        <ele>74.4</ele>
        <time>2017-12-04T18:34:11Z</time>
      </trkpt>
      <trkpt lat="62.631104014921" lon="17.971936220608">
        <ele>74.4</ele>
        <time>2017-12-04T18:34:12Z</time>
      </trkpt>
      <trkpt lat="62.631089262777" lon="17.971862962802">
        <ele>74.2</ele>
        <time>2017-12-04T18:34:13Z</time>
      </trkpt>
      <trkpt lat="62.631071828425" lon="17.971784424399">
        <ele>73.8</ele>
        <time>2017-12-04T18:34:14Z</time>
      </trkpt>
      <trkpt lat="62.631054896987" lon="17.971711501869">
        <ele>73.8</ele>
        <time>2017-12-04T18:34:15Z</time>
      </trkpt>
      <trkpt lat="62.631036037712" lon="17.971642015918">
        <ele>73.6</ele>
        <time>2017-12-04T18:34:16Z</time>
      </trkpt>
      <trkpt lat="62.631018938636" lon="17.971561046764">
        <ele>73.4</ele>
        <time>2017-12-04T18:34:17Z</time>
      </trkpt>
      <trkpt lat="62.631003935035" lon="17.971489213881">
        <ele>73.2</ele>
        <time>2017-12-04T18:34:18Z</time>
      </trkpt>
      <trkpt lat="62.630989853443" lon="17.971416961903">
        <ele>73</ele>
        <time>2017-12-04T18:34:19Z</time>
      </trkpt>
      <trkpt lat="62.630975436575" lon="17.971334903102">
        <ele>72.8</ele>
        <time>2017-12-04T18:34:20Z</time>
      </trkpt>
      <trkpt lat="62.630960432974" lon="17.971252006111">
        <ele>72.6</ele>
        <time>2017-12-04T18:34:21Z</time>
      </trkpt>
      <trkpt lat="62.63094903359" lon="17.971176149916">
        <ele>72.4</ele>
        <time>2017-12-04T18:34:22Z</time>
      </trkpt>
      <trkpt lat="62.630937634206" lon="17.971095599857">
        <ele>72.6</ele>
        <time>2017-12-04T18:34:23Z</time>
      </trkpt>
      <trkpt lat="62.630926234822" lon="17.971017899644">
        <ele>72.4</ele>
        <time>2017-12-04T18:34:24Z</time>
      </trkpt>
      <trkpt lat="62.630915422171" lon="17.970936427576">
        <ele>72.4</ele>
        <time>2017-12-04T18:34:25Z</time>
      </trkpt>
      <trkpt lat="62.630905950624" lon="17.970864594693">
        <ele>72.2</ele>
        <time>2017-12-04T18:34:26Z</time>
      </trkpt>
      <trkpt lat="62.630897317267" lon="17.970783457901">
        <ele>72.2</ele>
        <time>2017-12-04T18:34:27Z</time>
      </trkpt>
      <trkpt lat="62.630888097177" lon="17.970706512059">
        <ele>72</ele>
        <time>2017-12-04T18:34:28Z</time>
      </trkpt>
      <trkpt lat="62.630876278698" lon="17.970623028335">
        <ele>71.8</ele>
        <time>2017-12-04T18:34:29Z</time>
      </trkpt>
      <trkpt lat="62.63086856735" lon="17.970543987018">
        <ele>71.4</ele>
        <time>2017-12-04T18:34:30Z</time>
      </trkpt>
      <trkpt lat="62.630859514898" lon="17.970464778063">
        <ele>71.2</ele>
        <time>2017-12-04T18:34:31Z</time>
      </trkpt>
      <trkpt lat="62.630854988672" lon="17.970387161669">
        <ele>71.2</ele>
        <time>2017-12-04T18:34:32Z</time>
      </trkpt>
      <trkpt lat="62.6308476126" lon="17.97031834627">
        <ele>71.2</ele>
        <time>2017-12-04T18:34:33Z</time>
      </trkpt>
      <trkpt lat="62.63083587794" lon="17.970203849516">
        <ele>70.8</ele>
        <time>2017-12-04T18:34:35Z</time>
      </trkpt>
      <trkpt lat="62.630829591515" lon="17.97016160474">
        <ele>70.8</ele>
        <time>2017-12-04T18:34:36Z</time>
      </trkpt>
      <trkpt lat="62.630825316746" lon="17.970152468469">
        <ele>71</ele>
        <time>2017-12-04T18:34:37Z</time>
      </trkpt>
      <trkpt lat="62.630819533235" lon="17.970146936415">
        <ele>71</ele>
        <time>2017-12-04T18:34:38Z</time>
      </trkpt>
      <trkpt lat="62.63081240862" lon="17.97012472438">
        <ele>70.8</ele>
        <time>2017-12-04T18:34:39Z</time>
      </trkpt>
      <trkpt lat="62.630820203787" lon="17.97009622592">
        <ele>70.8</ele>
        <time>2017-12-04T18:34:40Z</time>
      </trkpt>
      <trkpt lat="62.630821377253" lon="17.970075774084">
        <ele>70.8</ele>
        <time>2017-12-04T18:34:41Z</time>
      </trkpt>
      <trkpt lat="62.630830513524" lon="17.970064039424">
        <ele>70.8</ele>
        <time>2017-12-04T18:34:42Z</time>
      </trkpt>
      <trkpt lat="62.6308392307" lon="17.970050796022">
        <ele>71</ele>
        <time>2017-12-04T18:34:43Z</time>
      </trkpt>
      <trkpt lat="62.630851300636" lon="17.970046102158">
        <ele>70.8</ele>
        <time>2017-12-04T18:34:44Z</time>
      </trkpt>
      <trkpt lat="62.630860772183" lon="17.970049538737">
        <ele>70.8</ele>
        <time>2017-12-04T18:34:45Z</time>
      </trkpt>
      <trkpt lat="62.630858173794" lon="17.970061273397">
        <ele>70.8</ele>
        <time>2017-12-04T18:34:46Z</time>
      </trkpt>
      <trkpt lat="62.630865466047" lon="17.970075522627">
        <ele>70.8</ele>
        <time>2017-12-04T18:34:47Z</time>
      </trkpt>
      <trkpt lat="62.6308643764" lon="17.970089352762">
        <ele>70.6</ele>
        <time>2017-12-04T18:34:48Z</time>
      </trkpt>
      <trkpt lat="62.630861945649" lon="17.970096896472">
        <ele>70.6</ele>
        <time>2017-12-04T18:34:49Z</time>
      </trkpt>
      <trkpt lat="62.630858592889" lon="17.970102596164">
        <ele>70.8</ele>
        <time>2017-12-04T18:34:50Z</time>
      </trkpt>
      <trkpt lat="62.63085347993" lon="17.970110139874">
        <ele>70.8</ele>
        <time>2017-12-04T18:34:51Z</time>
      </trkpt>
      <trkpt lat="62.630860688364" lon="17.970125478751">
        <ele>70.8</ele>
        <time>2017-12-04T18:34:52Z</time>
      </trkpt>
      <trkpt lat="62.630862364744" lon="17.970138303058">
        <ele>70.8</ele>
        <time>2017-12-04T18:34:53Z</time>
      </trkpt>
      <trkpt lat="62.630862280925" lon="17.97015154646">
        <ele>71</ele>
        <time>2017-12-04T18:34:54Z</time>
      </trkpt>
      <trkpt lat="62.630866807151" lon="17.970160012179">
        <ele>71</ele>
        <time>2017-12-04T18:34:55Z</time>
      </trkpt>
      <trkpt lat="62.630867226246" lon="17.970171076287">
        <ele>71</ele>
        <time>2017-12-04T18:34:56Z</time>
      </trkpt>
      <trkpt lat="62.630868064436" lon="17.970192701589">
        <ele>70.8</ele>
        <time>2017-12-04T18:34:57Z</time>
      </trkpt>
      <trkpt lat="62.630868986445" lon="17.970192366313">
        <ele>71</ele>
        <time>2017-12-04T18:34:58Z</time>
      </trkpt>
      <trkpt lat="62.631136955788" lon="17.970016011137">
        <ele>69.8</ele>
        <time>2017-12-04T18:36:12Z</time>
      </trkpt>
      <trkpt lat="62.631172243587" lon="17.969993547645">
        <ele>69.8</ele>
        <time>2017-12-04T18:36:13Z</time>
      </trkpt>
      <trkpt lat="62.631207363748" lon="17.969973431085">
        <ele>69.8</ele>
        <time>2017-12-04T18:36:14Z</time>
      </trkpt>
      <trkpt lat="62.631239298787" lon="17.969954655629">
        <ele>69.6</ele>
        <time>2017-12-04T18:36:15Z</time>
      </trkpt>
      <trkpt lat="62.631271904378" lon="17.969935544897">
        <ele>69.6</ele>
        <time>2017-12-04T18:36:16Z</time>
      </trkpt>
      <trkpt lat="62.631305180521" lon="17.969917020898">
        <ele>69.2</ele>
        <time>2017-12-04T18:36:17Z</time>
      </trkpt>
      <trkpt lat="62.63133879194" lon="17.9698967367">
        <ele>69</ele>
        <time>2017-12-04T18:36:18Z</time>
      </trkpt>
      <trkpt lat="62.631371984264" lon="17.969877961244">
        <ele>68.8</ele>
        <time>2017-12-04T18:36:19Z</time>
      </trkpt>
      <trkpt lat="62.631405763321" lon="17.969859437245">
        <ele>68.6</ele>
        <time>2017-12-04T18:36:20Z</time>
      </trkpt>
      <trkpt lat="62.631437949817" lon="17.969841332341">
        <ele>68.4</ele>
        <time>2017-12-04T18:36:21Z</time>
      </trkpt>
      <trkpt lat="62.631471645055" lon="17.96982800512">
        <ele>68.2</ele>
        <time>2017-12-04T18:36:22Z</time>
      </trkpt>
      <trkpt lat="62.631503328637" lon="17.969810989863">
        <ele>68.2</ele>
        <time>2017-12-04T18:36:23Z</time>
      </trkpt>
      <trkpt lat="62.631535012219" lon="17.969790789484">
        <ele>68.2</ele>
        <time>2017-12-04T18:36:24Z</time>
      </trkpt>
      <trkpt lat="62.631565857611" lon="17.969771092019">
        <ele>68.2</ele>
        <time>2017-12-04T18:36:25Z</time>
      </trkpt>
      <trkpt lat="62.631596032451" lon="17.969748544708">
        <ele>68.4</ele>
        <time>2017-12-04T18:36:26Z</time>
      </trkpt>
      <trkpt lat="62.631630230603" lon="17.969720130067">
        <ele>68.4</ele>
        <time>2017-12-04T18:36:27Z</time>
      </trkpt>
      <trkpt lat="62.631664680212" lon="17.969684926087">
        <ele>68.4</ele>
        <time>2017-12-04T18:36:28Z</time>
      </trkpt>
      <trkpt lat="62.631696196156" lon="17.969644692967">
        <ele>68.2</ele>
        <time>2017-12-04T18:36:29Z</time>
      </trkpt>
      <trkpt lat="62.631728466471" lon="17.969601610001">
        <ele>68.2</ele>
        <time>2017-12-04T18:36:30Z</time>
      </trkpt>
      <trkpt lat="62.631758557492" lon="17.969567160392">
        <ele>68.2</ele>
        <time>2017-12-04T18:36:31Z</time>
      </trkpt>
      <trkpt lat="62.631792420368" lon="17.969535979724">
        <ele>68.2</ele>
        <time>2017-12-04T18:36:32Z</time>
      </trkpt>
      <trkpt lat="62.631822846665" lon="17.969518796829">
        <ele>68</ele>
        <time>2017-12-04T18:36:33Z</time>
      </trkpt>
      <trkpt lat="62.631857044817" lon="17.969513264775">
        <ele>67.6</ele>
        <time>2017-12-04T18:36:34Z</time>
      </trkpt>
      <trkpt lat="62.631888728399" lon="17.969512761861">
        <ele>67.6</ele>
        <time>2017-12-04T18:36:35Z</time>
      </trkpt>
      <trkpt lat="62.631917310678" lon="17.969514354422">
        <ele>67.6</ele>
        <time>2017-12-04T18:36:36Z</time>
      </trkpt>
      <trkpt lat="62.631949748631" lon="17.969513264775">
        <ele>67.6</ele>
        <time>2017-12-04T18:36:37Z</time>
      </trkpt>
      <trkpt lat="62.631979504376" lon="17.969511085481">
        <ele>67.4</ele>
        <time>2017-12-04T18:36:38Z</time>
      </trkpt>
      <trkpt lat="62.632009008664" lon="17.969512426585">
        <ele>67.6</ele>
        <time>2017-12-04T18:36:39Z</time>
      </trkpt>
      <trkpt lat="62.632040943703" lon="17.969510666386">
        <ele>67.8</ele>
        <time>2017-12-04T18:36:40Z</time>
      </trkpt>
      <trkpt lat="62.63206801724" lon="17.969505385789">
        <ele>67.6</ele>
        <time>2017-12-04T18:36:41Z</time>
      </trkpt>
      <trkpt lat="62.632100622831" lon="17.969499937554">
        <ele>67.8</ele>
        <time>2017-12-04T18:36:42Z</time>
      </trkpt>
      <trkpt lat="62.632131468223" lon="17.969491555654">
        <ele>67.8</ele>
        <time>2017-12-04T18:36:43Z</time>
      </trkpt>
      <trkpt lat="62.632162229796" lon="17.969484598677">
        <ele>67.8</ele>
        <time>2017-12-04T18:36:44Z</time>
      </trkpt>
      <trkpt lat="62.632192404636" lon="17.969478396071">
        <ele>67.8</ele>
        <time>2017-12-04T18:36:45Z</time>
      </trkpt>
      <trkpt lat="62.63222475877" lon="17.969473618388">
        <ele>68</ele>
        <time>2017-12-04T18:36:46Z</time>
      </trkpt>
      <trkpt lat="62.632258034913" lon="17.96947261256">
        <ele>68.2</ele>
        <time>2017-12-04T18:36:47Z</time>
      </trkpt>
      <trkpt lat="62.632290724323" lon="17.969468589248">
        <ele>68.4</ele>
        <time>2017-12-04T18:36:48Z</time>
      </trkpt>
      <trkpt lat="62.632321737353" lon="17.969465152669">
        <ele>68.6</ele>
        <time>2017-12-04T18:36:49Z</time>
      </trkpt>
      <trkpt lat="62.632354929677" lon="17.96946339247">
        <ele>68.8</ele>
        <time>2017-12-04T18:36:50Z</time>
      </trkpt>
      <trkpt lat="62.632386277983" lon="17.969463895384">
        <ele>68.8</ele>
        <time>2017-12-04T18:36:51Z</time>
      </trkpt>
      <trkpt lat="62.632417877746" lon="17.969464901212">
        <ele>68.8</ele>
        <time>2017-12-04T18:36:52Z</time>
      </trkpt>
      <trkpt lat="62.632447465853" lon="17.969466912868">
        <ele>68.6</ele>
        <time>2017-12-04T18:36:53Z</time>
      </trkpt>
      <trkpt lat="62.632476634865" lon="17.969466242316">
        <ele>68.6</ele>
        <time>2017-12-04T18:36:54Z</time>
      </trkpt>
      <trkpt lat="62.6325072288" lon="17.969468589248">
        <ele>68.4</ele>
        <time>2017-12-04T18:36:55Z</time>
      </trkpt>
      <trkpt lat="62.632536481631" lon="17.969473115474">
        <ele>68.2</ele>
        <time>2017-12-04T18:36:56Z</time>
      </trkpt>
      <trkpt lat="62.632568500489" lon="17.969480072451">
        <ele>68</ele>
        <time>2017-12-04T18:36:57Z</time>
      </trkpt>
      <trkpt lat="62.63260278246" lon="17.969484850134">
        <ele>68</ele>
        <time>2017-12-04T18:36:58Z</time>
      </trkpt>
      <trkpt lat="62.632634214585" lon="17.969484598677">
        <ele>67.8</ele>
        <time>2017-12-04T18:36:59Z</time>
      </trkpt>
      <trkpt lat="62.632664557063" lon="17.969485353048">
        <ele>67.8</ele>
        <time>2017-12-04T18:37:00Z</time>
      </trkpt>
      <trkpt lat="62.632694731903" lon="17.96949021455">
        <ele>68</ele>
        <time>2017-12-04T18:37:01Z</time>
      </trkpt>
      <trkpt lat="62.63269665974" lon="17.969491136559">
        <ele>68</ele>
        <time>2017-12-04T18:37:02Z</time>
      </trkpt>
      <trkpt lat="62.632747873149" lon="17.969499602278">
        <ele>68.2</ele>
        <time>2017-12-04T18:37:03Z</time>
      </trkpt>
      <trkpt lat="62.632779137636" lon="17.969505721065">
        <ele>68.6</ele>
        <time>2017-12-04T18:37:04Z</time>
      </trkpt>
      <trkpt lat="62.632808725743" lon="17.969512678042">
        <ele>68.8</ele>
        <time>2017-12-04T18:37:05Z</time>
      </trkpt>
      <trkpt lat="62.632835715461" lon="17.969521395218">
        <ele>68.8</ele>
        <time>2017-12-04T18:37:06Z</time>
      </trkpt>
      <trkpt lat="62.632864884473" lon="17.969531034403">
        <ele>68.8</ele>
        <time>2017-12-04T18:37:07Z</time>
      </trkpt>
      <trkpt lat="62.632892125648" lon="17.969537488466">
        <ele>68.8</ele>
        <time>2017-12-04T18:37:08Z</time>
      </trkpt>
      <trkpt lat="62.632919702099" lon="17.969543691072">
        <ele>68.8</ele>
        <time>2017-12-04T18:37:09Z</time>
      </trkpt>
      <trkpt lat="62.632946943274" lon="17.969552911162">
        <ele>68.8</ele>
        <time>2017-12-04T18:37:10Z</time>
      </trkpt>
      <trkpt lat="62.632973094802" lon="17.969560790148">
        <ele>69</ele>
        <time>2017-12-04T18:37:11Z</time>
      </trkpt>
      <trkpt lat="62.633003521099" lon="17.969568333858">
        <ele>69</ele>
        <time>2017-12-04T18:37:12Z</time>
      </trkpt>
      <trkpt lat="62.633031851921" lon="17.969575207016">
        <ele>69.2</ele>
        <time>2017-12-04T18:37:13Z</time>
      </trkpt>
      <trkpt lat="62.633060769476" lon="17.969582750726">
        <ele>69.2</ele>
        <time>2017-12-04T18:37:14Z</time>
      </trkpt>
      <trkpt lat="62.63308641809" lon="17.969585013839">
        <ele>69.4</ele>
        <time>2017-12-04T18:37:15Z</time>
      </trkpt>
      <trkpt lat="62.633115168007" lon="17.969588701875">
        <ele>69.6</ele>
        <time>2017-12-04T18:37:16Z</time>
      </trkpt>
      <trkpt lat="62.633145175209" lon="17.969596077947">
        <ele>69.6</ele>
        <time>2017-12-04T18:37:17Z</time>
      </trkpt>
      <trkpt lat="62.633177864619" lon="17.969603454019">
        <ele>69.8</ele>
        <time>2017-12-04T18:37:18Z</time>
      </trkpt>
      <trkpt lat="62.633208710011" lon="17.969611500643">
        <ele>70</ele>
        <time>2017-12-04T18:37:19Z</time>
      </trkpt>
      <trkpt lat="62.633238298118" lon="17.969622061837">
        <ele>70</ele>
        <time>2017-12-04T18:37:20Z</time>
      </trkpt>
      <trkpt lat="62.633267215673" lon="17.969634299411">
        <ele>70</ele>
        <time>2017-12-04T18:37:21Z</time>
      </trkpt>
      <trkpt lat="62.633297977246" lon="17.969645028243">
        <ele>70</ele>
        <time>2017-12-04T18:37:22Z</time>
      </trkpt>
      <trkpt lat="62.633325553697" lon="17.969667827011">
        <ele>70</ele>
        <time>2017-12-04T18:37:23Z</time>
      </trkpt>
      <trkpt lat="62.633349023017" lon="17.969703282448">
        <ele>69.6</ele>
        <time>2017-12-04T18:37:24Z</time>
      </trkpt>
      <trkpt lat="62.633367882292" lon="17.969747622699">
        <ele>69.4</ele>
        <time>2017-12-04T18:37:25Z</time>
      </trkpt>
      <trkpt lat="62.633379952228" lon="17.969799339022">
        <ele>69.4</ele>
        <time>2017-12-04T18:37:26Z</time>
      </trkpt>
      <trkpt lat="62.633386993024" lon="17.969859688702">
        <ele>69.4</ele>
        <time>2017-12-04T18:37:27Z</time>
      </trkpt>
      <trkpt lat="62.633391938345" lon="17.969926492445">
        <ele>69.6</ele>
        <time>2017-12-04T18:37:28Z</time>
      </trkpt>
      <trkpt lat="62.633396716028" lon="17.969984662831">
        <ele>69.8</ele>
        <time>2017-12-04T18:37:29Z</time>
      </trkpt>
      <trkpt lat="62.633399733512" lon="17.970053897325">
        <ele>70</ele>
        <time>2017-12-04T18:37:30Z</time>
      </trkpt>
      <trkpt lat="62.633403421548" lon="17.97011634248">
        <ele>70.2</ele>
        <time>2017-12-04T18:37:31Z</time>
      </trkpt>
      <trkpt lat="62.6334040921" lon="17.970179458187">
        <ele>70.4</ele>
        <time>2017-12-04T18:37:32Z</time>
      </trkpt>
      <trkpt lat="62.633403756824" lon="17.970243244446">
        <ele>70.6</ele>
        <time>2017-12-04T18:37:33Z</time>
      </trkpt>
      <trkpt lat="62.633406187575" lon="17.97030996437">
        <ele>70.8</ele>
        <time>2017-12-04T18:37:34Z</time>
      </trkpt>
      <trkpt lat="62.633405936118" lon="17.970373918267">
        <ele>71</ele>
        <time>2017-12-04T18:37:35Z</time>
      </trkpt>
      <trkpt lat="62.633407696317" lon="17.97042898735">
        <ele>71</ele>
        <time>2017-12-04T18:37:36Z</time>
      </trkpt>
      <trkpt lat="62.633412306362" lon="17.970491516324">
        <ele>71.2</ele>
        <time>2017-12-04T18:37:37Z</time>
      </trkpt>
      <trkpt lat="62.633415994398" lon="17.970554129117">
        <ele>71.4</ele>
        <time>2017-12-04T18:37:38Z</time>
      </trkpt>
      <trkpt lat="62.633417586959" lon="17.970612634779">
        <ele>71.4</ele>
        <time>2017-12-04T18:37:39Z</time>
      </trkpt>
      <trkpt lat="62.633419598615" lon="17.970672816821">
        <ele>71.6</ele>
        <time>2017-12-04T18:37:40Z</time>
      </trkpt>
      <trkpt lat="62.633420939719" lon="17.970729813741">
        <ele>71.6</ele>
        <time>2017-12-04T18:37:41Z</time>
      </trkpt>
      <trkpt lat="62.633422364642" lon="17.970794019095">
        <ele>71.8</ele>
        <time>2017-12-04T18:37:42Z</time>
      </trkpt>
      <trkpt lat="62.633423035194" lon="17.970858224449">
        <ele>71.8</ele>
        <time>2017-12-04T18:37:43Z</time>
      </trkpt>
      <trkpt lat="62.633423119013" lon="17.970918741767">
        <ele>72</ele>
        <time>2017-12-04T18:37:44Z</time>
      </trkpt>
      <trkpt lat="62.633423705746" lon="17.97097548723">
        <ele>72.2</ele>
        <time>2017-12-04T18:37:45Z</time>
      </trkpt>
      <trkpt lat="62.633424795393" lon="17.971028460838">
        <ele>72.4</ele>
        <time>2017-12-04T18:37:46Z</time>
      </trkpt>
      <trkpt lat="62.633425298307" lon="17.971099036436">
        <ele>72.6</ele>
        <time>2017-12-04T18:37:47Z</time>
      </trkpt>
      <trkpt lat="62.633424460117" lon="17.971169276758">
        <ele>72.8</ele>
        <time>2017-12-04T18:37:48Z</time>
      </trkpt>
      <trkpt lat="62.633425633583" lon="17.971235409949">
        <ele>73</ele>
        <time>2017-12-04T18:37:49Z</time>
      </trkpt>
      <trkpt lat="62.633425298307" lon="17.97129735219">
        <ele>73</ele>
        <time>2017-12-04T18:37:50Z</time>
      </trkpt>
      <trkpt lat="62.633423202832" lon="17.971356612223">
        <ele>73.2</ele>
        <time>2017-12-04T18:37:51Z</time>
      </trkpt>
      <trkpt lat="62.633418592787" lon="17.971423415966">
        <ele>73.2</ele>
        <time>2017-12-04T18:37:52Z</time>
      </trkpt>
      <trkpt lat="62.633417754597" lon="17.971486364035">
        <ele>73.4</ele>
        <time>2017-12-04T18:37:53Z</time>
      </trkpt>
      <trkpt lat="62.633415072389" lon="17.971550904665">
        <ele>73.6</ele>
        <time>2017-12-04T18:37:54Z</time>
      </trkpt>
      <trkpt lat="62.633412557819" lon="17.971614774743">
        <ele>73.8</ele>
        <time>2017-12-04T18:37:55Z</time>
      </trkpt>
      <trkpt lat="62.633410713801" lon="17.971677471355">
        <ele>73.8</ele>
        <time>2017-12-04T18:37:56Z</time>
      </trkpt>
      <trkpt lat="62.633408450688" lon="17.971746119116">
        <ele>73.8</ele>
        <time>2017-12-04T18:37:57Z</time>
      </trkpt>
      <trkpt lat="62.633402583358" lon="17.971810659746">
        <ele>74</ele>
        <time>2017-12-04T18:37:58Z</time>
      </trkpt>
      <trkpt lat="62.633395374924" lon="17.971875200376">
        <ele>74</ele>
        <time>2017-12-04T18:37:59Z</time>
      </trkpt>
      <trkpt lat="62.633387579757" lon="17.971935633875">
        <ele>74.2</ele>
        <time>2017-12-04T18:38:00Z</time>
      </trkpt>
      <trkpt lat="62.633380036047" lon="17.971988691302">
        <ele>74.2</ele>
        <time>2017-12-04T18:38:01Z</time>
      </trkpt>
      <trkpt lat="62.63337727002" lon="17.972052393742">
        <ele>74.2</ele>
        <time>2017-12-04T18:38:02Z</time>
      </trkpt>
      <trkpt lat="62.633371235052" lon="17.972110061214">
        <ele>74.2</ele>
        <time>2017-12-04T18:38:03Z</time>
      </trkpt>
      <trkpt lat="62.63336553536" lon="17.972178541337">
        <ele>74.4</ele>
        <time>2017-12-04T18:38:04Z</time>
      </trkpt>
      <trkpt lat="62.633356482908" lon="17.972240064483">
        <ele>74.4</ele>
        <time>2017-12-04T18:38:05Z</time>
      </trkpt>
      <trkpt lat="62.633346592266" lon="17.972298234869">
        <ele>74.6</ele>
        <time>2017-12-04T18:38:06Z</time>
      </trkpt>
      <trkpt lat="62.633340808755" lon="17.972360931481">
        <ele>74.8</ele>
        <time>2017-12-04T18:38:07Z</time>
      </trkpt>
      <trkpt lat="62.633330666656" lon="17.972421113523">
        <ele>75</ele>
        <time>2017-12-04T18:38:08Z</time>
      </trkpt>
      <trkpt lat="62.633319686367" lon="17.972479116271">
        <ele>75</ele>
        <time>2017-12-04T18:38:09Z</time>
      </trkpt>
      <trkpt lat="62.633312310295" lon="17.972537370476">
        <ele>75.2</ele>
        <time>2017-12-04T18:38:10Z</time>
      </trkpt>
      <trkpt lat="62.633300743273" lon="17.972591936645">
        <ele>75.4</ele>
        <time>2017-12-04T18:38:11Z</time>
      </trkpt>
      <trkpt lat="62.633286326405" lon="17.972653040696">
        <ele>75.6</ele>
        <time>2017-12-04T18:38:12Z</time>
      </trkpt>
      <trkpt lat="62.633270736071" lon="17.972708193598">
        <ele>75.8</ele>
        <time>2017-12-04T18:38:13Z</time>
      </trkpt>
      <trkpt lat="62.633258498497" lon="17.97276753745">
        <ele>75.8</ele>
        <time>2017-12-04T18:38:14Z</time>
      </trkpt>
      <trkpt lat="62.633247266751" lon="17.972824450551">
        <ele>76</ele>
        <time>2017-12-04T18:38:15Z</time>
      </trkpt>
      <trkpt lat="62.633231676417" lon="17.972880860738">
        <ele>76</ele>
        <time>2017-12-04T18:38:16Z</time>
      </trkpt>
      <trkpt lat="62.6332196903" lon="17.972941545694">
        <ele>76</ele>
        <time>2017-12-04T18:38:17Z</time>
      </trkpt>
      <trkpt lat="62.633207452726" lon="17.973006924514">
        <ele>76</ele>
        <time>2017-12-04T18:38:18Z</time>
      </trkpt>
      <trkpt lat="62.633198232636" lon="17.973066352185">
        <ele>76</ele>
        <time>2017-12-04T18:38:19Z</time>
      </trkpt>
      <trkpt lat="62.633188258175" lon="17.973124690209">
        <ele>76.2</ele>
        <time>2017-12-04T18:38:20Z</time>
      </trkpt>
      <trkpt lat="62.633177026429" lon="17.973178921102">
        <ele>76.2</ele>
        <time>2017-12-04T18:38:21Z</time>
      </trkpt>
      <trkpt lat="62.633160094991" lon="17.97324195299">
        <ele>76.4</ele>
        <time>2017-12-04T18:38:22Z</time>
      </trkpt>
      <trkpt lat="62.633147186865" lon="17.973300542471">
        <ele>76.4</ele>
        <time>2017-12-04T18:38:23Z</time>
      </trkpt>
      <trkpt lat="62.633134446377" lon="17.973358712857">
        <ele>76.6</ele>
        <time>2017-12-04T18:38:24Z</time>
      </trkpt>
      <trkpt lat="62.633123382269" lon="17.973418978718">
        <ele>76.6</ele>
        <time>2017-12-04T18:38:25Z</time>
      </trkpt>
      <trkpt lat="62.633113491627" lon="17.973476310914">
        <ele>76.6</ele>
        <time>2017-12-04T18:38:26Z</time>
      </trkpt>
      <trkpt lat="62.633103265709" lon="17.973531463816">
        <ele>76.6</ele>
        <time>2017-12-04T18:38:27Z</time>
      </trkpt>
      <trkpt lat="62.633091111954" lon="17.97359064003">
        <ele>76.8</ele>
        <time>2017-12-04T18:38:28Z</time>
      </trkpt>
      <trkpt lat="62.633074934887" lon="17.973644870923">
        <ele>76.8</ele>
        <time>2017-12-04T18:38:29Z</time>
      </trkpt>
      <trkpt lat="62.633060601838" lon="17.973697844531">
        <ele>77</ele>
        <time>2017-12-04T18:38:30Z</time>
      </trkpt>
      <trkpt lat="62.633046352608" lon="17.973748806483">
        <ele>77.2</ele>
        <time>2017-12-04T18:38:31Z</time>
      </trkpt>
      <trkpt lat="62.633030007903" lon="17.973807312145">
        <ele>77.2</ele>
        <time>2017-12-04T18:38:32Z</time>
      </trkpt>
      <trkpt lat="62.633015758673" lon="17.973865985445">
        <ele>77.6</ele>
        <time>2017-12-04T18:38:33Z</time>
      </trkpt>
      <trkpt lat="62.632998659597" lon="17.97393094517">
        <ele>77.6</ele>
        <time>2017-12-04T18:38:34Z</time>
      </trkpt>
      <trkpt lat="62.632984494186" lon="17.973997078361">
        <ele>77.6</ele>
        <time>2017-12-04T18:38:35Z</time>
      </trkpt>
      <trkpt lat="62.632972088974" lon="17.974055919299">
        <ele>77.8</ele>
        <time>2017-12-04T18:38:36Z</time>
      </trkpt>
      <trkpt lat="62.632955157536" lon="17.97412372887">
        <ele>77.8</ele>
        <time>2017-12-04T18:38:37Z</time>
      </trkpt>
      <trkpt lat="62.632941075944" lon="17.974180306695">
        <ele>77.8</ele>
        <time>2017-12-04T18:38:38Z</time>
      </trkpt>
      <trkpt lat="62.632927748723" lon="17.974239985823">
        <ele>77.8</ele>
        <time>2017-12-04T18:38:39Z</time>
      </trkpt>
      <trkpt lat="62.632911571656" lon="17.974310393783">
        <ele>77.8</ele>
        <time>2017-12-04T18:38:40Z</time>
      </trkpt>
      <trkpt lat="62.632896819512" lon="17.974369737635">
        <ele>77.8</ele>
        <time>2017-12-04T18:38:41Z</time>
      </trkpt>
      <trkpt lat="62.632875361848" lon="17.974436541378">
        <ele>78</ele>
        <time>2017-12-04T18:38:42Z</time>
      </trkpt>
      <trkpt lat="62.632852227804" lon="17.974491191366">
        <ele>78</ele>
        <time>2017-12-04T18:38:43Z</time>
      </trkpt>
      <trkpt lat="62.632823058792" lon="17.97452438369">
        <ele>78</ele>
        <time>2017-12-04T18:38:44Z</time>
      </trkpt>
      <trkpt lat="62.632792632495" lon="17.974549864666">
        <ele>78</ele>
        <time>2017-12-04T18:38:45Z</time>
      </trkpt>
      <trkpt lat="62.632762541474" lon="17.974513738677">
        <ele>78.2</ele>
        <time>2017-12-04T18:38:46Z</time>
      </trkpt>
      <trkpt lat="62.632726750761" lon="17.974500998189">
        <ele>78.2</ele>
        <time>2017-12-04T18:38:47Z</time>
      </trkpt>
      <trkpt lat="62.632691882057" lon="17.974476187765">
        <ele>78.2</ele>
        <time>2017-12-04T18:38:48Z</time>
      </trkpt>
      <trkpt lat="62.63266397033" lon="17.974450287694">
        <ele>78.2</ele>
        <time>2017-12-04T18:38:49Z</time>
      </trkpt>
      <trkpt lat="62.632635388051" lon="17.974427824202">
        <ele>78.2</ele>
        <time>2017-12-04T18:38:50Z</time>
      </trkpt>
      <trkpt lat="62.632609823256" lon="17.974405193072">
        <ele>78.2</ele>
        <time>2017-12-04T18:38:51Z</time>
      </trkpt>
      <trkpt lat="62.632569422498" lon="17.974384238322">
        <ele>78.2</ele>
        <time>2017-12-04T18:38:52Z</time>
      </trkpt>
      <trkpt lat="62.63253991821" lon="17.974360517545">
        <ele>78.2</ele>
        <time>2017-12-04T18:38:53Z</time>
      </trkpt>
      <trkpt lat="62.632512760854" lon="17.974327157583">
        <ele>78.2</ele>
        <time>2017-12-04T18:38:54Z</time>
      </trkpt>
      <trkpt lat="62.632485938774" lon="17.974293462345">
        <ele>78.2</ele>
        <time>2017-12-04T18:38:55Z</time>
      </trkpt>
      <trkpt lat="62.632458697599" lon="17.974265215342">
        <ele>78.2</ele>
        <time>2017-12-04T18:38:56Z</time>
      </trkpt>
      <trkpt lat="62.632432713709" lon="17.974236968339">
        <ele>78.2</ele>
        <time>2017-12-04T18:38:57Z</time>
      </trkpt>
      <trkpt lat="62.632399186109" lon="17.974209308069">
        <ele>78.2</ele>
        <time>2017-12-04T18:38:58Z</time>
      </trkpt>
      <trkpt lat="62.632370184735" lon="17.974185671111">
        <ele>78.2</ele>
        <time>2017-12-04T18:38:59Z</time>
      </trkpt>
      <trkpt lat="62.632340596628" lon="17.974157005013">
        <ele>78.2</ele>
        <time>2017-12-04T18:39:00Z</time>
      </trkpt>
      <trkpt lat="62.632314864195" lon="17.974134290064">
        <ele>78.2</ele>
        <time>2017-12-04T18:39:01Z</time>
      </trkpt>
      <trkpt lat="62.632284940812" lon="17.974114173504">
        <ele>78.2</ele>
        <time>2017-12-04T18:39:02Z</time>
      </trkpt>
      <trkpt lat="62.632255017429" lon="17.97409355403">
        <ele>78.2</ele>
        <time>2017-12-04T18:39:03Z</time>
      </trkpt>
      <trkpt lat="62.632222663295" lon="17.974072264004">
        <ele>78.2</ele>
        <time>2017-12-04T18:39:04Z</time>
      </trkpt>
      <trkpt lat="62.632194835387" lon="17.97404829177">
        <ele>78.2</ele>
        <time>2017-12-04T18:39:05Z</time>
      </trkpt>
      <trkpt lat="62.632168683859" lon="17.974020799138">
        <ele>78.2</ele>
        <time>2017-12-04T18:39:06Z</time>
      </trkpt>
      <trkpt lat="62.632140604494" lon="17.973980566018">
        <ele>78.2</ele>
        <time>2017-12-04T18:39:07Z</time>
      </trkpt>
      <trkpt lat="62.632112776586" lon="17.973944440029">
        <ele>78.2</ele>
        <time>2017-12-04T18:39:08Z</time>
      </trkpt>
      <trkpt lat="62.632085451592" lon="17.973912924085">
        <ele>78.2</ele>
        <time>2017-12-04T18:39:09Z</time>
      </trkpt>
      <trkpt lat="62.632053851829" lon="17.973883838892">
        <ele>78.2</ele>
        <time>2017-12-04T18:39:10Z</time>
      </trkpt>
      <trkpt lat="62.632023760808" lon="17.973856094803">
        <ele>78.2</ele>
        <time>2017-12-04T18:39:11Z</time>
      </trkpt>
      <trkpt lat="62.631991155217" lon="17.973823153936">
        <ele>78</ele>
        <time>2017-12-04T18:39:12Z</time>
      </trkpt>
      <trkpt lat="62.631961064196" lon="17.97379348201">
        <ele>77.8</ele>
        <time>2017-12-04T18:39:13Z</time>
      </trkpt>
      <trkpt lat="62.631929799709" lon="17.973762720437">
        <ele>77.8</ele>
        <time>2017-12-04T18:39:14Z</time>
      </trkpt>
      <trkpt lat="62.631900211602" lon="17.973727097362">
        <ele>77.6</ele>
        <time>2017-12-04T18:39:15Z</time>
      </trkpt>
      <trkpt lat="62.63186936621" lon="17.97368367912">
        <ele>77.4</ele>
        <time>2017-12-04T18:39:16Z</time>
      </trkpt>
      <trkpt lat="62.631837934085" lon="17.973641853439">
        <ele>77.4</ele>
        <time>2017-12-04T18:39:17Z</time>
      </trkpt>
      <trkpt lat="62.631803400657" lon="17.97359986012">
        <ele>77.4</ele>
        <time>2017-12-04T18:39:18Z</time>
      </trkpt>
      <trkpt lat="62.63176878341" lon="17.973560549009">
        <ele>77.2</ele>
        <time>2017-12-04T18:39:19Z</time>
      </trkpt>
      <trkpt lat="62.631736764552" lon="17.973517885138">
        <ele>77.4</ele>
        <time>2017-12-04T18:39:20Z</time>
      </trkpt>
      <trkpt lat="62.631706170617" lon="17.973478154932">
        <ele>77.4</ele>
        <time>2017-12-04T18:39:21Z</time>
      </trkpt>
      <trkpt lat="62.631668703524" lon="17.973429204636">
        <ele>77.4</ele>
        <time>2017-12-04T18:39:22Z</time>
      </trkpt>
      <trkpt lat="62.631638277227" lon="17.973382852729">
        <ele>77.2</ele>
        <time>2017-12-04T18:39:23Z</time>
      </trkpt>
      <trkpt lat="62.631608856758" lon="17.973332309872">
        <ele>77.2</ele>
        <time>2017-12-04T18:39:24Z</time>
      </trkpt>
      <trkpt lat="62.631581364126" lon="17.973281431739">
        <ele>77.4</ele>
        <time>2017-12-04T18:39:25Z</time>
      </trkpt>
      <trkpt lat="62.631556050788" lon="17.973229883054">
        <ele>77.2</ele>
        <time>2017-12-04T18:39:26Z</time>
      </trkpt>
      <trkpt lat="62.631528055242" lon="17.973169281917">
        <ele>77.4</ele>
        <time>2017-12-04T18:39:27Z</time>
      </trkpt>
      <trkpt lat="62.631498802411" lon="17.973105579477">
        <ele>77.4</ele>
        <time>2017-12-04T18:39:28Z</time>
      </trkpt>
      <trkpt lat="62.631471645055" lon="17.973039865381">
        <ele>77.4</ele>
        <time>2017-12-04T18:39:29Z</time>
      </trkpt>
      <trkpt lat="62.631443900966" lon="17.972971049982">
        <ele>77.4</ele>
        <time>2017-12-04T18:39:30Z</time>
      </trkpt>
      <trkpt lat="62.631418671447" lon="17.972908521008">
        <ele>77.2</ele>
        <time>2017-12-04T18:39:31Z</time>
      </trkpt>
      <trkpt lat="62.631393022833" lon="17.972841130532">
        <ele>76.8</ele>
        <time>2017-12-04T18:39:32Z</time>
      </trkpt>
      <trkpt lat="62.63136980497" lon="17.972774997341">
        <ele>76.4</ele>
        <time>2017-12-04T18:39:33Z</time>
      </trkpt>
      <trkpt lat="62.631343569623" lon="17.972702577725">
        <ele>75.8</ele>
        <time>2017-12-04T18:39:34Z</time>
      </trkpt>
      <trkpt lat="62.631318256285" lon="17.972632253584">
        <ele>75.4</ele>
        <time>2017-12-04T18:39:35Z</time>
      </trkpt>
      <trkpt lat="62.63129352968" lon="17.97256553366">
        <ele>75.2</ele>
        <time>2017-12-04T18:39:36Z</time>
      </trkpt>
      <trkpt lat="62.631271233826" lon="17.972507027998">
        <ele>75</ele>
        <time>2017-12-04T18:39:37Z</time>
      </trkpt>
      <trkpt lat="62.631248686515" lon="17.972440978626">
        <ele>74.6</ele>
        <time>2017-12-04T18:39:38Z</time>
      </trkpt>
      <trkpt lat="62.631225552471" lon="17.972380126032">
        <ele>74.4</ele>
        <time>2017-12-04T18:39:39Z</time>
      </trkpt>
      <trkpt lat="62.631205100635" lon="17.972311059176">
        <ele>74.4</ele>
        <time>2017-12-04T18:39:40Z</time>
      </trkpt>
      <trkpt lat="62.631185906084" lon="17.972240651216">
        <ele>74.2</ele>
        <time>2017-12-04T18:39:41Z</time>
      </trkpt>
      <trkpt lat="62.631165789524" lon="17.972155239655">
        <ele>73.8</ele>
        <time>2017-12-04T18:39:42Z</time>
      </trkpt>
      <trkpt lat="62.631146259697" lon="17.97206848699">
        <ele>73.8</ele>
        <time>2017-12-04T18:39:43Z</time>
      </trkpt>
      <trkpt lat="62.631128992983" lon="17.971990200044">
        <ele>73.6</ele>
        <time>2017-12-04T18:39:44Z</time>
      </trkpt>
      <trkpt lat="62.631111810088" lon="17.971917780428">
        <ele>73.6</ele>
        <time>2017-12-04T18:39:45Z</time>
      </trkpt>
      <trkpt lat="62.631092615537" lon="17.971846534278">
        <ele>73.2</ele>
        <time>2017-12-04T18:39:46Z</time>
      </trkpt>
      <trkpt lat="62.631072163701" lon="17.971763637287">
        <ele>73.4</ele>
        <time>2017-12-04T18:39:47Z</time>
      </trkpt>
      <trkpt lat="62.63105045458" lon="17.971678644821">
        <ele>73.2</ele>
        <time>2017-12-04T18:39:48Z</time>
      </trkpt>
      <trkpt lat="62.631033774599" lon="17.971599435866">
        <ele>72.8</ele>
        <time>2017-12-04T18:39:49Z</time>
      </trkpt>
      <trkpt lat="62.631019357731" lon="17.971522322386">
        <ele>72.8</ele>
        <time>2017-12-04T18:39:50Z</time>
      </trkpt>
      <trkpt lat="62.631003599759" lon="17.971449399856">
        <ele>72.6</ele>
        <time>2017-12-04T18:39:51Z</time>
      </trkpt>
      <trkpt lat="62.630995301678" lon="17.97137530386">
        <ele>72.4</ele>
        <time>2017-12-04T18:39:52Z</time>
      </trkpt>
      <trkpt lat="62.63098339938" lon="17.971298609475">
        <ele>72.2</ele>
        <time>2017-12-04T18:39:53Z</time>
      </trkpt>
      <trkpt lat="62.630970323616" lon="17.971221663633">
        <ele>72</ele>
        <time>2017-12-04T18:39:54Z</time>
      </trkpt>
      <trkpt lat="62.630957583128" lon="17.971143209049">
        <ele>72</ele>
        <time>2017-12-04T18:39:55Z</time>
      </trkpt>
      <trkpt lat="62.630946938115" lon="17.97106852632">
        <ele>72</ele>
        <time>2017-12-04T18:39:56Z</time>
      </trkpt>
      <trkpt lat="62.63094232807" lon="17.970995268514">
        <ele>71.6</ele>
        <time>2017-12-04T18:39:57Z</time>
      </trkpt>
      <trkpt lat="62.630930677229" lon="17.970913293532">
        <ele>71.4</ele>
        <time>2017-12-04T18:39:58Z</time>
      </trkpt>
      <trkpt lat="62.630920451311" lon="17.970838610803">
        <ele>71.2</ele>
        <time>2017-12-04T18:39:59Z</time>
      </trkpt>
      <trkpt lat="62.630911231221" lon="17.970759820943">
        <ele>70.8</ele>
        <time>2017-12-04T18:40:00Z</time>
      </trkpt>
      <trkpt lat="62.630901508217" lon="17.970679689979">
        <ele>70.8</ele>
        <time>2017-12-04T18:40:01Z</time>
      </trkpt>
      <trkpt lat="62.630892958679" lon="17.970603582327">
        <ele>70.8</ele>
        <time>2017-12-04T18:40:02Z</time>
      </trkpt>
      <trkpt lat="62.630882900399" lon="17.970526468847">
        <ele>70.6</ele>
        <time>2017-12-04T18:40:03Z</time>
      </trkpt>
      <trkpt lat="62.630873512671" lon="17.970444242408">
        <ele>70.4</ele>
        <time>2017-12-04T18:40:04Z</time>
      </trkpt>
      <trkpt lat="62.630868399712" lon="17.970368302394">
        <ele>70.2</ele>
        <time>2017-12-04T18:40:05Z</time>
      </trkpt>
      <trkpt lat="62.630858592889" lon="17.97024542374">
        <ele>70</ele>
        <time>2017-12-04T18:40:07Z</time>
      </trkpt>
      <trkpt lat="62.630853228473" lon="17.970207537552">
        <ele>69.8</ele>
        <time>2017-12-04T18:40:08Z</time>
      </trkpt>
      <trkpt lat="62.63085180355" lon="17.970171579201">
        <ele>69.8</ele>
        <time>2017-12-04T18:40:09Z</time>
      </trkpt>
      <trkpt lat="62.630854234301" lon="17.97013059171">
        <ele>69.8</ele>
        <time>2017-12-04T18:40:10Z</time>
      </trkpt>
      <trkpt lat="62.630856245957" lon="17.970101003603">
        <ele>70</ele>
        <time>2017-12-04T18:40:11Z</time>
      </trkpt>
      <trkpt lat="62.630860856002" lon="17.970076528455">
        <ele>70</ele>
        <time>2017-12-04T18:40:12Z</time>
      </trkpt>
      <trkpt lat="62.630866388056" lon="17.970056998628">
        <ele>70</ele>
        <time>2017-12-04T18:40:13Z</time>
      </trkpt>
      <trkpt lat="62.630871668653" lon="17.970038809905">
        <ele>70</ele>
        <time>2017-12-04T18:40:14Z</time>
      </trkpt>
      <trkpt lat="62.630877703621" lon="17.970031601471">
        <ele>70</ele>
        <time>2017-12-04T18:40:15Z</time>
      </trkpt>
      <trkpt lat="62.63087778744" lon="17.970032272023">
        <ele>70.2</ele>
        <time>2017-12-04T18:40:16Z</time>
      </trkpt>
      <trkpt lat="62.63120719611" lon="17.969999917889">
        <ele>69.4</ele>
        <time>2017-12-04T18:43:35Z</time>
      </trkpt>
      <trkpt lat="62.631233766733" lon="17.969982483537">
        <ele>69.4</ele>
        <time>2017-12-04T18:43:36Z</time>
      </trkpt>
      <trkpt lat="62.631264528306" lon="17.969965216823">
        <ele>69.4</ele>
        <time>2017-12-04T18:43:37Z</time>
      </trkpt>
      <trkpt lat="62.631293697318" lon="17.969946357548">
        <ele>69.6</ele>
        <time>2017-12-04T18:43:38Z</time>
      </trkpt>
      <trkpt lat="62.631321944321" lon="17.969935209621">
        <ele>69.4</ele>
        <time>2017-12-04T18:43:39Z</time>
      </trkpt>
      <trkpt lat="62.631347257659" lon="17.969922050038">
        <ele>69.4</ele>
        <time>2017-12-04T18:43:40Z</time>
      </trkpt>
      <trkpt lat="62.631378354508" lon="17.96990930955">
        <ele>69.6</ele>
        <time>2017-12-04T18:43:41Z</time>
      </trkpt>
      <trkpt lat="62.631407104425" lon="17.969894054492">
        <ele>69.6</ele>
        <time>2017-12-04T18:43:42Z</time>
      </trkpt>
      <trkpt lat="62.631437027808" lon="17.969878380339">
        <ele>69.6</ele>
        <time>2017-12-04T18:43:43Z</time>
      </trkpt>
      <trkpt lat="62.631464939535" lon="17.969882571289">
        <ele>69.6</ele>
        <time>2017-12-04T18:43:44Z</time>
      </trkpt>
      <trkpt lat="62.631494779099" lon="17.969864382566">
        <ele>69.4</ele>
        <time>2017-12-04T18:43:45Z</time>
      </trkpt>
      <trkpt lat="62.631522020274" lon="17.969849965698">
        <ele>69.2</ele>
        <time>2017-12-04T18:43:46Z</time>
      </trkpt>
      <trkpt lat="62.631554039132" lon="17.969830016776">
        <ele>69.2</ele>
        <time>2017-12-04T18:43:47Z</time>
      </trkpt>
      <trkpt lat="62.631583962515" lon="17.969802524144">
        <ele>68.8</ele>
        <time>2017-12-04T18:43:48Z</time>
      </trkpt>
      <trkpt lat="62.631613634441" lon="17.96978274286">
        <ele>68.2</ele>
        <time>2017-12-04T18:43:49Z</time>
      </trkpt>
      <trkpt lat="62.631643390186" lon="17.969757010427">
        <ele>67.8</ele>
        <time>2017-12-04T18:43:50Z</time>
      </trkpt>
      <trkpt lat="62.631670212266" lon="17.969717531678">
        <ele>67.4</ele>
        <time>2017-12-04T18:43:51Z</time>
      </trkpt>
      <trkpt lat="62.631698040174" lon="17.969684171716">
        <ele>67.4</ele>
        <time>2017-12-04T18:43:52Z</time>
      </trkpt>
      <trkpt lat="62.631726790091" lon="17.969646872261">
        <ele>67.6</ele>
        <time>2017-12-04T18:43:53Z</time>
      </trkpt>
      <trkpt lat="62.631757467845" lon="17.969610243358">
        <ele>67.6</ele>
        <time>2017-12-04T18:43:54Z</time>
      </trkpt>
      <trkpt lat="62.631785379572" lon="17.96958744459">
        <ele>67.8</ele>
        <time>2017-12-04T18:43:55Z</time>
      </trkpt>
      <trkpt lat="62.631815302955" lon="17.969576212844">
        <ele>68</ele>
        <time>2017-12-04T18:43:56Z</time>
      </trkpt>
      <trkpt lat="62.631843466139" lon="17.969586354943">
        <ele>68</ele>
        <time>2017-12-04T18:43:57Z</time>
      </trkpt>
      <trkpt lat="62.631867773649" lon="17.969588366599">
        <ele>67.8</ele>
        <time>2017-12-04T18:43:58Z</time>
      </trkpt>
      <trkpt lat="62.63189870286" lon="17.969583672735">
        <ele>67.8</ele>
        <time>2017-12-04T18:43:59Z</time>
      </trkpt>
      <trkpt lat="62.631926614587" lon="17.969586941676">
        <ele>68</ele>
        <time>2017-12-04T18:44:00Z</time>
      </trkpt>
      <trkpt lat="62.631952263201" lon="17.969586857857">
        <ele>68.2</ele>
        <time>2017-12-04T18:44:01Z</time>
      </trkpt>
      <trkpt lat="62.63198168367" lon="17.96958409183">
        <ele>68.2</ele>
        <time>2017-12-04T18:44:02Z</time>
      </trkpt>
      <trkpt lat="62.632009092483" lon="17.969578475957">
        <ele>68.2</ele>
        <time>2017-12-04T18:44:03Z</time>
      </trkpt>
      <trkpt lat="62.632033483812" lon="17.969574787921">
        <ele>68.4</ele>
        <time>2017-12-04T18:44:04Z</time>
      </trkpt>
      <trkpt lat="62.632066089403" lon="17.969564478184">
        <ele>68.4</ele>
        <time>2017-12-04T18:44:05Z</time>
      </trkpt>
      <trkpt lat="62.632093330578" lon="17.969555677189">
        <ele>68.6</ele>
        <time>2017-12-04T18:44:06Z</time>
      </trkpt>
      <trkpt lat="62.632121074667" lon="17.969547798203">
        <ele>68.6</ele>
        <time>2017-12-04T18:44:07Z</time>
      </trkpt>
      <trkpt lat="62.632151500964" lon="17.969533716611">
        <ele>68.4</ele>
        <time>2017-12-04T18:44:08Z</time>
      </trkpt>
      <trkpt lat="62.6321803347" lon="17.969519886476">
        <ele>68.4</ele>
        <time>2017-12-04T18:44:09Z</time>
      </trkpt>
      <trkpt lat="62.632208581703" lon="17.969513264775">
        <ele>68.4</ele>
        <time>2017-12-04T18:44:10Z</time>
      </trkpt>
      <trkpt lat="62.632236744887" lon="17.969502200667">
        <ele>68.4</ele>
        <time>2017-12-04T18:44:11Z</time>
      </trkpt>
      <trkpt lat="62.632265075709" lon="17.969494908414">
        <ele>68.4</ele>
        <time>2017-12-04T18:44:12Z</time>
      </trkpt>
      <trkpt lat="62.632297010748" lon="17.969493315853">
        <ele>68.6</ele>
        <time>2017-12-04T18:44:13Z</time>
      </trkpt>
      <trkpt lat="62.632322994638" lon="17.969492058568">
        <ele>68.6</ele>
        <time>2017-12-04T18:44:14Z</time>
      </trkpt>
      <trkpt lat="62.632352750383" lon="17.969492980577">
        <ele>68.6</ele>
        <time>2017-12-04T18:44:15Z</time>
      </trkpt>
      <trkpt lat="62.632376638798" lon="17.969491136559">
        <ele>68.6</ele>
        <time>2017-12-04T18:44:16Z</time>
      </trkpt>
      <trkpt lat="62.63240748419" lon="17.969488789627">
        <ele>68.8</ele>
        <time>2017-12-04T18:44:17Z</time>
      </trkpt>
      <trkpt lat="62.6324401736" lon="17.969490382188">
        <ele>69</ele>
        <time>2017-12-04T18:44:18Z</time>
      </trkpt>
      <trkpt lat="62.632467079499" lon="17.969485436867">
        <ele>68.8</ele>
        <time>2017-12-04T18:44:19Z</time>
      </trkpt>
      <trkpt lat="62.632497086701" lon="17.969493399672">
        <ele>68.8</ele>
        <time>2017-12-04T18:44:20Z</time>
      </trkpt>
      <trkpt lat="62.632524495514" lon="17.969494824595">
        <ele>68.8</ele>
        <time>2017-12-04T18:44:21Z</time>
      </trkpt>
      <trkpt lat="62.632546288454" lon="17.969497506803">
        <ele>68.6</ele>
        <time>2017-12-04T18:44:22Z</time>
      </trkpt>
      <trkpt lat="62.632579396959" lon="17.969504296142">
        <ele>68.6</ele>
        <time>2017-12-04T18:44:23Z</time>
      </trkpt>
      <trkpt lat="62.632603201555" lon="17.969505050513">
        <ele>68.6</ele>
        <time>2017-12-04T18:44:24Z</time>
      </trkpt>
      <trkpt lat="62.632632454386" lon="17.969506894531">
        <ele>68.4</ele>
        <time>2017-12-04T18:44:25Z</time>
      </trkpt>
      <trkpt lat="62.632659025009" lon="17.969510079653">
        <ele>68.4</ele>
        <time>2017-12-04T18:44:26Z</time>
      </trkpt>
      <trkpt lat="62.632683667795" lon="17.969514689698">
        <ele>68.4</ele>
        <time>2017-12-04T18:44:27Z</time>
      </trkpt>
      <trkpt lat="62.632712082436" lon="17.969520892304">
        <ele>68.6</ele>
        <time>2017-12-04T18:44:28Z</time>
      </trkpt>
      <trkpt lat="62.632740580896" lon="17.96952374215">
        <ele>68.8</ele>
        <time>2017-12-04T18:44:29Z</time>
      </trkpt>
      <trkpt lat="62.632769246994" lon="17.969533884249">
        <ele>68.8</ele>
        <time>2017-12-04T18:44:30Z</time>
      </trkpt>
      <trkpt lat="62.632797158721" lon="17.969540170674">
        <ele>69</ele>
        <time>2017-12-04T18:44:31Z</time>
      </trkpt>
      <trkpt lat="62.632817107643" lon="17.969544864538">
        <ele>69.2</ele>
        <time>2017-12-04T18:44:32Z</time>
      </trkpt>
      <trkpt lat="62.632847031026" lon="17.969551486239">
        <ele>69.4</ele>
        <time>2017-12-04T18:44:33Z</time>
      </trkpt>
      <trkpt lat="62.632868572509" lon="17.969553665533">
        <ele>69.4</ele>
        <time>2017-12-04T18:44:34Z</time>
      </trkpt>
      <trkpt lat="62.632897992978" lon="17.969553162619">
        <ele>69.6</ele>
        <time>2017-12-04T18:44:35Z</time>
      </trkpt>
      <trkpt lat="62.632925317972" lon="17.969557940302">
        <ele>69.6</ele>
        <time>2017-12-04T18:44:36Z</time>
      </trkpt>
      <trkpt lat="62.632948619654" lon="17.969557856483">
        <ele>69.6</ele>
        <time>2017-12-04T18:44:37Z</time>
      </trkpt>
      <trkpt lat="62.632981560521" lon="17.969567663306">
        <ele>69.6</ele>
        <time>2017-12-04T18:44:38Z</time>
      </trkpt>
      <trkpt lat="62.633013327922" lon="17.969571099885">
        <ele>69.8</ele>
        <time>2017-12-04T18:44:39Z</time>
      </trkpt>
      <trkpt lat="62.633036378147" lon="17.969572608627">
        <ele>69.8</ele>
        <time>2017-12-04T18:44:40Z</time>
      </trkpt>
      <trkpt lat="62.633067642634" lon="17.969580152337">
        <ele>69.8</ele>
        <time>2017-12-04T18:44:41Z</time>
      </trkpt>
      <trkpt lat="62.63309479999" lon="17.969581158165">
        <ele>69.6</ele>
        <time>2017-12-04T18:44:42Z</time>
      </trkpt>
      <trkpt lat="62.633118856043" lon="17.969577134853">
        <ele>69.8</ele>
        <time>2017-12-04T18:44:43Z</time>
      </trkpt>
      <trkpt lat="62.633149952892" lon="17.969588031323">
        <ele>69.8</ele>
        <time>2017-12-04T18:44:44Z</time>
      </trkpt>
      <trkpt lat="62.633176774972" lon="17.969594736843">
        <ele>69.8</ele>
        <time>2017-12-04T18:44:45Z</time>
      </trkpt>
      <trkpt lat="62.633201585396" lon="17.969608902254">
        <ele>69.8</ele>
        <time>2017-12-04T18:44:46Z</time>
      </trkpt>
      <trkpt lat="62.633231089684" lon="17.969618792896">
        <ele>69.8</ele>
        <time>2017-12-04T18:44:47Z</time>
      </trkpt>
      <trkpt lat="62.633258582316" lon="17.969626588063">
        <ele>69.8</ele>
        <time>2017-12-04T18:44:48Z</time>
      </trkpt>
      <trkpt lat="62.633282722188" lon="17.969647961908">
        <ele>69.8</ele>
        <time>2017-12-04T18:44:49Z</time>
      </trkpt>
      <trkpt lat="62.633308119345" lon="17.969677382377">
        <ele>69.8</ele>
        <time>2017-12-04T18:44:50Z</time>
      </trkpt>
      <trkpt lat="62.633326727163" lon="17.969716693488">
        <ele>69.6</ele>
        <time>2017-12-04T18:44:51Z</time>
      </trkpt>
      <trkpt lat="62.633338461823" lon="17.969760195549">
        <ele>69.6</ele>
        <time>2017-12-04T18:44:52Z</time>
      </trkpt>
      <trkpt lat="62.633349023017" lon="17.96981627046">
        <ele>69.8</ele>
        <time>2017-12-04T18:44:53Z</time>
      </trkpt>
      <trkpt lat="62.633352543415" lon="17.969870501353">
        <ele>70</ele>
        <time>2017-12-04T18:44:54Z</time>
      </trkpt>
      <trkpt lat="62.63335463889" lon="17.969925486617">
        <ele>70.2</ele>
        <time>2017-12-04T18:44:55Z</time>
      </trkpt>
      <trkpt lat="62.633359248935" lon="17.969975694198">
        <ele>70.6</ele>
        <time>2017-12-04T18:44:56Z</time>
      </trkpt>
      <trkpt lat="62.633361009134" lon="17.970033613127">
        <ele>70.8</ele>
        <time>2017-12-04T18:44:57Z</time>
      </trkpt>
      <trkpt lat="62.633363691342" lon="17.9700895204">
        <ele>71</ele>
        <time>2017-12-04T18:44:58Z</time>
      </trkpt>
      <trkpt lat="62.633370815957" lon="17.970146601139">
        <ele>71.2</ele>
        <time>2017-12-04T18:44:59Z</time>
      </trkpt>
      <trkpt lat="62.633368804301" lon="17.970210387398">
        <ele>71.4</ele>
        <time>2017-12-04T18:45:00Z</time>
      </trkpt>
      <trkpt lat="62.633373749622" lon="17.970265288843">
        <ele>71.6</ele>
        <time>2017-12-04T18:45:01Z</time>
      </trkpt>
      <trkpt lat="62.633375928916" lon="17.970318849184">
        <ele>71.8</ele>
        <time>2017-12-04T18:45:02Z</time>
      </trkpt>
      <trkpt lat="62.633381209513" lon="17.970381881072">
        <ele>71.8</ele>
        <time>2017-12-04T18:45:03Z</time>
      </trkpt>
      <trkpt lat="62.633384897549" lon="17.970425802228">
        <ele>72</ele>
        <time>2017-12-04T18:45:04Z</time>
      </trkpt>
      <trkpt lat="62.633389339956" lon="17.970501323147">
        <ele>72</ele>
        <time>2017-12-04T18:45:05Z</time>
      </trkpt>
      <trkpt lat="62.63339151925" lon="17.970556140773">
        <ele>72</ele>
        <time>2017-12-04T18:45:06Z</time>
      </trkpt>
      <trkpt lat="62.633396296933" lon="17.970609114381">
        <ele>72.2</ele>
        <time>2017-12-04T18:45:07Z</time>
      </trkpt>
      <trkpt lat="62.633400990797" lon="17.970674241744">
        <ele>72.2</ele>
        <time>2017-12-04T18:45:08Z</time>
      </trkpt>
      <trkpt lat="62.6334040921" lon="17.970727550628">
        <ele>72.2</ele>
        <time>2017-12-04T18:45:09Z</time>
      </trkpt>
      <trkpt lat="62.633408031593" lon="17.970783290263">
        <ele>72.4</ele>
        <time>2017-12-04T18:45:10Z</time>
      </trkpt>
      <trkpt lat="62.633408785964" lon="17.970852105662">
        <ele>72.4</ele>
        <time>2017-12-04T18:45:11Z</time>
      </trkpt>
      <trkpt lat="62.633412306362" lon="17.970903235252">
        <ele>72.6</ele>
        <time>2017-12-04T18:45:12Z</time>
      </trkpt>
      <trkpt lat="62.633412054905" lon="17.970976576877">
        <ele>72.8</ele>
        <time>2017-12-04T18:45:13Z</time>
      </trkpt>
      <trkpt lat="62.633413815104" lon="17.971033825254">
        <ele>73</ele>
        <time>2017-12-04T18:45:14Z</time>
      </trkpt>
      <trkpt lat="62.633414318018" lon="17.971094594029">
        <ele>73</ele>
        <time>2017-12-04T18:45:15Z</time>
      </trkpt>
      <trkpt lat="62.633413060733" lon="17.971151842406">
        <ele>73.2</ele>
        <time>2017-12-04T18:45:16Z</time>
      </trkpt>
      <trkpt lat="62.633414485656" lon="17.971208336412">
        <ele>73.2</ele>
        <time>2017-12-04T18:45:17Z</time>
      </trkpt>
      <trkpt lat="62.63341415038" lon="17.971276062164">
        <ele>73.4</ele>
        <time>2017-12-04T18:45:18Z</time>
      </trkpt>
      <trkpt lat="62.633409875611" lon="17.971334400188">
        <ele>73.4</ele>
        <time>2017-12-04T18:45:19Z</time>
      </trkpt>
      <trkpt lat="62.633408031593" lon="17.97139374404">
        <ele>73.4</ele>
        <time>2017-12-04T18:45:20Z</time>
      </trkpt>
      <trkpt lat="62.633404762652" lon="17.971456021557">
        <ele>73.4</ele>
        <time>2017-12-04T18:45:21Z</time>
      </trkpt>
      <trkpt lat="62.633404595014" lon="17.971503211654">
        <ele>73.6</ele>
        <time>2017-12-04T18:45:22Z</time>
      </trkpt>
      <trkpt lat="62.63339990115" lon="17.971567081732">
        <ele>73.6</ele>
        <time>2017-12-04T18:45:23Z</time>
      </trkpt>
      <trkpt lat="62.63339738658" lon="17.971629443068">
        <ele>73.6</ele>
        <time>2017-12-04T18:45:24Z</time>
      </trkpt>
      <trkpt lat="62.633394536734" lon="17.971679734468">
        <ele>73.8</ele>
        <time>2017-12-04T18:45:25Z</time>
      </trkpt>
      <trkpt lat="62.633389088499" lon="17.971742263442">
        <ele>73.8</ele>
        <time>2017-12-04T18:45:26Z</time>
      </trkpt>
      <trkpt lat="62.633385065187" lon="17.971796326697">
        <ele>73.8</ele>
        <time>2017-12-04T18:45:27Z</time>
      </trkpt>
      <trkpt lat="62.633378778762" lon="17.971851479599">
        <ele>73.8</ele>
        <time>2017-12-04T18:45:28Z</time>
      </trkpt>
      <trkpt lat="62.633372157061" lon="17.971917696609">
        <ele>74</ele>
        <time>2017-12-04T18:45:29Z</time>
      </trkpt>
      <trkpt lat="62.63336553536" lon="17.97197460971">
        <ele>74</ele>
        <time>2017-12-04T18:45:30Z</time>
      </trkpt>
      <trkpt lat="62.63335966803" lon="17.972033450648">
        <ele>74.2</ele>
        <time>2017-12-04T18:45:31Z</time>
      </trkpt>
      <trkpt lat="62.63334709518" lon="17.972084496419">
        <ele>74.4</ele>
        <time>2017-12-04T18:45:32Z</time>
      </trkpt>
      <trkpt lat="62.633344077696" lon="17.972144846099">
        <ele>74.6</ele>
        <time>2017-12-04T18:45:33Z</time>
      </trkpt>
      <trkpt lat="62.633339216194" lon="17.972193461119">
        <ele>74.6</ele>
        <time>2017-12-04T18:45:34Z</time>
      </trkpt>
      <trkpt lat="62.633326308068" lon="17.972261522147">
        <ele>74.8</ele>
        <time>2017-12-04T18:45:35Z</time>
      </trkpt>
      <trkpt lat="62.63331943491" lon="17.972316758868">
        <ele>75</ele>
        <time>2017-12-04T18:45:36Z</time>
      </trkpt>
      <trkpt lat="62.633310131001" lon="17.972369145743">
        <ele>75.2</ele>
        <time>2017-12-04T18:45:37Z</time>
      </trkpt>
      <trkpt lat="62.633298396341" lon="17.97243058507">
        <ele>75.4</ele>
        <time>2017-12-04T18:45:38Z</time>
      </trkpt>
      <trkpt lat="62.633291271726" lon="17.972487079076">
        <ele>75.4</ele>
        <time>2017-12-04T18:45:39Z</time>
      </trkpt>
      <trkpt lat="62.633281045808" lon="17.972546087652">
        <ele>75.6</ele>
        <time>2017-12-04T18:45:40Z</time>
      </trkpt>
      <trkpt lat="62.633271993356" lon="17.972607107884">
        <ele>75.6</ele>
        <time>2017-12-04T18:45:41Z</time>
      </trkpt>
      <trkpt lat="62.633263108542" lon="17.972661338777">
        <ele>75.6</ele>
        <time>2017-12-04T18:45:42Z</time>
      </trkpt>
      <trkpt lat="62.633250284235" lon="17.972725208855">
        <ele>75.8</ele>
        <time>2017-12-04T18:45:43Z</time>
      </trkpt>
      <trkpt lat="62.633239639222" lon="17.972780529395">
        <ele>75.8</ele>
        <time>2017-12-04T18:45:44Z</time>
      </trkpt>
      <trkpt lat="62.633230083856" lon="17.972838196867">
        <ele>75.8</ele>
        <time>2017-12-04T18:45:45Z</time>
      </trkpt>
      <trkpt lat="62.63321633754" lon="17.97288823681">
        <ele>75.8</ele>
        <time>2017-12-04T18:45:46Z</time>
      </trkpt>
      <trkpt lat="62.633204686699" lon="17.972945317549">
        <ele>76</ele>
        <time>2017-12-04T18:45:47Z</time>
      </trkpt>
      <trkpt lat="62.633191024202" lon="17.973010025817">
        <ele>76</ele>
        <time>2017-12-04T18:45:48Z</time>
      </trkpt>
      <trkpt lat="62.633181636474" lon="17.973059898122">
        <ele>76.2</ele>
        <time>2017-12-04T18:45:49Z</time>
      </trkpt>
      <trkpt lat="62.633169566538" lon="17.973118487603">
        <ele>76.4</ele>
        <time>2017-12-04T18:45:50Z</time>
      </trkpt>
      <trkpt lat="62.633158753887" lon="17.973171712668">
        <ele>76.4</ele>
        <time>2017-12-04T18:45:51Z</time>
      </trkpt>
      <trkpt lat="62.633151461634" lon="17.973215214729">
        <ele>76.4</ele>
        <time>2017-12-04T18:45:52Z</time>
      </trkpt>
      <trkpt lat="62.633135200748" lon="17.973277324608">
        <ele>76.6</ele>
        <time>2017-12-04T18:45:53Z</time>
      </trkpt>
      <trkpt lat="62.633122879355" lon="17.973331974596">
        <ele>76.6</ele>
        <time>2017-12-04T18:45:54Z</time>
      </trkpt>
      <trkpt lat="62.633111228514" lon="17.973384193833">
        <ele>76.6</ele>
        <time>2017-12-04T18:45:55Z</time>
      </trkpt>
      <trkpt lat="62.63309731456" lon="17.973440939296">
        <ele>76.8</ele>
        <time>2017-12-04T18:45:56Z</time>
      </trkpt>
      <trkpt lat="62.633087340099" lon="17.973492068886">
        <ele>76.8</ele>
        <time>2017-12-04T18:45:57Z</time>
      </trkpt>
      <trkpt lat="62.633075689258" lon="17.973550155453">
        <ele>77</ele>
        <time>2017-12-04T18:45:58Z</time>
      </trkpt>
      <trkpt lat="62.633061859123" lon="17.973612349151">
        <ele>77</ele>
        <time>2017-12-04T18:45:59Z</time>
      </trkpt>
      <trkpt lat="62.633052136119" lon="17.97366356256">
        <ele>77.2</ele>
        <time>2017-12-04T18:46:00Z</time>
      </trkpt>
      <trkpt lat="62.633039311812" lon="17.973721984403">
        <ele>77.4</ele>
        <time>2017-12-04T18:46:01Z</time>
      </trkpt>
      <trkpt lat="62.63302942117" lon="17.973773784545">
        <ele>77.4</ele>
        <time>2017-12-04T18:46:02Z</time>
      </trkpt>
      <trkpt lat="62.633016177768" lon="17.973833128397">
        <ele>77.4</ele>
        <time>2017-12-04T18:46:03Z</time>
      </trkpt>
      <trkpt lat="62.633003269642" lon="17.973882162512">
        <ele>77.6</ele>
        <time>2017-12-04T18:46:04Z</time>
      </trkpt>
      <trkpt lat="62.632989523326" lon="17.973943266563">
        <ele>77.6</ele>
        <time>2017-12-04T18:46:05Z</time>
      </trkpt>
      <trkpt lat="62.632973094802" lon="17.974002023682">
        <ele>77.8</ele>
        <time>2017-12-04T18:46:06Z</time>
      </trkpt>
      <trkpt lat="62.632961024866" lon="17.974059607335">
        <ele>77.8</ele>
        <time>2017-12-04T18:46:07Z</time>
      </trkpt>
      <trkpt lat="62.632947949102" lon="17.974121046662">
        <ele>77.8</ele>
        <time>2017-12-04T18:46:08Z</time>
      </trkpt>
      <trkpt lat="62.632932442587" lon="17.974184749102">
        <ele>78</ele>
        <time>2017-12-04T18:46:09Z</time>
      </trkpt>
      <trkpt lat="62.632923557773" lon="17.974240069642">
        <ele>78</ele>
        <time>2017-12-04T18:46:10Z</time>
      </trkpt>
      <trkpt lat="62.632906877792" lon="17.974299162037">
        <ele>78</ele>
        <time>2017-12-04T18:46:11Z</time>
      </trkpt>
      <trkpt lat="62.632894053485" lon="17.974355572224">
        <ele>78.2</ele>
        <time>2017-12-04T18:46:12Z</time>
      </trkpt>
      <trkpt lat="62.632882905558" lon="17.974420783406">
        <ele>78.2</ele>
        <time>2017-12-04T18:46:13Z</time>
      </trkpt>
      <trkpt lat="62.632862872817" lon="17.974478953792">
        <ele>78.2</ele>
        <time>2017-12-04T18:46:14Z</time>
      </trkpt>
      <trkpt lat="62.632833200891" lon="17.974515079781">
        <ele>78.4</ele>
        <time>2017-12-04T18:46:15Z</time>
      </trkpt>
      <trkpt lat="62.632806714087" lon="17.974526814441">
        <ele>78.4</ele>
        <time>2017-12-04T18:46:16Z</time>
      </trkpt>
      <trkpt lat="62.632774108496" lon="17.974510553555">
        <ele>78.4</ele>
        <time>2017-12-04T18:46:17Z</time>
      </trkpt>
      <trkpt lat="62.632740497077" lon="17.974497896886">
        <ele>78.4</ele>
        <time>2017-12-04T18:46:18Z</time>
      </trkpt>
      <trkpt lat="62.632714094092" lon="17.974474511385">
        <ele>78.6</ele>
        <time>2017-12-04T18:46:19Z</time>
      </trkpt>
      <trkpt lat="62.632681488501" lon="17.974448024581">
        <ele>78.6</ele>
        <time>2017-12-04T18:46:20Z</time>
      </trkpt>
      <trkpt lat="62.632653576774" lon="17.974425812546">
        <ele>78.6</ele>
        <time>2017-12-04T18:46:21Z</time>
      </trkpt>
      <trkpt lat="62.632627844341" lon="17.974414748438">
        <ele>78.6</ele>
        <time>2017-12-04T18:46:22Z</time>
      </trkpt>
      <trkpt lat="62.632600351709" lon="17.974389351281">
        <ele>78.6</ele>
        <time>2017-12-04T18:46:23Z</time>
      </trkpt>
      <trkpt lat="62.632567410842" lon="17.974356494233">
        <ele>78.6</ele>
        <time>2017-12-04T18:46:24Z</time>
      </trkpt>
      <trkpt lat="62.63254159459" lon="17.974330258886">
        <ele>78.8</ele>
        <time>2017-12-04T18:46:25Z</time>
      </trkpt>
      <trkpt lat="62.632511084474" lon="17.97430477791">
        <ele>78.6</ele>
        <time>2017-12-04T18:46:26Z</time>
      </trkpt>
      <trkpt lat="62.632484849127" lon="17.974282817332">
        <ele>78.6</ele>
        <time>2017-12-04T18:46:27Z</time>
      </trkpt>
      <trkpt lat="62.632456853581" lon="17.974259431831">
        <ele>78.6</ele>
        <time>2017-12-04T18:46:28Z</time>
      </trkpt>
      <trkpt lat="62.632427936026" lon="17.974224227851">
        <ele>78.6</ele>
        <time>2017-12-04T18:46:29Z</time>
      </trkpt>
      <trkpt lat="62.632403879973" lon="17.974193801554">
        <ele>78.6</ele>
        <time>2017-12-04T18:46:30Z</time>
      </trkpt>
      <trkpt lat="62.632375046237" lon="17.974171840976">
        <ele>78.6</ele>
        <time>2017-12-04T18:46:31Z</time>
      </trkpt>
      <trkpt lat="62.632346799234" lon="17.974144851258">
        <ele>78.4</ele>
        <time>2017-12-04T18:46:32Z</time>
      </trkpt>
      <trkpt lat="62.63231528329" lon="17.974115598427">
        <ele>78.6</ele>
        <time>2017-12-04T18:46:33Z</time>
      </trkpt>
      <trkpt lat="62.632291981608" lon="17.974097074428">
        <ele>78.6</ele>
        <time>2017-12-04T18:46:34Z</time>
      </trkpt>
      <trkpt lat="62.632262225863" lon="17.974057847136">
        <ele>78.6</ele>
        <time>2017-12-04T18:46:35Z</time>
      </trkpt>
      <trkpt lat="62.632236158154" lon="17.974028761943">
        <ele>78.6</ele>
        <time>2017-12-04T18:46:36Z</time>
      </trkpt>
      <trkpt lat="62.632212856472" lon="17.974002694234">
        <ele>78.4</ele>
        <time>2017-12-04T18:46:37Z</time>
      </trkpt>
      <trkpt lat="62.63218368746" lon="17.973976542706">
        <ele>78.4</ele>
        <time>2017-12-04T18:46:38Z</time>
      </trkpt>
      <trkpt lat="62.632153764077" lon="17.97394854716">
        <ele>78.4</ele>
        <time>2017-12-04T18:46:39Z</time>
      </trkpt>
      <trkpt lat="62.632128953653" lon="17.973917953225">
        <ele>78.2</ele>
        <time>2017-12-04T18:46:40Z</time>
      </trkpt>
      <trkpt lat="62.632100203736" lon="17.973875708449">
        <ele>78.2</ele>
        <time>2017-12-04T18:46:41Z</time>
      </trkpt>
      <trkpt lat="62.632075980045" lon="17.973846455618">
        <ele>78.2</ele>
        <time>2017-12-04T18:46:42Z</time>
      </trkpt>
      <trkpt lat="62.63204370973" lon="17.973820052633">
        <ele>78.2</ele>
        <time>2017-12-04T18:46:43Z</time>
      </trkpt>
      <trkpt lat="62.632014205442" lon="17.973784513377">
        <ele>78.2</ele>
        <time>2017-12-04T18:46:44Z</time>
      </trkpt>
      <trkpt lat="62.631987299543" lon="17.973755595822">
        <ele>78</ele>
        <time>2017-12-04T18:46:45Z</time>
      </trkpt>
      <trkpt lat="62.631963411128" lon="17.97371720672">
        <ele>78</ele>
        <time>2017-12-04T18:46:46Z</time>
      </trkpt>
      <trkpt lat="62.631933823021" lon="17.973685439319">
        <ele>78.2</ele>
        <time>2017-12-04T18:46:47Z</time>
      </trkpt>
      <trkpt lat="62.631904737828" lon="17.973652246995">
        <ele>78</ele>
        <time>2017-12-04T18:46:48Z</time>
      </trkpt>
      <trkpt lat="62.631878502481" lon="17.973619389947">
        <ele>78</ele>
        <time>2017-12-04T18:46:49Z</time>
      </trkpt>
      <trkpt lat="62.631847992365" lon="17.973581922854">
        <ele>78.2</ele>
        <time>2017-12-04T18:46:50Z</time>
      </trkpt>
      <trkpt lat="62.631819661543" lon="17.973551161281">
        <ele>78</ele>
        <time>2017-12-04T18:46:51Z</time>
      </trkpt>
      <trkpt lat="62.631794096748" lon="17.973525680305">
        <ele>78</ele>
        <time>2017-12-04T18:46:52Z</time>
      </trkpt>
      <trkpt lat="62.631760988243" lon="17.973484692814">
        <ele>77.8</ele>
        <time>2017-12-04T18:46:53Z</time>
      </trkpt>
      <trkpt lat="62.631738692389" lon="17.97344730954">
        <ele>77.8</ele>
        <time>2017-12-04T18:46:54Z</time>
      </trkpt>
      <trkpt lat="62.631715558345" lon="17.973411686465">
        <ele>78</ele>
        <time>2017-12-04T18:46:55Z</time>
      </trkpt>
      <trkpt lat="62.631689071541" lon="17.973372794449">
        <ele>78</ele>
        <time>2017-12-04T18:46:56Z</time>
      </trkpt>
      <trkpt lat="62.631664177298" lon="17.973341278505">
        <ele>77.8</ele>
        <time>2017-12-04T18:46:57Z</time>
      </trkpt>
      <trkpt lat="62.631637606675" lon="17.973301883575">
        <ele>77.8</ele>
        <time>2017-12-04T18:46:58Z</time>
      </trkpt>
      <trkpt lat="62.631609024396" lon="17.973253855288">
        <ele>78</ele>
        <time>2017-12-04T18:46:59Z</time>
      </trkpt>
      <trkpt lat="62.631587063818" lon="17.973212448702">
        <ele>78.2</ele>
        <time>2017-12-04T18:47:00Z</time>
      </trkpt>
      <trkpt lat="62.631562923946" lon="17.973164755691">
        <ele>78</ele>
        <time>2017-12-04T18:47:01Z</time>
      </trkpt>
      <trkpt lat="62.631540879549" lon="17.973120750716">
        <ele>78</ele>
        <time>2017-12-04T18:47:02Z</time>
      </trkpt>
      <trkpt lat="62.631515901487" lon="17.973071632782">
        <ele>77.8</ele>
        <time>2017-12-04T18:47:03Z</time>
      </trkpt>
      <trkpt lat="62.631495114375" lon="17.973026789617">
        <ele>77.6</ele>
        <time>2017-12-04T18:47:04Z</time>
      </trkpt>
      <trkpt lat="62.631469801037" lon="17.972961662254">
        <ele>77.4</ele>
        <time>2017-12-04T18:47:05Z</time>
      </trkpt>
      <trkpt lat="62.631446247898" lon="17.972916399994">
        <ele>77</ele>
        <time>2017-12-04T18:47:06Z</time>
      </trkpt>
      <trkpt lat="62.631423030035" lon="17.972866862965">
        <ele>76.8</ele>
        <time>2017-12-04T18:47:07Z</time>
      </trkpt>
      <trkpt lat="62.63139830343" lon="17.972807435294">
        <ele>76.6</ele>
        <time>2017-12-04T18:47:08Z</time>
      </trkpt>
      <trkpt lat="62.631376342852" lon="17.97275580279">
        <ele>76.4</ele>
        <time>2017-12-04T18:47:09Z</time>
      </trkpt>
      <trkpt lat="62.631354801369" lon="17.972711127263">
        <ele>76.2</ele>
        <time>2017-12-04T18:47:10Z</time>
      </trkpt>
      <trkpt lat="62.631334181895" lon="17.972649520298">
        <ele>75.8</ele>
        <time>2017-12-04T18:47:11Z</time>
      </trkpt>
      <trkpt lat="62.631320687036" lon="17.972601072916">
        <ele>75.8</ele>
        <time>2017-12-04T18:47:12Z</time>
      </trkpt>
      <trkpt lat="62.631297133897" lon="17.972550027145">
        <ele>75.6</ele>
        <time>2017-12-04T18:47:13Z</time>
      </trkpt>
      <trkpt lat="62.631273999853" lon="17.972490431836">
        <ele>75.6</ele>
        <time>2017-12-04T18:47:14Z</time>
      </trkpt>
      <trkpt lat="62.631259331528" lon="17.972432680545">
        <ele>75.4</ele>
        <time>2017-12-04T18:47:15Z</time>
      </trkpt>
      <trkpt lat="62.631241478081" lon="17.972385574267">
        <ele>75.4</ele>
        <time>2017-12-04T18:47:16Z</time>
      </trkpt>
      <trkpt lat="62.631222786444" lon="17.972325727501">
        <ele>75.2</ele>
        <time>2017-12-04T18:47:17Z</time>
      </trkpt>
      <trkpt lat="62.631207363748" lon="17.972261186871">
        <ele>75.2</ele>
        <time>2017-12-04T18:47:18Z</time>
      </trkpt>
      <trkpt lat="62.631184900256" lon="17.972206620702">
        <ele>75.2</ele>
        <time>2017-12-04T18:47:19Z</time>
      </trkpt>
      <trkpt lat="62.631166460076" lon="17.97213805676">
        <ele>75.2</ele>
        <time>2017-12-04T18:47:20Z</time>
      </trkpt>
      <trkpt lat="62.631151540294" lon="17.972077958537">
        <ele>74.6</ele>
        <time>2017-12-04T18:47:21Z</time>
      </trkpt>
      <trkpt lat="62.63113762634" lon="17.972027834775">
        <ele>74.4</ele>
        <time>2017-12-04T18:47:22Z</time>
      </trkpt>
      <trkpt lat="62.63111331883" lon="17.97195533134">
        <ele>74.4</ele>
        <time>2017-12-04T18:47:23Z</time>
      </trkpt>
      <trkpt lat="62.631093286089" lon="17.971901184266">
        <ele>74</ele>
        <time>2017-12-04T18:47:24Z</time>
      </trkpt>
      <trkpt lat="62.631078366307" lon="17.971843516794">
        <ele>74</ele>
        <time>2017-12-04T18:47:25Z</time>
      </trkpt>
      <trkpt lat="62.631060931955" lon="17.971775707223">
        <ele>73.6</ele>
        <time>2017-12-04T18:47:26Z</time>
      </trkpt>
      <trkpt lat="62.631051711865" lon="17.971722649796">
        <ele>73.6</ele>
        <time>2017-12-04T18:47:27Z</time>
      </trkpt>
      <trkpt lat="62.631037965549" lon="17.971658947356">
        <ele>73.4</ele>
        <time>2017-12-04T18:47:28Z</time>
      </trkpt>
      <trkpt lat="62.631020531197" lon="17.971580073677">
        <ele>73.2</ele>
        <time>2017-12-04T18:47:29Z</time>
      </trkpt>
      <trkpt lat="62.631007371614" lon="17.971517041789">
        <ele>73</ele>
        <time>2017-12-04T18:47:30Z</time>
      </trkpt>
      <trkpt lat="62.631000246999" lon="17.971454428996">
        <ele>73</ele>
        <time>2017-12-04T18:47:31Z</time>
      </trkpt>
      <trkpt lat="62.630994128212" lon="17.971392319117">
        <ele>73</ele>
        <time>2017-12-04T18:47:32Z</time>
      </trkpt>
      <trkpt lat="62.63098004662" lon="17.97132752703">
        <ele>73</ele>
        <time>2017-12-04T18:47:33Z</time>
      </trkpt>
      <trkpt lat="62.630969904521" lon="17.9712713683">
        <ele>72.8</ele>
        <time>2017-12-04T18:47:34Z</time>
      </trkpt>
      <trkpt lat="62.630960684431" lon="17.971193835725">
        <ele>72.8</ele>
        <time>2017-12-04T18:47:35Z</time>
      </trkpt>
      <trkpt lat="62.630951631979" lon="17.971123595403">
        <ele>72.6</ele>
        <time>2017-12-04T18:47:36Z</time>
      </trkpt>
      <trkpt lat="62.630939729681" lon="17.971063664818">
        <ele>72.6</ele>
        <time>2017-12-04T18:47:37Z</time>
      </trkpt>
      <trkpt lat="62.630925480451" lon="17.970986299881">
        <ele>72.6</ele>
        <time>2017-12-04T18:47:38Z</time>
      </trkpt>
      <trkpt lat="62.630916847094" lon="17.970921256337">
        <ele>72.4</ele>
        <time>2017-12-04T18:47:39Z</time>
      </trkpt>
      <trkpt lat="62.63090377133" lon="17.970861912485">
        <ele>72.4</ele>
        <time>2017-12-04T18:47:40Z</time>
      </trkpt>
      <trkpt lat="62.630897568724" lon="17.970787397394">
        <ele>72.4</ele>
        <time>2017-12-04T18:47:41Z</time>
      </trkpt>
      <trkpt lat="62.630887761901" lon="17.970727299171">
        <ele>72.2</ele>
        <time>2017-12-04T18:47:42Z</time>
      </trkpt>
      <trkpt lat="62.63087443468" lon="17.970658064677">
        <ele>72.2</ele>
        <time>2017-12-04T18:47:43Z</time>
      </trkpt>
      <trkpt lat="62.630864795495" lon="17.970591512391">
        <ele>72</ele>
        <time>2017-12-04T18:47:44Z</time>
      </trkpt>
      <trkpt lat="62.630856413595" lon="17.970533593462">
        <ele>72</ele>
        <time>2017-12-04T18:47:45Z</time>
      </trkpt>
      <trkpt lat="62.63085096536" lon="17.970480787492">
        <ele>71.6</ele>
        <time>2017-12-04T18:47:46Z</time>
      </trkpt>
      <trkpt lat="62.630847864057" lon="17.970419264346">
        <ele>71.6</ele>
        <time>2017-12-04T18:47:47Z</time>
      </trkpt>
      <trkpt lat="62.630843170193" lon="17.970362686521">
        <ele>71.2</ele>
        <time>2017-12-04T18:47:48Z</time>
      </trkpt>
      <trkpt lat="62.630836883768" lon="17.97031834627">
        <ele>71.2</ele>
        <time>2017-12-04T18:47:49Z</time>
      </trkpt>
      <trkpt lat="62.630834704474" lon="17.970227402655">
        <ele>71.2</ele>
        <time>2017-12-04T18:47:51Z</time>
      </trkpt>
      <trkpt lat="62.630834704474" lon="17.97020854338">
        <ele>71.2</ele>
        <time>2017-12-04T18:47:52Z</time>
      </trkpt>
      <trkpt lat="62.630831770809" lon="17.970179542006">
        <ele>71.2</ele>
        <time>2017-12-04T18:47:53Z</time>
      </trkpt>
      <trkpt lat="62.630832357542" lon="17.970163616396">
        <ele>71</ele>
        <time>2017-12-04T18:47:54Z</time>
      </trkpt>
      <trkpt lat="62.630832357542" lon="17.970145762949">
        <ele>71.2</ele>
        <time>2017-12-04T18:47:55Z</time>
      </trkpt>
      <trkpt lat="62.630832776637" lon="17.970130172615">
        <ele>71.2</ele>
        <time>2017-12-04T18:47:56Z</time>
      </trkpt>
      <trkpt lat="62.63083420156" lon="17.970134279746">
        <ele>71</ele>
        <time>2017-12-04T18:47:57Z</time>
      </trkpt>
      <trkpt lat="62.630833195732" lon="17.970134363565">
        <ele>71</ele>
        <time>2017-12-04T18:47:58Z</time>
      </trkpt>
      <trkpt lat="62.630939562043" lon="17.970521355888">
        <ele>71</ele>
        <time>2017-12-04T18:48:44Z</time>
      </trkpt>
      <trkpt lat="62.630945848468" lon="17.970561756646">
        <ele>70.8</ele>
        <time>2017-12-04T18:48:45Z</time>
      </trkpt>
      <trkpt lat="62.630951380522" lon="17.970608443829">
        <ele>71</ele>
        <time>2017-12-04T18:48:46Z</time>
      </trkpt>
      <trkpt lat="62.630955655291" lon="17.97065697503">
        <ele>71</ele>
        <time>2017-12-04T18:48:47Z</time>
      </trkpt>
      <trkpt lat="62.630961941716" lon="17.970706009145">
        <ele>71.2</ele>
        <time>2017-12-04T18:48:48Z</time>
      </trkpt>
      <trkpt lat="62.630967054675" lon="17.97074414679">
        <ele>71.4</ele>
        <time>2017-12-04T18:48:49Z</time>
      </trkpt>
      <trkpt lat="62.630974766023" lon="17.970800976072">
        <ele>71.4</ele>
        <time>2017-12-04T18:48:50Z</time>
      </trkpt>
      <trkpt lat="62.630980968629" lon="17.970852608576">
        <ele>71.6</ele>
        <time>2017-12-04T18:48:51Z</time>
      </trkpt>
      <trkpt lat="62.630986333045" lon="17.970892841696">
        <ele>71.6</ele>
        <time>2017-12-04T18:48:52Z</time>
      </trkpt>
      <trkpt lat="62.630996475144" lon="17.970970290452">
        <ele>71.8</ele>
        <time>2017-12-04T18:48:53Z</time>
      </trkpt>
      <trkpt lat="62.631002007198" lon="17.971012451409">
        <ele>71.8</ele>
        <time>2017-12-04T18:48:54Z</time>
      </trkpt>
      <trkpt lat="62.631009550908" lon="17.971062407533">
        <ele>72.2</ele>
        <time>2017-12-04T18:48:55Z</time>
      </trkpt>
      <trkpt lat="62.631017262256" lon="17.971117728073">
        <ele>72.2</ele>
        <time>2017-12-04T18:48:56Z</time>
      </trkpt>
      <trkpt lat="62.631027404355" lon="17.971162068324">
        <ele>72.2</ele>
        <time>2017-12-04T18:48:57Z</time>
      </trkpt>
      <trkpt lat="62.631035702436" lon="17.971216383036">
        <ele>72.4</ele>
        <time>2017-12-04T18:48:58Z</time>
      </trkpt>
      <trkpt lat="62.63104458725" lon="17.971269440463">
        <ele>72.4</ele>
        <time>2017-12-04T18:48:59Z</time>
      </trkpt>
      <trkpt lat="62.631052801512" lon="17.971321072967">
        <ele>72.4</ele>
        <time>2017-12-04T18:49:00Z</time>
      </trkpt>
      <trkpt lat="62.631060680498" lon="17.97137614205">
        <ele>72.4</ele>
        <time>2017-12-04T18:49:01Z</time>
      </trkpt>
      <trkpt lat="62.631070654959" lon="17.971417464817">
        <ele>72.4</ele>
        <time>2017-12-04T18:49:02Z</time>
      </trkpt>
      <trkpt lat="62.631082641076" lon="17.971472617719">
        <ele>72.4</ele>
        <time>2017-12-04T18:49:03Z</time>
      </trkpt>
      <trkpt lat="62.63109152589" lon="17.971519388721">
        <ele>72.6</ele>
        <time>2017-12-04T18:49:04Z</time>
      </trkpt>
      <trkpt lat="62.63110158417" lon="17.971574122528">
        <ele>72.6</ele>
        <time>2017-12-04T18:49:05Z</time>
      </trkpt>
      <trkpt lat="62.631111390993" lon="17.971629107792">
        <ele>72.8</ele>
        <time>2017-12-04T18:49:06Z</time>
      </trkpt>
      <trkpt lat="62.63112170073" lon="17.97166447941">
        <ele>73</ele>
        <time>2017-12-04T18:49:07Z</time>
      </trkpt>
      <trkpt lat="62.631131172277" lon="17.97172482909">
        <ele>73.2</ele>
        <time>2017-12-04T18:49:08Z</time>
      </trkpt>
      <trkpt lat="62.631140476186" lon="17.971777048327">
        <ele>73.2</ele>
        <time>2017-12-04T18:49:09Z</time>
      </trkpt>
      <trkpt lat="62.631153049036" lon="17.971817784361">
        <ele>73.4</ele>
        <time>2017-12-04T18:49:10Z</time>
      </trkpt>
      <trkpt lat="62.6311661248" lon="17.971866818476">
        <ele>73.6</ele>
        <time>2017-12-04T18:49:11Z</time>
      </trkpt>
      <trkpt lat="62.631180960763" lon="17.971908895614">
        <ele>73.6</ele>
        <time>2017-12-04T18:49:12Z</time>
      </trkpt>
      <trkpt lat="62.631196048183" lon="17.971952313856">
        <ele>73.6</ele>
        <time>2017-12-04T18:49:13Z</time>
      </trkpt>
      <trkpt lat="62.631209459223" lon="17.971998162849">
        <ele>73.6</ele>
        <time>2017-12-04T18:49:14Z</time>
      </trkpt>
      <trkpt lat="62.631219182227" lon="17.972040994358">
        <ele>73.8</ele>
        <time>2017-12-04T18:49:15Z</time>
      </trkpt>
      <trkpt lat="62.631230833068" lon="17.972083322953">
        <ele>73.8</ele>
        <time>2017-12-04T18:49:16Z</time>
      </trkpt>
      <trkpt lat="62.631238544416" lon="17.972119029847">
        <ele>74</ele>
        <time>2017-12-04T18:49:17Z</time>
      </trkpt>
      <trkpt lat="62.631252793646" lon="17.972159765881">
        <ele>74</ele>
        <time>2017-12-04T18:49:18Z</time>
      </trkpt>
      <trkpt lat="62.631266959057" lon="17.972207542711">
        <ele>74.2</ele>
        <time>2017-12-04T18:49:19Z</time>
      </trkpt>
      <trkpt lat="62.631283303762" lon="17.972263366165">
        <ele>74.4</ele>
        <time>2017-12-04T18:49:20Z</time>
      </trkpt>
      <trkpt lat="62.631298977915" lon="17.97230569476">
        <ele>74.6</ele>
        <time>2017-12-04T18:49:21Z</time>
      </trkpt>
      <trkpt lat="62.631315406439" lon="17.97234928064">
        <ele>74.8</ele>
        <time>2017-12-04T18:49:22Z</time>
      </trkpt>
      <trkpt lat="62.631329488031" lon="17.97238448462">
        <ele>75</ele>
        <time>2017-12-04T18:49:23Z</time>
      </trkpt>
      <trkpt lat="62.631343066709" lon="17.972429411604">
        <ele>75</ele>
        <time>2017-12-04T18:49:24Z</time>
      </trkpt>
      <trkpt lat="62.631359243776" lon="17.972476601701">
        <ele>75.2</ele>
        <time>2017-12-04T18:49:25Z</time>
      </trkpt>
      <trkpt lat="62.631373744463" lon="17.97250602217">
        <ele>75.2</ele>
        <time>2017-12-04T18:49:26Z</time>
      </trkpt>
      <trkpt lat="62.631387155503" lon="17.972545752376">
        <ele>75.2</ele>
        <time>2017-12-04T18:49:27Z</time>
      </trkpt>
      <trkpt lat="62.63140249438" lon="17.972591936645">
        <ele>75.2</ele>
        <time>2017-12-04T18:49:28Z</time>
      </trkpt>
      <trkpt lat="62.631412971755" lon="17.972620435105">
        <ele>75.4</ele>
        <time>2017-12-04T18:49:29Z</time>
      </trkpt>
      <trkpt lat="62.631430238469" lon="17.972678102577">
        <ele>75.4</ele>
        <time>2017-12-04T18:49:30Z</time>
      </trkpt>
      <trkpt lat="62.631444236242" lon="17.97270802596">
        <ele>75.6</ele>
        <time>2017-12-04T18:49:31Z</time>
      </trkpt>
      <trkpt lat="62.631455467988" lon="17.972734764221">
        <ele>75.6</ele>
        <time>2017-12-04T18:49:32Z</time>
      </trkpt>
      <trkpt lat="62.631471728874" lon="17.972774997341">
        <ele>75.8</ele>
        <time>2017-12-04T18:49:33Z</time>
      </trkpt>
      <trkpt lat="62.631485726647" lon="17.972804585448">
        <ele>76</ele>
        <time>2017-12-04T18:49:34Z</time>
      </trkpt>
      <trkpt lat="62.631504418284" lon="17.972852865192">
        <ele>76.2</ele>
        <time>2017-12-04T18:49:35Z</time>
      </trkpt>
      <trkpt lat="62.63151732641" lon="17.972889494095">
        <ele>76.4</ele>
        <time>2017-12-04T18:49:36Z</time>
      </trkpt>
      <trkpt lat="62.631530569812" lon="17.972918746926">
        <ele>76.4</ele>
        <time>2017-12-04T18:49:37Z</time>
      </trkpt>
      <trkpt lat="62.631546579241" lon="17.972960656426">
        <ele>76.6</ele>
        <time>2017-12-04T18:49:38Z</time>
      </trkpt>
      <trkpt lat="62.631562756308" lon="17.972993429655">
        <ele>76.6</ele>
        <time>2017-12-04T18:49:39Z</time>
      </trkpt>
      <trkpt lat="62.631579603927" lon="17.973025029418">
        <ele>76.8</ele>
        <time>2017-12-04T18:49:40Z</time>
      </trkpt>
      <trkpt lat="62.631594858985" lon="17.973055958629">
        <ele>76.8</ele>
        <time>2017-12-04T18:49:41Z</time>
      </trkpt>
      <trkpt lat="62.631610700776" lon="17.973079092673">
        <ele>77</ele>
        <time>2017-12-04T18:49:42Z</time>
      </trkpt>
      <trkpt lat="62.631629392413" lon="17.973115637757">
        <ele>77.2</ele>
        <time>2017-12-04T18:49:43Z</time>
      </trkpt>
      <trkpt lat="62.63164305491" lon="17.973140196724">
        <ele>77.2</ele>
        <time>2017-12-04T18:49:44Z</time>
      </trkpt>
      <trkpt lat="62.631659231977" lon="17.973161905845">
        <ele>77.4</ele>
        <time>2017-12-04T18:49:45Z</time>
      </trkpt>
      <trkpt lat="62.63167574432" lon="17.973190152848">
        <ele>77.6</ele>
        <time>2017-12-04T18:49:46Z</time>
      </trkpt>
      <trkpt lat="62.63169250812" lon="17.973205240268">
        <ele>77.8</ele>
        <time>2017-12-04T18:49:47Z</time>
      </trkpt>
      <trkpt lat="62.631710277748" lon="17.973226111199">
        <ele>77.8</ele>
        <time>2017-12-04T18:49:48Z</time>
      </trkpt>
      <trkpt lat="62.631729137023" lon="17.973241198619">
        <ele>77.8</ele>
        <time>2017-12-04T18:49:49Z</time>
      </trkpt>
      <trkpt lat="62.631744978814" lon="17.973259052066">
        <ele>77.8</ele>
        <time>2017-12-04T18:49:50Z</time>
      </trkpt>
      <trkpt lat="62.631761994071" lon="17.973283946309">
        <ele>78</ele>
        <time>2017-12-04T18:49:51Z</time>
      </trkpt>
      <trkpt lat="62.63178135626" lon="17.973312444769">
        <ele>78</ele>
        <time>2017-12-04T18:49:52Z</time>
      </trkpt>
      <trkpt lat="62.631802897743" lon="17.97333834484">
        <ele>78</ele>
        <time>2017-12-04T18:49:53Z</time>
      </trkpt>
      <trkpt lat="62.631827372891" lon="17.973363993454">
        <ele>78</ele>
        <time>2017-12-04T18:49:54Z</time>
      </trkpt>
      <trkpt lat="62.631850590754" lon="17.973391737543">
        <ele>78.2</ele>
        <time>2017-12-04T18:49:55Z</time>
      </trkpt>
      <trkpt lat="62.631869533848" lon="17.973419146356">
        <ele>78.2</ele>
        <time>2017-12-04T18:49:56Z</time>
      </trkpt>
      <trkpt lat="62.631890237141" lon="17.973444962608">
        <ele>78.2</ele>
        <time>2017-12-04T18:49:57Z</time>
      </trkpt>
      <trkpt lat="62.631910856615" lon="17.973471952326">
        <ele>78.4</ele>
        <time>2017-12-04T18:49:58Z</time>
      </trkpt>
      <trkpt lat="62.631934409754" lon="17.973498606768">
        <ele>78.4</ele>
        <time>2017-12-04T18:49:59Z</time>
      </trkpt>
      <trkpt lat="62.631959303997" lon="17.973526267038">
        <ele>78.4</ele>
        <time>2017-12-04T18:50:00Z</time>
      </trkpt>
      <trkpt lat="62.631978582367" lon="17.973552753842">
        <ele>78.2</ele>
        <time>2017-12-04T18:50:01Z</time>
      </trkpt>
      <trkpt lat="62.632000375307" lon="17.97358225813">
        <ele>78.2</ele>
        <time>2017-12-04T18:50:02Z</time>
      </trkpt>
      <trkpt lat="62.632019150763" lon="17.973613774074">
        <ele>78.2</ele>
        <time>2017-12-04T18:50:03Z</time>
      </trkpt>
      <trkpt lat="62.632036082201" lon="17.973634393548">
        <ele>78.2</ele>
        <time>2017-12-04T18:50:04Z</time>
      </trkpt>
      <trkpt lat="62.632059970616" lon="17.973666496225">
        <ele>78.2</ele>
        <time>2017-12-04T18:50:05Z</time>
      </trkpt>
      <trkpt lat="62.632083775212" lon="17.973696168151">
        <ele>78.4</ele>
        <time>2017-12-04T18:50:06Z</time>
      </trkpt>
      <trkpt lat="62.632100874288" lon="17.973715446521">
        <ele>78.2</ele>
        <time>2017-12-04T18:50:07Z</time>
      </trkpt>
      <trkpt lat="62.632122164314" lon="17.973754757632">
        <ele>78.4</ele>
        <time>2017-12-04T18:50:08Z</time>
      </trkpt>
      <trkpt lat="62.632139095752" lon="17.973783591368">
        <ele>78.4</ele>
        <time>2017-12-04T18:50:09Z</time>
      </trkpt>
      <trkpt lat="62.632154853724" lon="17.973808653249">
        <ele>78.4</ele>
        <time>2017-12-04T18:50:10Z</time>
      </trkpt>
      <trkpt lat="62.632178490682" lon="17.973840253012">
        <ele>78.6</ele>
        <time>2017-12-04T18:50:11Z</time>
      </trkpt>
      <trkpt lat="62.632192153179" lon="17.97387981558">
        <ele>78.6</ele>
        <time>2017-12-04T18:50:12Z</time>
      </trkpt>
      <trkpt lat="62.632213946119" lon="17.973905380375">
        <ele>78.6</ele>
        <time>2017-12-04T18:50:13Z</time>
      </trkpt>
      <trkpt lat="62.632234649412" lon="17.973943937115">
        <ele>78.6</ele>
        <time>2017-12-04T18:50:14Z</time>
      </trkpt>
      <trkpt lat="62.632257364361" lon="17.973964305132">
        <ele>78.6</ele>
        <time>2017-12-04T18:50:15Z</time>
      </trkpt>
      <trkpt lat="62.63227421198" lon="17.973985008425">
        <ele>78.6</ele>
        <time>2017-12-04T18:50:16Z</time>
      </trkpt>
      <trkpt lat="62.63229684311" lon="17.974016524369">
        <ele>78.6</ele>
        <time>2017-12-04T18:50:17Z</time>
      </trkpt>
      <trkpt lat="62.632319977154" lon="17.974044352277">
        <ele>78.8</ele>
        <time>2017-12-04T18:50:18Z</time>
      </trkpt>
      <trkpt lat="62.632341350999" lon="17.974068156873">
        <ele>78.8</ele>
        <time>2017-12-04T18:50:19Z</time>
      </trkpt>
      <trkpt lat="62.632360294093" lon="17.974115095513">
        <ele>78.8</ele>
        <time>2017-12-04T18:50:20Z</time>
      </trkpt>
      <trkpt lat="62.632383763413" lon="17.974139067747">
        <ele>78.8</ele>
        <time>2017-12-04T18:50:21Z</time>
      </trkpt>
      <trkpt lat="62.632404047611" lon="17.974164548723">
        <ele>78.8</ele>
        <time>2017-12-04T18:50:22Z</time>
      </trkpt>
      <trkpt lat="62.632427852207" lon="17.97420419511">
        <ele>78.8</ele>
        <time>2017-12-04T18:50:23Z</time>
      </trkpt>
      <trkpt lat="62.632450567156" lon="17.974224060213">
        <ele>78.8</ele>
        <time>2017-12-04T18:50:24Z</time>
      </trkpt>
      <trkpt lat="62.632475209942" lon="17.974250547017">
        <ele>78.8</ele>
        <time>2017-12-04T18:50:25Z</time>
      </trkpt>
      <trkpt lat="62.632495913235" lon="17.974278877839">
        <ele>78.8</ele>
        <time>2017-12-04T18:50:26Z</time>
      </trkpt>
      <trkpt lat="62.632515862157" lon="17.974295222544">
        <ele>78.8</ele>
        <time>2017-12-04T18:50:27Z</time>
      </trkpt>
      <trkpt lat="62.632538828563" lon="17.974317266941">
        <ele>78.8</ele>
        <time>2017-12-04T18:50:28Z</time>
      </trkpt>
      <trkpt lat="62.632564393358" lon="17.974343837564">
        <ele>78.8</ele>
        <time>2017-12-04T18:50:29Z</time>
      </trkpt>
      <trkpt lat="62.632591299257" lon="17.974359595536">
        <ele>78.6</ele>
        <time>2017-12-04T18:50:30Z</time>
      </trkpt>
      <trkpt lat="62.632617786061" lon="17.974379293001">
        <ele>78.6</ele>
        <time>2017-12-04T18:50:31Z</time>
      </trkpt>
      <trkpt lat="62.632639411363" lon="17.97440033157">
        <ele>78.6</ele>
        <time>2017-12-04T18:50:32Z</time>
      </trkpt>
      <trkpt lat="62.63266732309" lon="17.974422459786">
        <ele>78.6</ele>
        <time>2017-12-04T18:50:33Z</time>
      </trkpt>
      <trkpt lat="62.632691379143" lon="17.974436457559">
        <ele>78.6</ele>
        <time>2017-12-04T18:50:34Z</time>
      </trkpt>
      <trkpt lat="62.632719793784" lon="17.974452383169">
        <ele>78.6</ele>
        <time>2017-12-04T18:50:35Z</time>
      </trkpt>
      <trkpt lat="62.632746699683" lon="17.974464620743">
        <ele>78.6</ele>
        <time>2017-12-04T18:50:36Z</time>
      </trkpt>
      <trkpt lat="62.632771342469" lon="17.974466297123">
        <ele>78.6</ele>
        <time>2017-12-04T18:50:37Z</time>
      </trkpt>
      <trkpt lat="62.632797074902" lon="17.974447773124">
        <ele>78.6</ele>
        <time>2017-12-04T18:50:38Z</time>
      </trkpt>
      <trkpt lat="62.63282071186" lon="17.97441038985">
        <ele>78.6</ele>
        <time>2017-12-04T18:50:39Z</time>
      </trkpt>
      <trkpt lat="62.63283915204" lon="17.974377365164">
        <ele>78.6</ele>
        <time>2017-12-04T18:50:40Z</time>
      </trkpt>
      <trkpt lat="62.632853568908" lon="17.97433159999">
        <ele>78.6</ele>
        <time>2017-12-04T18:50:41Z</time>
      </trkpt>
      <trkpt lat="62.632863878645" lon="17.974281140952">
        <ele>78.6</ele>
        <time>2017-12-04T18:50:42Z</time>
      </trkpt>
      <trkpt lat="62.632876283857" lon="17.974222383833">
        <ele>78.6</ele>
        <time>2017-12-04T18:50:43Z</time>
      </trkpt>
      <trkpt lat="62.632886677413" lon="17.974175193736">
        <ele>78.6</ele>
        <time>2017-12-04T18:50:44Z</time>
      </trkpt>
      <trkpt lat="62.632900423729" lon="17.974120040834">
        <ele>78.6</ele>
        <time>2017-12-04T18:50:45Z</time>
      </trkpt>
      <trkpt lat="62.632913248036" lon="17.974070000891">
        <ele>78.6</ele>
        <time>2017-12-04T18:50:46Z</time>
      </trkpt>
      <trkpt lat="62.632921127022" lon="17.974025493002">
        <ele>78.6</ele>
        <time>2017-12-04T18:50:47Z</time>
      </trkpt>
      <trkpt lat="62.632935040976" lon="17.973967909349">
        <ele>78.6</ele>
        <time>2017-12-04T18:50:48Z</time>
      </trkpt>
      <trkpt lat="62.632944512523" lon="17.973922479451">
        <ele>78.4</ele>
        <time>2017-12-04T18:50:49Z</time>
      </trkpt>
      <trkpt lat="62.63295566045" lon="17.973875373173">
        <ele>78.4</ele>
        <time>2017-12-04T18:50:50Z</time>
      </trkpt>
      <trkpt lat="62.632968149481" lon="17.973816280778">
        <ele>78.2</ele>
        <time>2017-12-04T18:50:51Z</time>
      </trkpt>
      <trkpt lat="62.632978878313" lon="17.973776466753">
        <ele>78</ele>
        <time>2017-12-04T18:50:52Z</time>
      </trkpt>
      <trkpt lat="62.632990361516" lon="17.973723493145">
        <ele>77.8</ele>
        <time>2017-12-04T18:50:53Z</time>
      </trkpt>
      <trkpt lat="62.633002012357" lon="17.97366523894">
        <ele>77.8</ele>
        <time>2017-12-04T18:50:54Z</time>
      </trkpt>
      <trkpt lat="62.633012573551" lon="17.973621820698">
        <ele>77.8</ele>
        <time>2017-12-04T18:50:55Z</time>
      </trkpt>
      <trkpt lat="62.633023889116" lon="17.973578737732">
        <ele>78</ele>
        <time>2017-12-04T18:50:56Z</time>
      </trkpt>
      <trkpt lat="62.633035959052" lon="17.973533726929">
        <ele>78</ele>
        <time>2017-12-04T18:50:57Z</time>
      </trkpt>
      <trkpt lat="62.633047945169" lon="17.97348335171">
        <ele>78</ele>
        <time>2017-12-04T18:50:58Z</time>
      </trkpt>
      <trkpt lat="62.633059093096" lon="17.973432054482">
        <ele>78</ele>
        <time>2017-12-04T18:50:59Z</time>
      </trkpt>
      <trkpt lat="62.633073426145" lon="17.973380002883">
        <ele>77.6</ele>
        <time>2017-12-04T18:51:00Z</time>
      </trkpt>
      <trkpt lat="62.633085915176" lon="17.973330130578">
        <ele>77.4</ele>
        <time>2017-12-04T18:51:01Z</time>
      </trkpt>
      <trkpt lat="62.633093877981" lon="17.973289646001">
        <ele>77.4</ele>
        <time>2017-12-04T18:51:02Z</time>
      </trkpt>
      <trkpt lat="62.633106367012" lon="17.973236420936">
        <ele>77.2</ele>
        <time>2017-12-04T18:51:03Z</time>
      </trkpt>
      <trkpt lat="62.633112569618" lon="17.97320507263">
        <ele>77</ele>
        <time>2017-12-04T18:51:04Z</time>
      </trkpt>
      <trkpt lat="62.633126148296" lon="17.97313550286">
        <ele>77</ele>
        <time>2017-12-04T18:51:05Z</time>
      </trkpt>
      <trkpt lat="62.633137966775" lon="17.973088983315">
        <ele>77</ele>
        <time>2017-12-04T18:51:06Z</time>
      </trkpt>
      <trkpt lat="62.633149701435" lon="17.973039697743">
        <ele>77</ele>
        <time>2017-12-04T18:51:07Z</time>
      </trkpt>
      <trkpt lat="62.633156909869" lon="17.972989490162">
        <ele>77</ele>
        <time>2017-12-04T18:51:08Z</time>
      </trkpt>
      <trkpt lat="62.633163866846" lon="17.972940875142">
        <ele>76.8</ele>
        <time>2017-12-04T18:51:09Z</time>
      </trkpt>
      <trkpt lat="62.633169063624" lon="17.972893601226">
        <ele>76.8</ele>
        <time>2017-12-04T18:51:10Z</time>
      </trkpt>
      <trkpt lat="62.633177110248" lon="17.972838532143">
        <ele>76.8</ele>
        <time>2017-12-04T18:51:11Z</time>
      </trkpt>
      <trkpt lat="62.633189264003" lon="17.972790922951">
        <ele>76.8</ele>
        <time>2017-12-04T18:51:12Z</time>
      </trkpt>
      <trkpt lat="62.633202423586" lon="17.972733590755">
        <ele>76.8</ele>
        <time>2017-12-04T18:51:13Z</time>
      </trkpt>
      <trkpt lat="62.633213487694" lon="17.972681874432">
        <ele>76.8</ele>
        <time>2017-12-04T18:51:14Z</time>
      </trkpt>
      <trkpt lat="62.633227820743" lon="17.972624961331">
        <ele>76.8</ele>
        <time>2017-12-04T18:51:15Z</time>
      </trkpt>
      <trkpt lat="62.633235029177" lon="17.972576849225">
        <ele>76.8</ele>
        <time>2017-12-04T18:51:16Z</time>
      </trkpt>
      <trkpt lat="62.633241147964" lon="17.972526809282">
        <ele>76.6</ele>
        <time>2017-12-04T18:51:17Z</time>
      </trkpt>
      <trkpt lat="62.633253469357" lon="17.972461765738">
        <ele>76.4</ele>
        <time>2017-12-04T18:51:18Z</time>
      </trkpt>
      <trkpt lat="62.633262940904" lon="17.97241046851">
        <ele>76.4</ele>
        <time>2017-12-04T18:51:19Z</time>
      </trkpt>
      <trkpt lat="62.633270065519" lon="17.972350705563">
        <ele>76.2</ele>
        <time>2017-12-04T18:51:20Z</time>
      </trkpt>
      <trkpt lat="62.633278950333" lon="17.9722939601">
        <ele>76.2</ele>
        <time>2017-12-04T18:51:21Z</time>
      </trkpt>
      <trkpt lat="62.633279620885" lon="17.972254146075">
        <ele>76.2</ele>
        <time>2017-12-04T18:51:22Z</time>
      </trkpt>
      <trkpt lat="62.633283308921" lon="17.972188515798">
        <ele>76.2</ele>
        <time>2017-12-04T18:51:23Z</time>
      </trkpt>
      <trkpt lat="62.633290852631" lon="17.972127579385">
        <ele>76</ele>
        <time>2017-12-04T18:51:24Z</time>
      </trkpt>
      <trkpt lat="62.633296719961" lon="17.972078712908">
        <ele>76</ele>
        <time>2017-12-04T18:51:25Z</time>
      </trkpt>
      <trkpt lat="62.633303760757" lon="17.972027248042">
        <ele>75.8</ele>
        <time>2017-12-04T18:51:26Z</time>
      </trkpt>
      <trkpt lat="62.633311220648" lon="17.971971927502">
        <ele>75.8</ele>
        <time>2017-12-04T18:51:27Z</time>
      </trkpt>
      <trkpt lat="62.633316752702" lon="17.971920630274">
        <ele>75.6</ele>
        <time>2017-12-04T18:51:28Z</time>
      </trkpt>
      <trkpt lat="62.633322117118" lon="17.97186229225">
        <ele>75.4</ele>
        <time>2017-12-04T18:51:29Z</time>
      </trkpt>
      <trkpt lat="62.63332697862" lon="17.971801858751">
        <ele>75.4</ele>
        <time>2017-12-04T18:51:30Z</time>
      </trkpt>
      <trkpt lat="62.633330163742" lon="17.971744861831">
        <ele>75.4</ele>
        <time>2017-12-04T18:51:31Z</time>
      </trkpt>
      <trkpt lat="62.633335276701" lon="17.971697671734">
        <ele>75.4</ele>
        <time>2017-12-04T18:51:32Z</time>
      </trkpt>
      <trkpt lat="62.633340641117" lon="17.971636064769">
        <ele>75.4</ele>
        <time>2017-12-04T18:51:33Z</time>
      </trkpt>
      <trkpt lat="62.633342317497" lon="17.971589293767">
        <ele>75.4</ele>
        <time>2017-12-04T18:51:34Z</time>
      </trkpt>
      <trkpt lat="62.633341898402" lon="17.971525172232">
        <ele>75.2</ele>
        <time>2017-12-04T18:51:35Z</time>
      </trkpt>
      <trkpt lat="62.633348436284" lon="17.971459793412">
        <ele>75.2</ele>
        <time>2017-12-04T18:51:36Z</time>
      </trkpt>
      <trkpt lat="62.633349777388" lon="17.971410675478">
        <ele>75</ele>
        <time>2017-12-04T18:51:37Z</time>
      </trkpt>
      <trkpt lat="62.633351621406" lon="17.971347475952">
        <ele>74.8</ele>
        <time>2017-12-04T18:51:38Z</time>
      </trkpt>
      <trkpt lat="62.6333538007" lon="17.971285282254">
        <ele>74.6</ele>
        <time>2017-12-04T18:51:39Z</time>
      </trkpt>
      <trkpt lat="62.633355057985" lon="17.971230380809">
        <ele>74.6</ele>
        <time>2017-12-04T18:51:40Z</time>
      </trkpt>
      <trkpt lat="62.633355560899" lon="17.971165504903">
        <ele>74.4</ele>
        <time>2017-12-04T18:51:41Z</time>
      </trkpt>
      <trkpt lat="62.633356482908" lon="17.971108088888">
        <ele>74.4</ele>
        <time>2017-12-04T18:51:42Z</time>
      </trkpt>
      <trkpt lat="62.633355896175" lon="17.971045559914">
        <ele>74.4</ele>
        <time>2017-12-04T18:51:43Z</time>
      </trkpt>
      <trkpt lat="62.633353716881" lon="17.970981019284">
        <ele>74.4</ele>
        <time>2017-12-04T18:51:44Z</time>
      </trkpt>
      <trkpt lat="62.63335296251" lon="17.970915808102">
        <ele>74.2</ele>
        <time>2017-12-04T18:51:45Z</time>
      </trkpt>
      <trkpt lat="62.63335044794" lon="17.970866103435">
        <ele>74.2</ele>
        <time>2017-12-04T18:51:46Z</time>
      </trkpt>
      <trkpt lat="62.633348436284" lon="17.970805418479">
        <ele>74.2</ele>
        <time>2017-12-04T18:51:47Z</time>
      </trkpt>
      <trkpt lat="62.633343490963" lon="17.970740710211">
        <ele>74</ele>
        <time>2017-12-04T18:51:48Z</time>
      </trkpt>
      <trkpt lat="62.633337120719" lon="17.970687820422">
        <ele>73.8</ele>
        <time>2017-12-04T18:51:49Z</time>
      </trkpt>
      <trkpt lat="62.633331588665" lon="17.970625375267">
        <ele>73.6</ele>
        <time>2017-12-04T18:51:50Z</time>
      </trkpt>
      <trkpt lat="62.633326056611" lon="17.97056477413">
        <ele>73.6</ele>
        <time>2017-12-04T18:51:51Z</time>
      </trkpt>
      <trkpt lat="62.633322620032" lon="17.970516745843">
        <ele>73.4</ele>
        <time>2017-12-04T18:51:52Z</time>
      </trkpt>
      <trkpt lat="62.633317004159" lon="17.970447259892">
        <ele>73.2</ele>
        <time>2017-12-04T18:51:53Z</time>
      </trkpt>
      <trkpt lat="62.633315830693" lon="17.970390179153">
        <ele>73.2</ele>
        <time>2017-12-04T18:51:54Z</time>
      </trkpt>
      <trkpt lat="62.633309208992" lon="17.970336618812">
        <ele>72.8</ele>
        <time>2017-12-04T18:51:55Z</time>
      </trkpt>
      <trkpt lat="62.633303928395" lon="17.970277694055">
        <ele>72.8</ele>
        <time>2017-12-04T18:51:56Z</time>
      </trkpt>
      <trkpt lat="62.633301246187" lon="17.970216254728">
        <ele>72.4</ele>
        <time>2017-12-04T18:51:57Z</time>
      </trkpt>
      <trkpt lat="62.633295378857" lon="17.970158922532">
        <ele>72.4</ele>
        <time>2017-12-04T18:51:58Z</time>
      </trkpt>
      <trkpt lat="62.63329261283" lon="17.970090274771">
        <ele>72</ele>
        <time>2017-12-04T18:51:59Z</time>
      </trkpt>
      <trkpt lat="62.633283979473" lon="17.970025147408">
        <ele>71.8</ele>
        <time>2017-12-04T18:52:00Z</time>
      </trkpt>
      <trkpt lat="62.633281129627" lon="17.96996546828">
        <ele>71.6</ele>
        <time>2017-12-04T18:52:01Z</time>
      </trkpt>
      <trkpt lat="62.633277273953" lon="17.969907968446">
        <ele>71.6</ele>
        <time>2017-12-04T18:52:02Z</time>
      </trkpt>
      <trkpt lat="62.633275681392" lon="17.969843008721">
        <ele>71.4</ele>
        <time>2017-12-04T18:52:03Z</time>
      </trkpt>
      <trkpt lat="62.633269730243" lon="17.969797075909">
        <ele>71.2</ele>
        <time>2017-12-04T18:52:04Z</time>
      </trkpt>
      <trkpt lat="62.633272663908" lon="17.969730942718">
        <ele>71.2</ele>
        <time>2017-12-04T18:52:05Z</time>
      </trkpt>
      <trkpt lat="62.633272160994" lon="17.969673275246">
        <ele>71.2</ele>
        <time>2017-12-04T18:52:06Z</time>
      </trkpt>
      <trkpt lat="62.63327165808" lon="17.969618709077">
        <ele>71.2</ele>
        <time>2017-12-04T18:52:07Z</time>
      </trkpt>
      <trkpt lat="62.633266712759" lon="17.969564142908">
        <ele>71</ele>
        <time>2017-12-04T18:52:08Z</time>
      </trkpt>
      <trkpt lat="62.63326327618" lon="17.969512258947">
        <ele>70.8</ele>
        <time>2017-12-04T18:52:09Z</time>
      </trkpt>
      <trkpt lat="62.633261515981" lon="17.969459704434">
        <ele>70.8</ele>
        <time>2017-12-04T18:52:10Z</time>
      </trkpt>
      <trkpt lat="62.633264533465" lon="17.969389128836">
        <ele>70.8</ele>
        <time>2017-12-04T18:52:11Z</time>
      </trkpt>
      <trkpt lat="62.633264784922" lon="17.969342022558">
        <ele>70.8</ele>
        <time>2017-12-04T18:52:12Z</time>
      </trkpt>
      <trkpt lat="62.633262689447" lon="17.969289719502">
        <ele>70.6</ele>
        <time>2017-12-04T18:52:13Z</time>
      </trkpt>
      <trkpt lat="62.633266461302" lon="17.969238003179">
        <ele>70.6</ele>
        <time>2017-12-04T18:52:14Z</time>
      </trkpt>
      <trkpt lat="62.633268472958" lon="17.9691758933">
        <ele>70.6</ele>
        <time>2017-12-04T18:52:15Z</time>
      </trkpt>
      <trkpt lat="62.633274927021" lon="17.969127865013">
        <ele>70.6</ele>
        <time>2017-12-04T18:52:16Z</time>
      </trkpt>
      <trkpt lat="62.63327920179" lon="17.969066760962">
        <ele>70.4</ele>
        <time>2017-12-04T18:52:17Z</time>
      </trkpt>
      <trkpt lat="62.633286577862" lon="17.96900490254">
        <ele>70.4</ele>
        <time>2017-12-04T18:52:18Z</time>
      </trkpt>
      <trkpt lat="62.633292696649" lon="17.96895628752">
        <ele>70.2</ele>
        <time>2017-12-04T18:52:19Z</time>
      </trkpt>
      <trkpt lat="62.63330183292" lon="17.968899039143">
        <ele>70</ele>
        <time>2017-12-04T18:52:20Z</time>
      </trkpt>
      <trkpt lat="62.633321195109" lon="17.968851932865">
        <ele>69.6</ele>
        <time>2017-12-04T18:52:21Z</time>
      </trkpt>
      <trkpt lat="62.633338964737" lon="17.968816561247">
        <ele>69.4</ele>
        <time>2017-12-04T18:52:22Z</time>
      </trkpt>
      <trkpt lat="62.633356399089" lon="17.968758139404">
        <ele>69</ele>
        <time>2017-12-04T18:52:23Z</time>
      </trkpt>
      <trkpt lat="62.63337643183" lon="17.968702567407">
        <ele>69</ele>
        <time>2017-12-04T18:52:24Z</time>
      </trkpt>
      <trkpt lat="62.63338900468" lon="17.968650683446">
        <ele>68.6</ele>
        <time>2017-12-04T18:52:25Z</time>
      </trkpt>
      <trkpt lat="62.633399314417" lon="17.968600643503">
        <ele>68.4</ele>
        <time>2017-12-04T18:52:26Z</time>
      </trkpt>
      <trkpt lat="62.63341079762" lon="17.968543311307">
        <ele>68.2</ele>
        <time>2017-12-04T18:52:27Z</time>
      </trkpt>
      <trkpt lat="62.63341750314" lon="17.968483883636">
        <ele>68.4</ele>
        <time>2017-12-04T18:52:28Z</time>
      </trkpt>
      <trkpt lat="62.633426471773" lon="17.968419091549">
        <ele>68.4</ele>
        <time>2017-12-04T18:52:29Z</time>
      </trkpt>
      <trkpt lat="62.633437284424" lon="17.968355137652">
        <ele>68.2</ele>
        <time>2017-12-04T18:52:30Z</time>
      </trkpt>
      <trkpt lat="62.633443738487" lon="17.968303840424">
        <ele>67.8</ele>
        <time>2017-12-04T18:52:31Z</time>
      </trkpt>
      <trkpt lat="62.633446755971" lon="17.968249358074">
        <ele>67.6</ele>
        <time>2017-12-04T18:52:32Z</time>
      </trkpt>
      <trkpt lat="62.633459077364" lon="17.968181716141">
        <ele>67.4</ele>
        <time>2017-12-04T18:52:33Z</time>
      </trkpt>
      <trkpt lat="62.633465699065" lon="17.968135364234">
        <ele>67.2</ele>
        <time>2017-12-04T18:52:34Z</time>
      </trkpt>
      <trkpt lat="62.633478104277" lon="17.968075936563">
        <ele>67.2</ele>
        <time>2017-12-04T18:52:35Z</time>
      </trkpt>
      <trkpt lat="62.633487408186" lon="17.968021621851">
        <ele>66.8</ele>
        <time>2017-12-04T18:52:36Z</time>
      </trkpt>
      <trkpt lat="62.633493946068" lon="17.967973509745">
        <ele>66.6</ele>
        <time>2017-12-04T18:52:37Z</time>
      </trkpt>
      <trkpt lat="62.633505932185" lon="17.967927074019">
        <ele>66.2</ele>
        <time>2017-12-04T18:52:38Z</time>
      </trkpt>
      <trkpt lat="62.633513392076" lon="17.967859683543">
        <ele>66</ele>
        <time>2017-12-04T18:52:39Z</time>
      </trkpt>
      <trkpt lat="62.633522779804" lon="17.967811487618">
        <ele>65.6</ele>
        <time>2017-12-04T18:52:40Z</time>
      </trkpt>
      <trkpt lat="62.633532251351" lon="17.967755328888">
        <ele>65.4</ele>
        <time>2017-12-04T18:52:41Z</time>
      </trkpt>
      <trkpt lat="62.63353736431" lon="17.967699253977">
        <ele>65.4</ele>
        <time>2017-12-04T18:52:42Z</time>
      </trkpt>
      <trkpt lat="62.633544153649" lon="17.967635551537">
        <ele>65.2</ele>
        <time>2017-12-04T18:52:43Z</time>
      </trkpt>
      <trkpt lat="62.633552116454" lon="17.967587355612">
        <ele>65.2</ele>
        <time>2017-12-04T18:52:44Z</time>
      </trkpt>
      <trkpt lat="62.633560582173" lon="17.967529436683">
        <ele>65.2</ele>
        <time>2017-12-04T18:52:45Z</time>
      </trkpt>
      <trkpt lat="62.633571311005" lon="17.967472020668">
        <ele>65</ele>
        <time>2017-12-04T18:52:46Z</time>
      </trkpt>
      <trkpt lat="62.633580531095" lon="17.967413682644">
        <ele>64.8</ele>
        <time>2017-12-04T18:52:47Z</time>
      </trkpt>
      <trkpt lat="62.633587823348" lon="17.967353165326">
        <ele>64.6</ele>
        <time>2017-12-04T18:52:48Z</time>
      </trkpt>
      <trkpt lat="62.633595953791" lon="17.967298096243">
        <ele>64.4</ele>
        <time>2017-12-04T18:52:49Z</time>
      </trkpt>
      <trkpt lat="62.633604503329" lon="17.967243362436">
        <ele>64.4</ele>
        <time>2017-12-04T18:52:50Z</time>
      </trkpt>
      <trkpt lat="62.633613136686" lon="17.967180498186">
        <ele>64.2</ele>
        <time>2017-12-04T18:52:51Z</time>
      </trkpt>
      <trkpt lat="62.633620009844" lon="17.967134565374">
        <ele>64</ele>
        <time>2017-12-04T18:52:52Z</time>
      </trkpt>
      <trkpt lat="62.633629481391" lon="17.967069270373">
        <ele>63.8</ele>
        <time>2017-12-04T18:52:53Z</time>
      </trkpt>
      <trkpt lat="62.633638701481" lon="17.967005903209">
        <ele>63.6</ele>
        <time>2017-12-04T18:52:54Z</time>
      </trkpt>
      <trkpt lat="62.63364800539" lon="17.96695301342">
        <ele>63.4</ele>
        <time>2017-12-04T18:52:55Z</time>
      </trkpt>
      <trkpt lat="62.633652531616" lon="17.966893334292">
        <ele>63.2</ele>
        <time>2017-12-04T18:52:56Z</time>
      </trkpt>
      <trkpt lat="62.633659153317" lon="17.966835750639">
        <ele>62.8</ele>
        <time>2017-12-04T18:52:57Z</time>
      </trkpt>
      <trkpt lat="62.633666864665" lon="17.966772132018">
        <ele>62.4</ele>
        <time>2017-12-04T18:52:58Z</time>
      </trkpt>
      <trkpt lat="62.633670049787" lon="17.966714380727">
        <ele>62</ele>
        <time>2017-12-04T18:52:59Z</time>
      </trkpt>
      <trkpt lat="62.633677509678" lon="17.966652354667">
        <ele>61.8</ele>
        <time>2017-12-04T18:53:00Z</time>
      </trkpt>
      <trkpt lat="62.633688070872" lon="17.966585467105">
        <ele>61.4</ele>
        <time>2017-12-04T18:53:01Z</time>
      </trkpt>
      <trkpt lat="62.633693770564" lon="17.966533666963">
        <ele>61</ele>
        <time>2017-12-04T18:53:02Z</time>
      </trkpt>
      <trkpt lat="62.633702152464" lon="17.966468707238">
        <ele>60.6</ele>
        <time>2017-12-04T18:53:03Z</time>
      </trkpt>
      <trkpt lat="62.633711121097" lon="17.966415985087">
        <ele>60.6</ele>
        <time>2017-12-04T18:53:04Z</time>
      </trkpt>
      <trkpt lat="62.633720760282" lon="17.966346666774">
        <ele>60.2</ele>
        <time>2017-12-04T18:53:05Z</time>
      </trkpt>
      <trkpt lat="62.633727465802" lon="17.966285395085">
        <ele>60</ele>
        <time>2017-12-04T18:53:06Z</time>
      </trkpt>
      <trkpt lat="62.633734422779" lon="17.966226051233">
        <ele>60</ele>
        <time>2017-12-04T18:53:07Z</time>
      </trkpt>
      <trkpt lat="62.633741715032" lon="17.966167713209">
        <ele>59.8</ele>
        <time>2017-12-04T18:53:08Z</time>
      </trkpt>
      <trkpt lat="62.633745486887" lon="17.966105938606">
        <ele>59.6</ele>
        <time>2017-12-04T18:53:09Z</time>
      </trkpt>
      <trkpt lat="62.633752276226" lon="17.966050869523">
        <ele>59.6</ele>
        <time>2017-12-04T18:53:10Z</time>
      </trkpt>
      <trkpt lat="62.633755545167" lon="17.965992950594">
        <ele>59.4</ele>
        <time>2017-12-04T18:53:11Z</time>
      </trkpt>
      <trkpt lat="62.633758730289" lon="17.965936959502">
        <ele>59.4</ele>
        <time>2017-12-04T18:53:12Z</time>
      </trkpt>
      <trkpt lat="62.633764597619" lon="17.965872335053">
        <ele>59.2</ele>
        <time>2017-12-04T18:53:13Z</time>
      </trkpt>
      <trkpt lat="62.633766441637" lon="17.96581810416">
        <ele>59</ele>
        <time>2017-12-04T18:53:14Z</time>
      </trkpt>
      <trkpt lat="62.633765519628" lon="17.965758844127">
        <ele>58.8</ele>
        <time>2017-12-04T18:53:15Z</time>
      </trkpt>
      <trkpt lat="62.633763424153" lon="17.965703775044">
        <ele>58.6</ele>
        <time>2017-12-04T18:53:16Z</time>
      </trkpt>
      <trkpt lat="62.633757640642" lon="17.965645939934">
        <ele>58.4</ele>
        <time>2017-12-04T18:53:17Z</time>
      </trkpt>
      <trkpt lat="62.633753701149" lon="17.965585003521">
        <ele>58.4</ele>
        <time>2017-12-04T18:53:18Z</time>
      </trkpt>
      <trkpt lat="62.63375361733" lon="17.965525408212">
        <ele>58.2</ele>
        <time>2017-12-04T18:53:19Z</time>
      </trkpt>
      <trkpt lat="62.63375110276" lon="17.965471177319">
        <ele>58.2</ele>
        <time>2017-12-04T18:53:20Z</time>
      </trkpt>
      <trkpt lat="62.633746744172" lon="17.965418874263">
        <ele>58</ele>
        <time>2017-12-04T18:53:21Z</time>
      </trkpt>
      <trkpt lat="62.633744229602" lon="17.965366403569">
        <ele>58</ele>
        <time>2017-12-04T18:53:22Z</time>
      </trkpt>
      <trkpt lat="62.633737021168" lon="17.96530177912">
        <ele>57.8</ele>
        <time>2017-12-04T18:53:23Z</time>
      </trkpt>
      <trkpt lat="62.633732411123" lon="17.965243692553">
        <ele>57.4</ele>
        <time>2017-12-04T18:53:24Z</time>
      </trkpt>
      <trkpt lat="62.63373014801" lon="17.965180409208">
        <ele>57</ele>
        <time>2017-12-04T18:53:25Z</time>
      </trkpt>
      <trkpt lat="62.633725537965" lon="17.965127184143">
        <ele>56.8</ele>
        <time>2017-12-04T18:53:26Z</time>
      </trkpt>
      <trkpt lat="62.633722436662" lon="17.965083095349">
        <ele>56.6</ele>
        <time>2017-12-04T18:53:27Z</time>
      </trkpt>
      <trkpt lat="62.633725621784" lon="17.965020566375">
        <ele>56.4</ele>
        <time>2017-12-04T18:53:28Z</time>
      </trkpt>
      <trkpt lat="62.633732075847" lon="17.964959713781">
        <ele>56.2</ele>
        <time>2017-12-04T18:53:29Z</time>
      </trkpt>
      <trkpt lat="62.63374439724" lon="17.964914367702">
        <ele>56</ele>
        <time>2017-12-04T18:53:30Z</time>
      </trkpt>
      <trkpt lat="62.633766944551" lon="17.964867261424">
        <ele>55.6</ele>
        <time>2017-12-04T18:53:31Z</time>
      </trkpt>
      <trkpt lat="62.633792341708" lon="17.964840690801">
        <ele>55.4</ele>
        <time>2017-12-04T18:53:32Z</time>
      </trkpt>
      <trkpt lat="62.633820840168" lon="17.964826273933">
        <ele>55.2</ele>
        <time>2017-12-04T18:53:33Z</time>
      </trkpt>
      <trkpt lat="62.633852439931" lon="17.964819568413">
        <ele>55</ele>
        <time>2017-12-04T18:53:34Z</time>
      </trkpt>
      <trkpt lat="62.633879932563" lon="17.964816048015">
        <ele>54.6</ele>
        <time>2017-12-04T18:53:35Z</time>
      </trkpt>
      <trkpt lat="62.633902396055" lon="17.964813617264">
        <ele>54.4</ele>
        <time>2017-12-04T18:53:36Z</time>
      </trkpt>
      <trkpt lat="62.633931648886" lon="17.964820490422">
        <ele>54</ele>
        <time>2017-12-04T18:53:37Z</time>
      </trkpt>
      <trkpt lat="62.633958638604" lon="17.964825100467">
        <ele>53.8</ele>
        <time>2017-12-04T18:53:38Z</time>
      </trkpt>
      <trkpt lat="62.633980096268" lon="17.964830800159">
        <ele>53.8</ele>
        <time>2017-12-04T18:53:39Z</time>
      </trkpt>
      <trkpt lat="62.634004319959" lon="17.964838343869">
        <ele>53.6</ele>
        <time>2017-12-04T18:53:40Z</time>
      </trkpt>
      <trkpt lat="62.63403441098" lon="17.964844630294">
        <ele>53.6</ele>
        <time>2017-12-04T18:53:41Z</time>
      </trkpt>
      <trkpt lat="62.63405704211" lon="17.964841528991">
        <ele>53.4</ele>
        <time>2017-12-04T18:53:42Z</time>
      </trkpt>
      <trkpt lat="62.634085121475" lon="17.964840020249">
        <ele>53.6</ele>
        <time>2017-12-04T18:53:43Z</time>
      </trkpt>
      <trkpt lat="62.634111189184" lon="17.964839349697">
        <ele>53.4</ele>
        <time>2017-12-04T18:53:44Z</time>
      </trkpt>
      <trkpt lat="62.634136502522" lon="17.964835494023">
        <ele>53.4</ele>
        <time>2017-12-04T18:53:45Z</time>
      </trkpt>
      <trkpt lat="62.634158798376" lon="17.964832644177">
        <ele>53.2</ele>
        <time>2017-12-04T18:53:46Z</time>
      </trkpt>
      <trkpt lat="62.634188721759" lon="17.964837840955">
        <ele>53.2</ele>
        <time>2017-12-04T18:53:47Z</time>
      </trkpt>
      <trkpt lat="62.634217052581" lon="17.964837254222">
        <ele>53.4</ele>
        <time>2017-12-04T18:53:48Z</time>
      </trkpt>
      <trkpt lat="62.634240940996" lon="17.964836164575">
        <ele>53.2</ele>
        <time>2017-12-04T18:53:49Z</time>
      </trkpt>
      <trkpt lat="62.634274887691" lon="17.964838176231">
        <ele>53.2</ele>
        <time>2017-12-04T18:53:50Z</time>
      </trkpt>
      <trkpt lat="62.634299446658" lon="17.964838092412">
        <ele>53.2</ele>
        <time>2017-12-04T18:53:51Z</time>
      </trkpt>
      <trkpt lat="62.634320904322" lon="17.964837757136">
        <ele>53.2</ele>
        <time>2017-12-04T18:53:52Z</time>
      </trkpt>
      <trkpt lat="62.634353593732" lon="17.964842199543">
        <ele>53.2</ele>
        <time>2017-12-04T18:53:53Z</time>
      </trkpt>
      <trkpt lat="62.634379409984" lon="17.964847312502">
        <ele>53.2</ele>
        <time>2017-12-04T18:53:54Z</time>
      </trkpt>
      <trkpt lat="62.634403633675" lon="17.964848653606">
        <ele>53.2</ele>
        <time>2017-12-04T18:53:55Z</time>
      </trkpt>
      <trkpt lat="62.634432299773" lon="17.964851587271">
        <ele>53.2</ele>
        <time>2017-12-04T18:53:56Z</time>
      </trkpt>
      <trkpt lat="62.634454679446" lon="17.96484748014">
        <ele>53.2</ele>
        <time>2017-12-04T18:53:57Z</time>
      </trkpt>
      <trkpt lat="62.634476388567" lon="17.96484831833">
        <ele>53.2</ele>
        <time>2017-12-04T18:53:58Z</time>
      </trkpt>
      <trkpt lat="62.634504970846" lon="17.964853598927">
        <ele>53.2</ele>
        <time>2017-12-04T18:53:59Z</time>
      </trkpt>
      <trkpt lat="62.634531541469" lon="17.964850916719">
        <ele>53.2</ele>
        <time>2017-12-04T18:54:00Z</time>
      </trkpt>
      <trkpt lat="62.634561045757" lon="17.96484831833">
        <ele>53.2</ele>
        <time>2017-12-04T18:54:01Z</time>
      </trkpt>
      <trkpt lat="62.634590550045" lon="17.964848653606">
        <ele>53.2</ele>
        <time>2017-12-04T18:54:02Z</time>
      </trkpt>
      <trkpt lat="62.634620892523" lon="17.964846558131">
        <ele>53</ele>
        <time>2017-12-04T18:54:03Z</time>
      </trkpt>
      <trkpt lat="62.634646122042" lon="17.964838427688">
        <ele>52.8</ele>
        <time>2017-12-04T18:54:04Z</time>
      </trkpt>
      <trkpt lat="62.634673698493" lon="17.964838008593">
        <ele>52.8</ele>
        <time>2017-12-04T18:54:05Z</time>
      </trkpt>
      <trkpt lat="62.634710327396" lon="17.964834991109">
        <ele>52.6</ele>
        <time>2017-12-04T18:54:06Z</time>
      </trkpt>
      <trkpt lat="62.634735724553" lon="17.964836164575">
        <ele>52.6</ele>
        <time>2017-12-04T18:54:07Z</time>
      </trkpt>
      <trkpt lat="62.6347703418" lon="17.964839182059">
        <ele>52.4</ele>
        <time>2017-12-04T18:54:08Z</time>
      </trkpt>
      <trkpt lat="62.634796158052" lon="17.964837673317">
        <ele>52.4</ele>
        <time>2017-12-04T18:54:09Z</time>
      </trkpt>
      <trkpt lat="62.634821555209" lon="17.964844714113">
        <ele>52.2</ele>
        <time>2017-12-04T18:54:10Z</time>
      </trkpt>
      <trkpt lat="62.634850640402" lon="17.964839349697">
        <ele>52.2</ele>
        <time>2017-12-04T18:54:11Z</time>
      </trkpt>
      <trkpt lat="62.634874864093" lon="17.964834991109">
        <ele>52</ele>
        <time>2017-12-04T18:54:12Z</time>
      </trkpt>
      <trkpt lat="62.634908056417" lon="17.964832644177">
        <ele>51.8</ele>
        <time>2017-12-04T18:54:13Z</time>
      </trkpt>
      <trkpt lat="62.634936806334" lon="17.964829123779">
        <ele>51.8</ele>
        <time>2017-12-04T18:54:14Z</time>
      </trkpt>
      <trkpt lat="62.634965137156" lon="17.964812779074">
        <ele>51.8</ele>
        <time>2017-12-04T18:54:15Z</time>
      </trkpt>
      <trkpt lat="62.634996150186" lon="17.964807917572">
        <ele>51.8</ele>
        <time>2017-12-04T18:54:16Z</time>
      </trkpt>
      <trkpt lat="62.63502431337" lon="17.964797440197">
        <ele>51.6</ele>
        <time>2017-12-04T18:54:17Z</time>
      </trkpt>
      <trkpt lat="62.635056080771" lon="17.964794255075">
        <ele>51.6</ele>
        <time>2017-12-04T18:54:18Z</time>
      </trkpt>
      <trkpt lat="62.635085333602" lon="17.964785873175">
        <ele>51.6</ele>
        <time>2017-12-04T18:54:19Z</time>
      </trkpt>
      <trkpt lat="62.635115759899" lon="17.964777826551">
        <ele>51.6</ele>
        <time>2017-12-04T18:54:20Z</time>
      </trkpt>
      <trkpt lat="62.635146270015" lon="17.964768103547">
        <ele>51.6</ele>
        <time>2017-12-04T18:54:21Z</time>
      </trkpt>
      <trkpt lat="62.635173678828" lon="17.964758715819">
        <ele>51.4</ele>
        <time>2017-12-04T18:54:22Z</time>
      </trkpt>
      <trkpt lat="62.635205781505" lon="17.964742622571">
        <ele>51.4</ele>
        <time>2017-12-04T18:54:23Z</time>
      </trkpt>
      <trkpt lat="62.635236962173" lon="17.964728205703">
        <ele>51.2</ele>
        <time>2017-12-04T18:54:24Z</time>
      </trkpt>
      <trkpt lat="62.635263700434" lon="17.964718985613">
        <ele>51.2</ele>
        <time>2017-12-04T18:54:25Z</time>
      </trkpt>
      <trkpt lat="62.635285241917" lon="17.964705993668">
        <ele>51</ele>
        <time>2017-12-04T18:54:26Z</time>
      </trkpt>
      <trkpt lat="62.635312818368" lon="17.964695432474">
        <ele>50.8</ele>
        <time>2017-12-04T18:54:27Z</time>
      </trkpt>
      <trkpt lat="62.635337544973" lon="17.964682189072">
        <ele>50.6</ele>
        <time>2017-12-04T18:54:28Z</time>
      </trkpt>
      <trkpt lat="62.635363277406" lon="17.96467313662">
        <ele>50.6</ele>
        <time>2017-12-04T18:54:29Z</time>
      </trkpt>
      <trkpt lat="62.635392865513" lon="17.964664251806">
        <ele>50.6</ele>
        <time>2017-12-04T18:54:30Z</time>
      </trkpt>
      <trkpt lat="62.635417675937" lon="17.964656708096">
        <ele>50.4</ele>
        <time>2017-12-04T18:54:31Z</time>
      </trkpt>
      <trkpt lat="62.635441312895" lon="17.964641620676">
        <ele>50.6</ele>
        <time>2017-12-04T18:54:32Z</time>
      </trkpt>
      <trkpt lat="62.635466207138" lon="17.964622593763">
        <ele>50.4</ele>
        <time>2017-12-04T18:54:33Z</time>
      </trkpt>
      <trkpt lat="62.635491017562" lon="17.964612032569">
        <ele>50.4</ele>
        <time>2017-12-04T18:54:34Z</time>
      </trkpt>
      <trkpt lat="62.635520018936" lon="17.964599543538">
        <ele>50.4</ele>
        <time>2017-12-04T18:54:35Z</time>
      </trkpt>
      <trkpt lat="62.6355498585" lon="17.964586719231">
        <ele>50.4</ele>
        <time>2017-12-04T18:54:36Z</time>
      </trkpt>
      <trkpt lat="62.635571232345" lon="17.964564674834">
        <ele>50.4</ele>
        <time>2017-12-04T18:54:37Z</time>
      </trkpt>
      <trkpt lat="62.6356001499" lon="17.964545480283">
        <ele>50.4</ele>
        <time>2017-12-04T18:54:38Z</time>
      </trkpt>
      <trkpt lat="62.635626636704" lon="17.964532236881">
        <ele>50.4</ele>
        <time>2017-12-04T18:54:39Z</time>
      </trkpt>
      <trkpt lat="62.635649854567" lon="17.964512371778">
        <ele>50.4</ele>
        <time>2017-12-04T18:54:40Z</time>
      </trkpt>
      <trkpt lat="62.635677179561" lon="17.964490662657">
        <ele>50.4</ele>
        <time>2017-12-04T18:54:41Z</time>
      </trkpt>
      <trkpt lat="62.635702492899" lon="17.964475072323">
        <ele>50.4</ele>
        <time>2017-12-04T18:54:42Z</time>
      </trkpt>
      <trkpt lat="62.635727890056" lon="17.964460571636">
        <ele>50.4</ele>
        <time>2017-12-04T18:54:43Z</time>
      </trkpt>
      <trkpt lat="62.635756220878" lon="17.964440622714">
        <ele>50.4</ele>
        <time>2017-12-04T18:54:44Z</time>
      </trkpt>
      <trkpt lat="62.635780193112" lon="17.964428468959">
        <ele>50.4</ele>
        <time>2017-12-04T18:54:45Z</time>
      </trkpt>
      <trkpt lat="62.635800644948" lon="17.964400557232">
        <ele>50.4</ele>
        <time>2017-12-04T18:54:46Z</time>
      </trkpt>
      <trkpt lat="62.635825790648" lon="17.964380775948">
        <ele>50.4</ele>
        <time>2017-12-04T18:54:47Z</time>
      </trkpt>
      <trkpt lat="62.63585244509" lon="17.964358731551">
        <ele>50.4</ele>
        <time>2017-12-04T18:54:48Z</time>
      </trkpt>
      <trkpt lat="62.635874657125" lon="17.964341632475">
        <ele>50.2</ele>
        <time>2017-12-04T18:54:49Z</time>
      </trkpt>
      <trkpt lat="62.635901563024" lon="17.964318749888">
        <ele>50</ele>
        <time>2017-12-04T18:54:50Z</time>
      </trkpt>
      <trkpt lat="62.635927714552" lon="17.964292179265">
        <ele>50</ele>
        <time>2017-12-04T18:54:51Z</time>
      </trkpt>
      <trkpt lat="62.635946657646" lon="17.964268039393">
        <ele>49.8</ele>
        <time>2017-12-04T18:54:52Z</time>
      </trkpt>
      <trkpt lat="62.635977503038" lon="17.964231997223">
        <ele>49.6</ele>
        <time>2017-12-04T18:54:53Z</time>
      </trkpt>
      <trkpt lat="62.636001726729" lon="17.964209869007">
        <ele>49.6</ele>
        <time>2017-12-04T18:54:54Z</time>
      </trkpt>
      <trkpt lat="62.636022430022" lon="17.964183885117">
        <ele>49.6</ele>
        <time>2017-12-04T18:54:55Z</time>
      </trkpt>
      <trkpt lat="62.636048246274" lon="17.96415848796">
        <ele>49.6</ele>
        <time>2017-12-04T18:54:56Z</time>
      </trkpt>
      <trkpt lat="62.636072302327" lon="17.964141053608">
        <ele>49.4</ele>
        <time>2017-12-04T18:54:57Z</time>
      </trkpt>
      <trkpt lat="62.636095184914" lon="17.964115237356">
        <ele>49.4</ele>
        <time>2017-12-04T18:54:58Z</time>
      </trkpt>
      <trkpt lat="62.636124437745" lon="17.96408640362">
        <ele>49.4</ele>
        <time>2017-12-04T18:54:59Z</time>
      </trkpt>
      <trkpt lat="62.636149248169" lon="17.964060922644">
        <ele>49.4</ele>
        <time>2017-12-04T18:55:00Z</time>
      </trkpt>
      <trkpt lat="62.636172130756" lon="17.964031250718">
        <ele>49.4</ele>
        <time>2017-12-04T18:55:01Z</time>
      </trkpt>
      <trkpt lat="62.636194342791" lon="17.964006272656">
        <ele>49.2</ele>
        <time>2017-12-04T18:55:02Z</time>
      </trkpt>
      <trkpt lat="62.636220075224" lon="17.963977941834">
        <ele>49.2</ele>
        <time>2017-12-04T18:55:03Z</time>
      </trkpt>
      <trkpt lat="62.636230133504" lon="17.963966458631">
        <ele>49.2</ele>
        <time>2017-12-04T18:55:04Z</time>
      </trkpt>
      <trkpt lat="62.636263325828" lon="17.963934188316">
        <ele>49.2</ele>
        <time>2017-12-04T18:55:05Z</time>
      </trkpt>
      <trkpt lat="62.636283861483" lon="17.963907952969">
        <ele>49.2</ele>
        <time>2017-12-04T18:55:06Z</time>
      </trkpt>
      <trkpt lat="62.63630087674" lon="17.96388439983">
        <ele>49.2</ele>
        <time>2017-12-04T18:55:07Z</time>
      </trkpt>
      <trkpt lat="62.636323926965" lon="17.963858164483">
        <ele>49</ele>
        <time>2017-12-04T18:55:08Z</time>
      </trkpt>
      <trkpt lat="62.636345216991" lon="17.963835617172">
        <ele>49</ele>
        <time>2017-12-04T18:55:09Z</time>
      </trkpt>
      <trkpt lat="62.636363070438" lon="17.963813488956">
        <ele>49</ele>
        <time>2017-12-04T18:55:10Z</time>
      </trkpt>
      <trkpt lat="62.636384025188" lon="17.963780799546">
        <ele>49</ele>
        <time>2017-12-04T18:55:11Z</time>
      </trkpt>
      <trkpt lat="62.636402549187" lon="17.96375196581">
        <ele>49</ele>
        <time>2017-12-04T18:55:12Z</time>
      </trkpt>
      <trkpt lat="62.636419480625" lon="17.963726149558">
        <ele>49</ele>
        <time>2017-12-04T18:55:13Z</time>
      </trkpt>
      <trkpt lat="62.63643079619" lon="17.963707793197">
        <ele>48.8</ele>
        <time>2017-12-04T18:55:14Z</time>
      </trkpt>
      <trkpt lat="62.636441273565" lon="17.963685329705">
        <ele>48.6</ele>
        <time>2017-12-04T18:55:15Z</time>
      </trkpt>
      <trkpt lat="62.636452840587" lon="17.963668482086">
        <ele>48.8</ele>
        <time>2017-12-04T18:55:16Z</time>
      </trkpt>
      <trkpt lat="62.6364634856" lon="17.963663704403">
        <ele>48.8</ele>
        <time>2017-12-04T18:55:17Z</time>
      </trkpt>
      <trkpt lat="62.636475723174" lon="17.963653729942">
        <ele>49</ele>
        <time>2017-12-04T18:55:18Z</time>
      </trkpt>
      <trkpt lat="62.636490475318" lon="17.96365305939">
        <ele>49.2</ele>
        <time>2017-12-04T18:55:19Z</time>
      </trkpt>
      <trkpt lat="62.636504473091" lon="17.963655825417">
        <ele>49.2</ele>
        <time>2017-12-04T18:55:20Z</time>
      </trkpt>
      <trkpt lat="62.636518135588" lon="17.963668482086">
        <ele>49.4</ele>
        <time>2017-12-04T18:55:21Z</time>
      </trkpt>
      <trkpt lat="62.636525176384" lon="17.963694801252">
        <ele>49.4</ele>
        <time>2017-12-04T18:55:22Z</time>
      </trkpt>
      <trkpt lat="62.636530959895" lon="17.963724808454">
        <ele>49.6</ele>
        <time>2017-12-04T18:55:23Z</time>
      </trkpt>
      <trkpt lat="62.636536324311" lon="17.963748445412">
        <ele>49.6</ele>
        <time>2017-12-04T18:55:24Z</time>
      </trkpt>
      <trkpt lat="62.636543784202" lon="17.963768981067">
        <ele>49.4</ele>
        <time>2017-12-04T18:55:25Z</time>
      </trkpt>
      <trkpt lat="62.63654981917" lon="17.963794210586">
        <ele>49.2</ele>
        <time>2017-12-04T18:55:26Z</time>
      </trkpt>
      <trkpt lat="62.636555937957" lon="17.963816254983">
        <ele>49</ele>
        <time>2017-12-04T18:55:27Z</time>
      </trkpt>
      <trkpt lat="62.636563565486" lon="17.963844082891">
        <ele>49</ele>
        <time>2017-12-04T18:55:28Z</time>
      </trkpt>
      <trkpt lat="62.636571444472" lon="17.963871743161">
        <ele>49</ele>
        <time>2017-12-04T18:55:29Z</time>
      </trkpt>
      <trkpt lat="62.63657915582" lon="17.963895799214">
        <ele>49</ele>
        <time>2017-12-04T18:55:30Z</time>
      </trkpt>
      <trkpt lat="62.636587956815" lon="17.963924465312">
        <ele>48.8</ele>
        <time>2017-12-04T18:55:31Z</time>
      </trkpt>
      <trkpt lat="62.636595751982" lon="17.963948856641">
        <ele>48.8</ele>
        <time>2017-12-04T18:55:32Z</time>
      </trkpt>
      <trkpt lat="62.636603630968" lon="17.9639791153">
        <ele>48.8</ele>
        <time>2017-12-04T18:55:33Z</time>
      </trkpt>
      <trkpt lat="62.636608995384" lon="17.963985234087">
        <ele>48.8</ele>
        <time>2017-12-04T18:55:34Z</time>
      </trkpt>
      <trkpt lat="62.636622071148" lon="17.964015073651">
        <ele>48.8</ele>
        <time>2017-12-04T18:55:35Z</time>
      </trkpt>
      <trkpt lat="62.636629195763" lon="17.964027981777">
        <ele>48.8</ele>
        <time>2017-12-04T18:55:36Z</time>
      </trkpt>
      <trkpt lat="62.63663866731" lon="17.964044829396">
        <ele>48.8</ele>
        <time>2017-12-04T18:55:37Z</time>
      </trkpt>
      <trkpt lat="62.636651323979" lon="17.964066789974">
        <ele>49</ele>
        <time>2017-12-04T18:55:38Z</time>
      </trkpt>
      <trkpt lat="62.636661717535" lon="17.96408556543">
        <ele>49</ele>
        <time>2017-12-04T18:55:39Z</time>
      </trkpt>
      <trkpt lat="62.636671440539" lon="17.96410400561">
        <ele>49</ele>
        <time>2017-12-04T18:55:40Z</time>
      </trkpt>
      <trkpt lat="62.63668225319" lon="17.964119679763">
        <ele>49</ele>
        <time>2017-12-04T18:55:41Z</time>
      </trkpt>
      <trkpt lat="62.636694071669" lon="17.964135689192">
        <ele>49</ele>
        <time>2017-12-04T18:55:42Z</time>
      </trkpt>
      <trkpt lat="62.636709578184" lon="17.964165947851">
        <ele>49</ele>
        <time>2017-12-04T18:55:43Z</time>
      </trkpt>
      <trkpt lat="62.636719217369" lon="17.964188495162">
        <ele>49</ele>
        <time>2017-12-04T18:55:44Z</time>
      </trkpt>
      <trkpt lat="62.636727263993" lon="17.96420291203">
        <ele>49</ele>
        <time>2017-12-04T18:55:45Z</time>
      </trkpt>
    </trkseg>
  </trk>
</gpx>